[[{"header":{"parameterUnit":"m.s-1","parameterCategory":1,"la1":31.0,"la2":29.5877,"lo1":-88.7671,"lo2":-86.6584,"dy":0.0162,"dx":0.0185,"nx":115,"ny":88,"refTime":"2026-04-12T00:00:00:Z","depth":0,"parameterNumber":2,"parameterNumberName":"U-component_of_WINDS"},"data":[0.0,0.0,0.0,0.0,0.0,0.0,0.0,0.0,0.0,0.0,0.0,0.0,0.0,0.0,0.0,0.0,0.0,0.0,0.0,0.0,0.0,0.0,0.0,0.0,0.0,0.0,0.0,0.0,0.0,0.0,0.0,0.0,0.0,0.0,0.0,0.0,0.0,0.0,0.0,0.0,0.0,0.0,0.0,0.0,0.0,0.0,0.0,0.0,0.0,0.0,0.0,0.0,0.0,0.0,0.0,0.0,0.0,0.0,0.0,0.0,0.0,0.0,0.0,0.0,0.0,0.0,0.0,0.0,0.0,0.0,0.0,0.0,0.0,0.0,0.0,0.0,0.0,0.0,0.0,0.0,0.0,0.0,0.0,0.0,0.0,0.0,0.0,0.0,0.0,0.0,0.0,0.0,0.0,0.0,0.0,0.0,0.0,0.0,0.0,0.0,0.0,0.0,0.0,0.0,0.0,0.0,0.0,0.0,0.0,0.0,0.0,0.0,0.0,0.0,0.0,0.0,0.0,0.0,0.0,0.0,0.0,0.0,0.0,0.0,0.0,0.0,0.0,0.0,0.0,0.0,0.0,0.0,0.0,0.0,0.0,0.0,0.0,0.0,0.0,0.0,0.0,0.0,0.0,0.0,0.0,0.0,0.0,0.0,0.0,0.0,0.0,0.0,0.0,0.0,0.0,0.0,0.0,0.0,0.0,0.0,0.0,0.0,0.0,0.0,0.0,0.0,0.0,0.0,0.0,0.0,0.0,0.0,0.0,0.0,0.0,0.0,0.0,0.0,0.0,0.0,0.0,0.0,0.0,0.0,0.0,0.0,0.0,0.0,0.0,0.0,0.0,0.0,0.0,0.0,0.0,0.0,0.0,0.0,0.0,0.0,0.0,0.0,0.0,0.0,0.0,0.0,0.0,0.0,0.0,0.0,0.0,0.0,0.0,0.0,0.0,0.0,0.0,0.0,0.0,0.0,0.0,0.0,0.0,0.0,0.0,0.0,0.0,0.0,0.0,0.0,0.0,0.0,0.0,0.0,0.0,0.0,0.0,0.0,0.0,0.0,0.0,0.0,0.0,0.0,0.0,0.0,0.0,0.0,0.0,0.0,0.0,0.0,0.0,0.0,0.0,0.0,0.0,0.0,0.0,0.0,0.0,0.0,0.0,0.0,0.0,0.0,0.0,0.0,0.0,0.0,0.0,0.0,0.0,0.0,0.0,0.0,0.0,0.0,0.0,0.0,0.0,0.0,0.0,0.0,0.0,0.0,0.0,0.0,0.0,0.0,0.0,0.0,0.0,0.0,0.0,0.0,0.0,0.0,0.0,0.0,0.0,0.0,0.0,0.0,0.0,0.0,0.0,0.0,0.0,0.0,0.0,0.0,0.0,0.0,0.0,0.0,0.0,0.0,0.0,0.0,0.0,0.0,0.0,0.0,0.0,0.0,0.0,0.0,0.0,0.0,0.0,0.0,0.0,0.0,0.0,0.0,0.0,0.0,0.0,0.0,0.0,0.0,0.0,0.0,0.0,0.0,0.0,0.0,0.0,0.0,0.0,0.0,0.0,0.0,0.0,0.0,0.0,0.0,0.0,0.0,0.0,0.0,0.0,0.0,0.0,0.0,0.0,0.0,0.0,0.0,0.0,0.0,0.0,0.0,0.0,0.0,0.0,0.0,0.0,0.0,0.0,0.0,0.0,0.0,0.0,0.0,0.0,0.0,0.0,0.0,0.0,0.0,0.0,0.0,0.0,0.0,0.0,0.0,0.0,0.0,0.0,0.0,0.0,0.0,0.0,0.0,0.0,0.0,0.0,0.0,0.0,0.0,0.0,0.0,0.0,0.0,0.0,0.0,0.0,0.0,0.0,0.0,0.0,0.0,0.0,0.0,0.0,0.0,0.0,0.0,0.0,0.0,0.0,0.0,0.0,0.0,0.0,0.0,0.0,0.0,0.0,0.0,0.0,0.0,0.0,0.0,0.0,0.0,0.0,0.0,0.0,0.0,0.0,0.0,0.0,0.0,0.0,0.0,0.0,0.0,0.0,0.0,0.0,0.0,0.0,0.0,0.0,0.0,0.0,0.0,0.0,0.0,0.0,0.0,0.0,0.0,0.0,0.0,0.0,0.0,0.0,0.0,0.0,0.0,0.0,0.0,0.0,0.0,0.0,0.0,0.0,0.0,0.0,0.0,0.0,0.0,0.0,0.0,0.0,0.0,0.0,0.0,0.0,0.0,0.0,0.0,0.0,0.0,0.0,0.0,0.0,0.0,0.0,0.0,0.0,0.0,0.0,0.0,0.0,0.0,0.0,0.0,0.0,0.0,0.0,0.0,0.0,0.0,0.0,0.0,0.0,0.0,0.0,0.0,0.0,0.0,0.0,0.0,0.0,0.0,0.0,0.0,0.0,0.0,0.0,0.0,0.0,0.0,0.0,0.0,0.0,0.0,0.0,0.0,0.0,0.0,0.0,0.0,0.0,0.0,0.0,0.0,0.0,0.0,0.0,0.0,0.0,0.0,0.0,0.0,0.0,0.0,0.0,0.0,0.0,0.0,0.0,0.0,0.0,0.0,0.0,0.0,0.0,0.0,0.0,0.0,0.0,0.0,0.0,0.0,0.0,0.0,0.0,0.0,0.0,0.0,0.0,0.0,0.0,0.0,0.0,0.0,0.0,0.0,0.0,0.0,0.0,0.0,0.0,0.0,0.0,0.0,0.0,0.0,0.0,0.0,0.0,0.0,0.0,0.0,0.0,0.0,0.0,0.0,0.0,0.0,0.0,0.0,0.0,0.0,0.0,0.0,0.0,0.0,0.0,0.0,0.0,0.0,0.0,0.0,0.0,0.0,0.0,0.0,0.0,0.0,0.0,0.0,0.0,0.0,0.0,0.0,0.0,0.0,0.0,0.0,0.0,0.0,0.0,0.0,0.0,0.0,0.0,0.0,0.0,0.0,0.0,0.0,0.0,0.0,0.0,0.0,0.0,0.0,0.0,0.0,0.0,0.0,0.0,0.0,0.0,0.0,0.0,0.0,0.0,0.0,0.0,0.0,0.0,0.0,0.0,0.0,0.0,0.0,0.0,0.0,0.0,0.0,0.0,0.0,0.0,0.0,0.0,0.0,0.0,0.0,0.0,0.0,0.0,0.0,0.0,0.0,0.0,0.0,0.0,0.0,0.0,0.0,0.0,0.0,0.0,0.0,0.0,0.0,0.0,0.0,0.0,0.0,0.0,0.0,0.0,0.0,0.0,0.0,0.0,0.0,0.0,0.0,0.0,0.0,0.0,0.0,0.0,0.0,0.0,0.0,0.0,0.0,0.0,0.0,0.0,0.0,0.0,0.0,0.0,0.0,0.0,0.0,0.0,0.0,0.0,0.0,0.0,0.0,0.0,0.0,0.0,0.0,0.0,0.0,0.0,0.0,0.0,0.0,0.0,0.0,0.0,0.0,0.0,0.0,0.0,0.0,0.0,0.0,0.0,0.0,0.0,0.0,0.0,0.0,0.0,0.0,0.0,0.0,0.0,0.0,0.0,0.0,0.0,0.0,0.0,0.0,0.0,0.0,0.0,0.0,0.0,0.0,0.0,0.0,0.0,0.0,0.0,0.0,0.0,0.0,0.0,0.0,0.0,0.0,0.0,0.0,0.0,0.0,0.0,0.0,0.0,0.0,0.0,0.0,0.0,0.0,0.0,0.0,0.0,0.0,0.0,0.0,0.0,0.0,0.0,0.0,0.0,0.0,0.0,0.0,0.0,0.0,0.0,0.0,0.0,0.0,0.0,0.0,0.0,0.0,0.0,0.0,0.0,0.0,0.0,0.0,0.0,0.0,0.0,0.0,0.0,0.0,0.0,0.0,0.0,0.0,0.0,0.0,0.0,0.0,0.0,0.0,0.0,0.0,0.0,0.0,0.0,0.0,0.0,0.0,0.0,0.0,0.0,0.0,0.0,0.0,0.0,0.0,0.0,0.0,0.0,0.0,0.0,0.0,0.0,0.0,0.0,0.0,0.0,0.0,0.0,0.0,0.0,0.0,0.0,0.0,0.0,0.0,0.0,0.0,0.0,0.0,0.0,0.0,0.0,0.0,0.0,0.0,0.0,0.0,0.0,0.0,0.0,0.0,0.0,0.0,0.0,0.0,0.0,0.0,0.0,0.0,0.0,0.0,0.0,0.0,0.0,0.0,0.0,0.0,0.0,0.0,0.0,0.0,0.0,0.0,0.0,0.0,0.0,0.0,0.0,0.0,0.0,0.0,0.0,0.0,0.0,0.0,0.0,0.0,-0.6608,0.0,0.0,0.0,0.0,0.0,0.0,0.0,0.0,0.0,0.0,0.0,0.0,0.0,0.0,0.0,0.0,0.0,0.0,0.0,0.0,0.0,0.0,0.0,0.0,0.0,0.0,0.0,0.0,0.0,0.0,0.0,0.0,0.0,0.0,0.0,0.0,0.0,0.0,0.0,0.0,0.0,0.0,0.0,0.0,0.0,0.0,0.0,0.0,0.0,0.0,0.0,0.0,0.0,0.0,0.0,0.0,0.0,0.0,0.0,0.0,0.0,0.0,0.0,0.0,0.0,0.0,0.0,0.0,0.0,0.0,0.0,0.0,0.0,0.0,0.0,0.0,0.0,0.0,0.0,0.0,0.0,0.0,0.0,0.0,0.0,0.0,0.0,0.0,0.0,0.0,0.0,0.0,0.0,0.0,0.0,0.0,0.0,0.0,0.0,0.0,0.0,0.0,0.0,0.0,0.0,0.0,0.0,0.0,0.0,0.0,-0.7189,-0.6782,-0.674,-0.6702,-0.6599,0.0,0.0,0.0,0.0,0.0,0.0,0.0,0.0,0.0,0.0,0.0,0.0,0.0,0.0,0.0,0.0,0.0,0.0,0.0,0.0,0.0,0.0,0.0,0.0,0.0,0.0,0.0,0.0,0.0,0.0,0.0,0.0,0.0,0.0,0.0,0.0,0.0,0.0,0.0,0.0,0.0,0.0,0.0,0.0,0.0,0.0,0.0,0.0,0.0,0.0,0.0,0.0,0.0,0.0,0.0,0.0,0.0,0.0,0.0,0.0,0.0,0.0,0.0,0.0,0.0,0.0,0.0,0.0,0.0,0.0,0.0,0.0,0.0,0.0,0.0,0.0,0.0,0.0,0.0,0.0,0.0,0.0,0.0,0.0,0.0,0.0,0.0,0.0,0.0,0.0,0.0,0.0,0.0,0.0,0.0,0.0,0.0,0.0,0.0,0.0,0.0,0.0,0.0,0.0,0.0,0.0,0.0,0.0,0.0,0.0,0.0,0.0,-0.6723,-0.6642,-0.659,0.0,0.0,0.0,0.0,0.0,0.0,0.0,0.0,0.0,0.0,0.0,0.0,0.0,0.0,0.0,0.0,0.0,0.0,0.0,0.0,0.0,0.0,0.0,0.0,0.0,0.0,0.0,0.0,0.0,0.0,0.0,0.0,0.0,0.0,0.0,0.0,0.0,0.0,0.0,0.0,0.0,0.0,0.0,0.0,0.0,0.0,0.0,0.0,0.0,0.0,0.0,0.0,0.0,0.0,0.0,0.0,0.0,0.0,0.0,0.0,0.0,0.0,0.0,0.0,0.0,0.0,0.0,0.0,0.0,0.0,0.0,0.0,0.0,0.0,0.0,0.0,0.0,0.0,0.0,0.0,0.0,0.0,0.0,0.0,0.0,0.0,0.0,0.0,0.0,0.0,0.0,0.0,0.0,0.0,0.0,0.0,0.0,0.0,0.0,0.0,0.0,0.0,0.0,0.0,0.0,0.0,0.0,0.0,0.0,0.0,-0.7015,-0.6651,-0.6791,0.0,-0.6616,0.0,0.0,0.0,0.0,0.0,0.0,0.0,0.0,0.0,0.0,0.0,0.0,0.0,0.0,0.0,0.0,0.0,0.0,0.0,0.0,0.0,0.0,0.0,0.0,0.0,0.0,0.0,0.0,0.0,0.0,0.0,0.0,0.0,0.0,0.0,0.0,0.0,0.0,0.0,0.0,0.0,0.0,0.0,0.0,0.0,0.0,0.0,0.0,0.0,0.0,0.0,0.0,0.0,0.0,0.0,0.0,0.0,0.0,0.0,0.0,0.0,0.0,0.0,0.0,0.0,0.0,0.0,0.0,0.0,0.0,0.0,0.0,0.0,0.0,0.0,0.0,0.0,0.0,0.0,0.0,0.0,0.0,0.0,0.0,0.0,0.0,0.0,0.0,0.0,0.0,0.0,0.0,0.0,0.0,0.0,0.0,0.0,0.0,0.0,0.0,0.0,0.0,0.0,0.0,0.0,0.0,0.0,0.0,0.0,0.0,0.0,-0.6782,-0.674,-0.6689,0.0,0.0,0.0,0.0,0.0,0.0,0.0,0.0,0.0,0.0,0.0,0.0,0.0,0.0,0.0,0.0,0.0,0.0,0.0,0.0,0.0,0.0,0.0,0.0,0.0,0.0,0.0,0.0,0.0,0.0,0.0,0.0,0.0,0.0,0.0,0.0,0.0,0.0,0.0,0.0,0.0,0.0,0.0,0.0,0.0,0.0,0.0,0.0,0.0,0.0,0.0,0.0,0.0,0.0,0.0,0.0,0.0,0.0,0.0,0.0,0.0,0.0,0.0,0.0,0.0,0.0,0.0,0.0,0.0,0.0,0.0,0.0,0.0,0.0,0.0,0.0,0.0,0.0,0.0,0.0,0.0,0.0,0.0,0.0,0.0,0.0,0.0,0.0,0.0,0.0,0.0,0.0,0.0,0.0,0.0,0.0,0.0,0.0,0.0,0.0,0.0,0.0,0.0,0.0,0.0,0.0,0.0,0.0,0.0,0.0,-0.7247,0.0,-0.6833,-0.6664,-0.659,-0.659,0.0,0.0,0.0,0.0,0.0,0.0,0.0,0.0,0.0,0.0,0.0,0.0,0.0,0.0,0.0,0.0,0.0,0.0,0.0,0.0,0.0,0.0,0.0,0.0,0.0,0.0,0.0,0.0,0.0,0.0,0.0,0.0,0.0,0.0,0.0,0.0,0.0,0.0,0.0,0.0,0.0,0.0,0.0,0.0,0.0,0.0,0.0,0.0,0.0,0.0,0.0,0.0,0.0,0.0,0.0,0.0,0.0,0.0,0.0,0.0,0.0,0.0,0.0,0.0,0.0,0.0,0.0,0.0,0.0,0.0,0.0,0.0,0.0,0.0,0.0,0.0,0.0,0.0,0.0,0.0,0.0,0.0,0.0,0.0,0.0,0.0,0.0,0.0,0.0,0.0,0.0,0.0,0.0,0.0,0.0,0.0,0.0,0.0,0.0,0.0,0.0,0.0,0.0,0.0,0.0,0.0,0.0,0.0,0.0,-0.7021,-0.6833,-0.6633,-0.659,-0.659,0.0,0.0,0.0,0.0,0.0,0.0,0.0,0.0,0.0,0.0,0.0,0.0,0.0,0.0,0.0,0.0,0.0,0.0,0.0,0.0,0.0,0.0,0.0,0.0,0.0,0.0,0.0,0.0,0.0,0.0,0.0,0.0,0.0,0.0,0.0,0.0,0.0,0.0,0.0,0.0,0.0,0.0,0.0,0.0,0.0,0.0,0.0,0.0,0.0,0.0,0.0,0.0,0.0,0.0,0.0,0.0,0.0,0.0,0.0,0.0,0.0,0.0,0.0,0.0,0.0,0.0,0.0,0.0,0.0,0.0,0.0,0.0,0.0,0.0,0.0,0.0,0.0,0.0,0.0,0.0,0.0,0.0,0.0,0.0,0.0,0.0,0.0,0.0,0.0,0.0,0.0,0.0,0.0,0.0,0.0,0.0,0.0,0.0,0.0,0.0,0.0,0.0,0.0,0.0,0.0,0.0,0.0,0.0,0.0,-0.7447,-0.7091,-0.6799,-0.6608,-0.659,-0.659,0.0,0.0,0.0,0.0,0.0,0.0,0.0,0.0,0.0,0.0,0.0,0.0,0.0,0.0,0.0,0.0,0.0,0.0,0.0,0.0,0.0,0.0,0.0,0.0,0.0,0.0,0.0,0.0,0.0,0.0,0.0,0.0,0.0,0.0,0.0,0.0,0.0,0.0,0.0,0.0,0.0,0.0,0.0,0.0,0.0,0.0,0.0,0.0,0.0,0.0,0.0,0.0,0.0,0.0,0.0,0.0,0.0,0.0,0.0,0.0,0.0,0.0,0.0,0.0,0.0,0.0,0.0,0.0,0.0,0.0,0.0,0.0,0.0,0.0,0.0,0.0,0.0,0.0,0.0,0.0,0.0,0.0,0.0,0.0,0.0,0.0,0.0,0.0,0.0,0.0,0.0,0.0,0.0,0.0,0.0,0.0,0.0,0.0,0.0,0.0,0.0,0.0,0.0,0.0,0.0,0.0,0.0,0.0,0.0,-0.7462,0.0,-0.6799,0.0,-0.659,-0.659,0.0,0.0,0.0,0.0,0.0,0.0,0.0,0.0,0.0,0.0,0.0,0.0,0.0,0.0,0.0,0.0,0.0,0.0,0.0,0.0,0.0,0.0,0.0,0.0,0.0,0.0,0.0,0.0,0.0,0.0,0.0,0.0,0.0,0.0,0.0,0.0,0.0,0.0,0.0,0.0,0.0,0.0,0.0,0.0,0.0,0.0,0.0,0.0,0.0,0.0,0.0,0.0,0.0,0.0,0.0,0.0,0.0,0.0,0.0,0.0,0.0,0.0,0.0,0.0,0.0,0.0,0.0,0.0,0.0,0.0,0.0,0.0,0.0,0.0,0.0,0.0,0.0,0.0,0.0,0.0,0.0,0.0,0.0,0.0,0.0,0.0,0.0,0.0,0.0,0.0,0.0,0.0,0.0,0.0,0.0,0.0,0.0,0.0,0.0,0.0,0.0,0.0,0.0,0.0,0.0,0.0,0.0,0.0,-0.7694,-0.7217,-0.7031,-0.6855,-0.662,-0.6603,-0.6599,0.0,0.0,0.0,0.0,0.0,0.0,0.0,0.0,0.0,0.0,0.0,0.0,0.0,0.0,0.0,0.0,0.0,0.0,0.0,0.0,0.0,0.0,0.0,0.0,0.0,0.0,0.0,0.0,0.0,0.0,0.0,0.0,0.0,0.0,0.0,0.0,0.0,0.0,0.0,0.0,0.0,0.0,0.0,0.0,0.0,0.0,0.0,0.0,0.0,0.0,0.0,0.0,0.0,0.0,0.0,0.0,0.0,0.0,0.0,0.0,0.0,0.0,0.0,0.0,0.0,0.0,0.0,0.0,0.0,0.0,0.0,0.0,0.0,0.0,0.0,0.0,0.0,0.0,0.0,0.0,0.0,0.0,0.0,0.0,0.0,0.0,0.0,0.0,0.0,0.0,0.0,0.0,0.0,0.0,0.0,0.0,0.0,0.0,0.0,0.0,0.0,0.0,0.0,0.0,0.0,0.0,0.0,0.0,0.0,-0.7026,-0.7393,-0.744,-0.7159,-0.6803,-0.6787,0.0,0.0,0.0,0.0,0.0,0.0,0.0,0.0,0.0,0.0,0.0,0.0,0.0,0.0,0.0,0.0,0.0,0.0,0.0,0.0,0.0,0.0,0.0,0.0,0.0,0.0,0.0,0.0,0.0,0.0,0.0,0.0,0.0,0.0,0.0,0.0,0.0,0.0,0.0,0.0,0.0,0.0,0.0,0.0,0.0,0.0,0.0,0.0,0.0,0.0,0.0,0.0,0.0,0.0,0.0,0.0,0.0,0.0,0.0,0.0,0.0,0.0,0.0,0.0,0.0,0.0,0.0,0.0,0.0,0.0,0.0,0.0,0.0,0.0,0.0,0.0,0.0,0.0,0.0,0.0,0.0,0.0,0.0,0.0,0.0,0.0,0.0,0.0,0.0,0.0,0.0,0.0,0.0,0.0,0.0,0.0,0.0,0.0,0.0,0.0,0.0,0.0,0.0,0.0,0.0,0.0,0.0,0.0,0.0,-0.7623,-0.8064,-0.8042,-0.7428,-0.7066,-0.6966,-0.7091,0.0,0.0,0.0,0.0,0.0,0.0,0.0,0.0,0.0,0.0,0.0,0.0,0.0,0.0,0.0,0.0,0.0,0.0,0.0,0.0,0.0,0.0,0.0,0.0,0.0,0.0,0.0,0.0,0.0,0.0,0.0,0.0,0.0,0.0,0.0,0.0,0.0,0.0,0.0,0.0,0.0,0.0,0.0,0.0,0.0,0.0,0.0,0.0,0.0,0.0,0.0,0.0,0.0,0.0,0.0,0.0,0.0,0.0,0.0,0.0,0.0,0.0,0.0,0.0,0.0,0.0,0.0,0.0,0.0,0.0,0.0,0.0,0.0,0.0,0.0,0.0,0.0,0.0,0.0,0.0,0.0,0.0,0.0,0.0,0.0,0.0,0.0,0.0,0.0,0.0,0.0,0.0,0.0,0.0,0.0,0.0,0.0,0.0,0.0,0.0,0.0,0.0,0.0,0.0,0.0,0.0,0.0,0.0,-0.8703,-0.9029,-0.8672,-0.758,-0.7473,-0.72,0.0,0.0,0.0,0.0,0.0,0.0,0.0,0.0,0.0,0.0,0.0,0.0,0.0,0.0,0.0,0.0,0.0,0.0,0.0,0.0,0.0,0.0,0.0,0.0,0.0,0.0,0.0,0.0,0.0,0.0,0.0,0.0,0.0,0.0,0.0,0.0,0.0,0.0,0.0,0.0,0.0,0.0,0.0,0.0,0.0,0.0,0.0,0.0,0.0,0.0,0.0,0.0,0.0,0.0,0.0,0.0,0.0,0.0,0.0,0.0,0.0,0.0,0.0,0.0,0.0,0.0,0.0,0.0,0.0,0.0,0.0,0.0,0.0,0.0,0.0,0.0,0.0,0.0,0.0,0.0,0.0,0.0,0.0,0.0,0.0,0.0,0.0,0.0,0.0,0.0,0.0,0.0,0.0,0.0,0.0,0.0,0.0,0.0,0.0,0.0,0.0,0.0,0.0,0.0,0.0,0.0,0.0,0.0,0.0,-0.994,-1.0255,-0.997,-0.9039,-0.8198,-0.7791,0.0,0.0,0.0,0.0,0.0,0.0,0.0,0.0,0.0,0.0,0.0,0.0,0.0,0.0,0.0,0.0,0.0,0.0,0.0,0.0,0.0,0.0,0.0,0.0,0.0,0.0,0.0,0.0,0.0,0.0,0.0,0.0,0.0,0.0,0.0,0.0,0.0,0.0,0.0,0.0,0.0,0.0,0.0,0.0,0.0,0.0,0.0,0.0,0.0,0.0,0.0,0.0,0.0,0.0,0.0,0.0,0.0,0.0,0.0,0.0,0.0,0.0,0.0,0.0,0.0,0.0,0.0,0.0,0.0,0.0,0.0,0.0,0.0,0.0,0.0,0.0,0.0,0.0,0.0,0.0,0.0,0.0,0.0,0.0,0.0,0.0,0.0,0.0,0.0,0.0,0.0,0.0,0.0,0.0,0.0,0.0,0.0,0.0,0.0,0.0,0.0,0.0,0.0,0.0,0.0,0.0,0.0,0.0,-1.0248,-1.0956,-1.1197,-1.1052,-1.0581,-0.9166,-0.8255,0.0,0.0,0.0,0.0,0.0,0.0,0.0,0.0,0.0,0.0,0.0,0.0,0.0,0.0,0.0,0.0,0.0,0.0,0.0,0.0,0.0,0.0,0.0,0.0,0.0,0.0,0.0,0.0,0.0,0.0,0.0,0.0,0.0,0.0,0.0,0.0,0.0,0.0,0.0,0.0,0.0,0.0,0.0,0.0,0.0,0.0,0.0,0.0,0.0,0.0,0.0,0.0,0.0,0.0,0.0,0.0,0.0,0.0,0.0,0.0,0.0,0.0,0.0,0.0,0.0,0.0,0.0,0.0,0.0,0.0,0.0,0.0,0.0,0.0,0.0,0.0,0.0,0.0,0.0,0.0,0.0,0.0,0.0,0.0,0.0,0.0,0.0,0.0,0.0,0.0,0.0,0.0,0.0,0.0,0.0,0.0,0.0,0.0,0.0,0.0,0.0,0.0,0.0,0.0,0.0,0.0,0.0,0.0,-1.0533,-1.188,-1.1818,-1.1855,-1.1937,-1.0172,-0.8654,0.0,0.0,0.0,0.0,0.0,0.0,0.0,0.0,0.0,0.0,0.0,0.0,0.0,0.0,0.0,0.0,0.0,0.0,0.0,0.0,0.0,0.0,0.0,0.0,0.0,0.0,0.0,0.0,0.0,0.0,0.0,0.0,0.0,0.0,0.0,0.0,0.0,0.0,0.0,0.0,0.0,0.0,0.0,0.0,0.0,0.0,0.0,0.0,0.0,0.0,0.0,0.0,0.0,0.0,0.0,0.0,0.0,0.0,0.0,0.0,0.0,0.0,0.0,0.0,0.0,0.0,0.0,0.0,0.0,0.0,0.0,0.0,0.0,0.0,0.0,0.0,0.0,0.0,0.0,0.0,0.0,0.0,0.0,0.0,0.0,0.0,0.0,0.0,0.0,0.0,0.0,0.0,0.0,0.0,0.0,0.0,0.0,0.0,0.0,0.0,0.0,0.0,0.0,0.0,0.0,0.0,0.0,0.0,-1.0782,-1.2519,-1.2021,-1.2006,-1.2592,-1.078,-0.9273,0.0,0.0,0.0,0.0,0.0,0.0,0.0,0.0,0.0,0.0,0.0,0.0,0.0,0.0,0.0,0.0,0.0,0.0,0.0,0.0,0.0,0.0,0.0,0.0,0.0,0.0,0.0,0.0,0.0,0.0,0.0,0.0,0.0,0.0,0.0,0.0,0.0,0.0,0.0,0.0,0.0,0.0,0.0,0.0,0.0,0.0,0.0,0.0,-0.1309,0.0,0.0,0.0,0.0,0.0,0.0,0.0,0.0,0.0,0.0,0.0,0.0,0.0,0.0,0.0,0.0,0.0,0.0,0.0,0.0,0.0,0.0,0.0,0.0,0.0,0.0,0.0,0.0,0.0,0.0,0.0,0.0,0.0,0.0,0.0,0.0,0.0,0.0,0.0,0.0,0.0,0.0,0.0,0.0,0.0,0.0,0.0,0.0,0.0,0.0,0.0,0.0,0.0,0.0,0.0,0.0,0.0,0.0,0.0,-1.1595,-1.3184,-1.2885,-1.2732,-1.2759,-1.1562,-1.0071,0.0,0.0,0.0,0.0,0.0,0.0,0.0,0.0,0.0,0.0,0.0,0.0,0.0,0.0,0.0,0.0,0.0,0.0,0.0,0.0,0.0,0.0,0.0,0.0,0.0,0.0,0.0,0.0,0.0,0.0,0.0,0.0,0.0,0.0,0.0,0.0,0.0,0.0,0.0,0.0,0.0,0.0,0.0,0.0,0.0,0.0,0.0,0.0,0.0,0.0,0.0,0.0,0.0,0.0,0.0,0.0,0.0,0.0,0.0,0.0,0.0,0.0,0.0,0.0,0.0,0.0,0.0,0.0,0.0,0.0,0.0,0.0,0.0,0.0,0.0,0.0,0.0,0.0,0.0,0.0,0.0,0.0,0.0,0.0,0.0,0.0,0.0,0.0,0.0,0.0,0.0,0.0,0.0,0.0,0.0,0.0,0.0,0.0,0.0,0.0,0.0,0.0,0.0,0.0,0.0,0.0,0.0,-1.1102,-1.2358,-1.3722,-1.3771,-1.3484,-1.2941,-1.2223,-1.0771,-0.8543,0.0,0.0,0.0,0.0,0.0,0.0,0.0,0.0,0.0,0.0,0.0,0.0,0.0,0.0,0.0,0.0,0.0,0.0,0.0,0.0,0.0,0.0,0.0,0.0,0.0,0.0,0.0,0.0,0.0,0.0,0.0,0.0,0.0,0.0,0.0,0.0,0.0,0.0,-0.2682,-0.2803,0.0,0.0,0.0,0.0,0.0,0.0,0.0,0.0,-0.153,0.0,0.0,0.0,0.0,0.0,0.0,0.0,0.0,0.0,0.0,0.0,0.0,0.0,0.0,0.0,0.0,0.0,0.0,0.0,0.0,0.0,0.0,0.0,0.0,0.0,0.0,0.0,0.0,0.0,0.0,0.0,0.0,0.0,0.0,0.0,0.0,0.0,0.0,0.0,0.0,0.0,0.0,0.0,0.0,0.0,0.0,0.0,0.0,0.0,0.0,0.0,0.0,0.0,0.0,0.0,0.0,-1.0638,-1.0867,-1.1873,-1.3752,-1.3628,-1.3554,-1.3512,-1.2326,-1.081,-0.9063,0.0,0.0,0.0,0.0,0.0,0.0,0.0,0.0,0.0,0.0,0.0,0.0,0.0,0.0,0.0,0.0,0.0,0.0,0.0,0.0,0.0,0.0,0.0,0.0,0.0,0.0,0.0,0.0,0.0,0.0,0.0,0.0,0.0,0.0,0.0,0.0,0.0,0.0,0.0,-0.346,-0.3502,0.0,0.0,0.0,0.0,0.0,0.0,0.0,0.0,-0.1329,0.0,0.0,0.0,0.0,0.0,0.0,0.0,0.0,0.0,0.0,0.0,0.0,0.0,0.0,0.0,0.0,0.0,0.0,0.0,0.0,0.0,0.0,0.0,0.0,0.0,0.0,0.0,0.0,0.0,0.0,0.0,0.0,0.0,0.0,0.0,0.0,0.0,0.0,0.0,0.0,0.0,0.0,0.0,0.0,0.0,0.0,0.0,0.0,0.0,0.0,0.0,0.0,0.0,0.0,0.0,-1.0339,-1.1336,-1.2325,-1.3256,-1.3524,-1.3501,-1.3163,-1.1939,-1.0599,0.0,0.0,0.0,0.0,0.0,0.0,0.0,0.0,0.0,0.0,0.0,0.0,0.0,0.0,0.0,0.0,0.0,0.0,0.0,0.0,0.0,0.0,0.0,0.0,0.0,0.0,0.0,0.0,0.0,0.0,0.0,0.0,0.0,0.0,0.0,0.0,0.0,0.0,0.0,0.0,-0.3814,-0.3849,-0.3428,0.0,0.0,0.0,0.0,0.0,0.0,-0.2015,-0.1979,0.0,0.0,0.0,0.0,0.0,0.0,0.0,0.0,0.0,0.0,0.0,0.0,0.0,0.0,0.0,0.0,0.0,0.0,0.0,0.0,0.0,0.0,0.0,0.0,0.0,0.0,0.0,0.0,0.0,0.0,0.0,0.0,0.0,0.0,0.0,0.0,0.0,0.0,0.0,0.0,0.0,0.0,0.0,0.0,0.0,0.0,0.0,0.0,0.0,0.0,0.0,0.0,0.0,0.0,0.0,-0.9944,-1.1666,-1.2666,-1.2816,-1.3362,-1.3438,-1.2969,-1.1785,-1.0593,0.0,0.0,0.0,0.0,0.0,0.0,0.0,0.0,0.0,0.0,0.0,0.0,0.0,0.0,0.0,0.0,0.0,0.0,0.0,0.0,0.0,0.0,0.0,0.0,0.0,0.0,0.0,0.0,0.0,0.0,0.0,0.0,0.0,0.0,0.0,0.0,0.0,0.0,0.0,0.0,0.0,-0.4185,-0.392,-0.3586,0.0,0.0,0.0,0.0,-0.2406,-0.2755,0.0,0.0,0.0,0.0,0.0,0.0,0.0,0.0,0.0,0.0,0.0,0.0,0.0,0.0,0.0,0.0,0.0,0.0,0.0,0.0,0.0,0.0,0.0,0.0,0.0,0.0,0.0,0.0,0.0,0.0,0.0,0.0,0.0,0.0,0.0,0.0,0.0,0.0,0.0,0.0,0.0,0.0,0.0,0.0,0.0,0.0,0.0,0.0,0.0,0.0,0.0,0.0,0.0,0.0,0.0,0.0,-0.992,-1.1211,-1.219,-1.2777,-1.3111,-1.3494,-1.3898,-1.2425,-1.1245,0.0,0.0,0.0,0.0,0.0,0.0,0.0,0.0,0.0,0.0,0.0,0.0,0.0,0.0,0.0,0.0,0.0,0.0,0.0,0.0,0.0,0.0,0.0,0.0,0.0,0.0,0.0,0.0,0.0,0.0,0.0,0.0,0.0,0.0,0.0,0.0,0.0,0.0,0.0,0.0,0.0,-0.4769,-0.3712,-0.3949,-0.4056,0.0,0.0,-0.3786,-0.3618,-0.3933,0.0,0.0,0.0,0.0,0.0,0.0,0.0,0.0,0.0,0.0,0.0,0.0,0.0,0.0,0.0,0.0,0.0,0.0,0.0,0.0,0.0,0.0,0.0,0.0,0.0,0.0,0.0,0.0,0.0,0.0,0.0,0.0,0.0,0.0,0.0,0.0,0.0,0.0,0.0,0.0,0.0,0.0,0.0,0.0,0.0,0.0,0.0,0.0,0.0,0.0,0.0,0.0,0.0,0.0,0.0,-0.9614,-0.9929,-1.1147,-1.1939,-1.2224,-1.2332,-1.2794,-1.3553,-1.1749,-1.0693,0.0,0.0,0.0,0.0,0.0,0.0,0.0,0.0,0.0,0.0,0.0,0.0,0.0,0.0,0.0,0.0,0.0,0.0,0.0,0.0,0.0,0.0,0.0,0.0,0.0,0.0,0.0,0.0,0.0,0.0,0.0,0.0,0.0,0.0,0.0,0.0,0.0,0.0,0.0,0.0,0.0,0.0,-0.4554,-0.4585,0.0,0.0,0.0,-0.4395,-0.4264,0.0,0.0,0.0,0.0,0.0,0.0,0.0,0.0,0.0,0.0,0.0,0.0,0.0,0.0,0.0,0.0,0.0,0.0,0.0,0.0,0.0,0.0,0.0,0.0,0.0,0.0,0.0,0.0,0.0,0.0,0.0,0.0,0.0,0.0,0.0,0.0,0.0,0.0,0.0,0.0,0.0,0.0,0.0,0.0,0.0,0.0,0.0,0.0,0.0,0.0,0.0,0.0,0.0,0.0,0.0,0.0,0.0,-0.992,-1.1161,-1.1816,-1.1816,-1.1816,-1.2207,-1.3021,-1.1367,0.0,0.0,0.0,0.0,0.0,0.0,0.0,0.0,0.0,0.0,0.0,0.0,0.0,0.0,0.0,0.0,0.0,0.0,0.0,0.0,0.0,0.0,0.0,0.0,0.0,0.0,0.0,-0.2343,0.0,0.0,0.0,0.0,0.0,0.0,0.0,0.0,0.0,0.0,0.0,0.0,0.0,0.0,-0.492,-0.5297,-0.5257,-0.5346,0.0,0.0,-0.5081,-0.49,-0.4914,-0.4728,0.0,0.0,0.0,0.0,0.0,0.0,0.0,0.0,0.0,0.0,0.0,0.0,0.0,0.0,0.0,0.0,0.0,0.0,0.0,0.0,0.0,0.0,0.0,0.0,0.0,0.0,0.0,0.0,0.0,0.0,0.0,0.0,0.0,0.0,0.0,0.0,0.0,0.0,0.0,0.0,0.0,0.0,0.0,0.0,0.0,0.0,0.0,0.0,0.0,0.0,0.0,0.0,0.0,0.0,0.0,-0.9935,-1.1157,-1.1816,-1.1816,-1.1816,-1.2119,-1.2784,-1.2086,-1.1212,0.0,0.0,0.0,0.0,0.0,0.0,0.0,0.0,0.0,0.0,0.0,0.0,0.0,0.0,0.0,0.0,0.0,0.0,0.0,0.0,0.0,0.0,0.0,0.0,0.0,0.0,0.0,0.0,0.0,0.0,0.0,0.0,0.0,0.0,0.0,0.0,0.0,0.0,0.0,0.0,0.0,-0.5714,-0.552,-0.5898,-0.6113,0.0,0.0,-0.5994,-0.5683,-0.6077,-0.5971,-0.4581,0.0,0.0,0.0,0.0,0.0,0.0,0.0,0.0,0.0,0.0,0.0,0.0,0.0,0.0,0.0,0.0,0.0,0.0,0.0,0.0,0.0,0.0,0.0,0.0,0.0,0.0,0.0,0.0,0.0,0.0,0.0,0.0,0.0,0.0,0.0,0.0,0.0,0.0,0.0,0.0,0.0,0.0,0.0,0.0,0.0,0.0,0.0,0.0,0.0,0.0,0.0,0.0,0.0,-0.989,-0.9905,-1.1161,-1.1816,-1.1816,-1.1816,-1.2104,-1.2774,-1.1951,-1.1074,0.0,0.0,0.0,0.0,0.0,0.0,0.0,0.0,0.0,0.0,0.0,0.0,0.0,0.0,0.0,0.0,0.0,0.0,0.0,0.0,0.0,0.0,0.0,0.0,0.0,0.0,0.0,0.0,-0.283,-0.326,-0.3956,0.0,0.0,0.0,0.0,0.0,0.0,0.0,0.0,0.0,0.0,-0.6102,-0.6327,-0.6544,0.0,0.0,-0.633,-0.6261,-0.625,-0.5985,-0.5657,-0.5271,-0.4769,0.0,0.0,0.0,0.0,0.0,0.0,0.0,0.0,0.0,0.0,0.0,0.0,0.0,0.0,0.0,0.0,0.0,0.0,0.0,0.0,0.0,0.0,0.0,0.0,0.0,0.0,0.0,0.0,0.0,0.0,0.0,0.0,0.0,0.0,0.0,0.0,0.0,0.0,0.0,0.0,0.0,0.0,0.0,0.0,0.0,0.0,0.0,0.0,0.0,0.0,0.0,0.0,-0.989,-0.989,-1.1161,-1.1816,-1.1816,-1.1816,-1.2014,-1.2448,-1.1814,-1.1085,0.0,0.0,0.0,0.0,0.0,0.0,0.0,0.0,0.0,0.0,0.0,0.0,0.0,0.0,0.0,0.0,0.0,0.0,0.0,0.0,0.0,0.0,0.0,0.0,0.0,0.0,0.0,0.0,-0.3484,-0.4091,-0.5133,0.0,0.0,0.0,0.0,0.0,0.0,0.0,0.0,0.0,0.0,-0.6773,-0.7339,-0.734,-0.7213,-0.6986,-0.676,-0.6626,-0.6598,-0.6146,-0.5812,-0.5856,0.0,0.0,0.0,0.0,0.0,0.0,0.0,0.0,0.0,0.0,0.0,0.0,0.0,0.0,0.0,0.0,0.0,0.0,0.0,0.0,0.0,0.0,0.0,0.0,0.0,0.0,0.0,0.0,0.0,0.0,-0.8431,0.0,0.0,0.0,0.0,0.0,0.0,0.0,0.0,0.0,0.0,0.0,0.0,0.0,0.0,0.0,0.0,0.0,0.0,0.0,0.0,0.0,0.0,-0.9905,-0.9929,-1.1176,-1.1805,-1.1816,-1.1816,-1.1816,-1.1846,-1.1805,-1.1395,-1.0515,0.0,0.0,0.0,0.0,0.0,0.0,0.0,0.0,0.0,0.0,0.0,0.0,0.0,0.0,0.0,0.0,0.0,0.0,0.0,0.0,0.0,0.0,0.0,0.0,0.0,0.0,-0.4552,-0.4394,-0.4624,0.0,0.0,0.0,0.0,0.0,0.0,0.0,0.0,0.0,0.0,-0.7409,-0.7885,-0.8474,-0.8355,-0.8016,-0.756,-0.7441,-0.7216,-0.6731,-0.6814,-0.6794,0.0,0.0,0.0,0.0,0.0,0.0,0.0,0.0,0.0,0.0,0.0,0.0,0.0,0.0,0.0,0.0,0.0,0.0,0.0,0.0,0.0,0.0,0.0,0.0,0.0,0.0,0.0,-1.131,-1.0851,0.0,0.0,0.0,0.0,0.0,0.0,0.0,0.0,0.0,0.0,0.0,-1.2145,-1.2355,0.0,0.0,0.0,0.0,0.0,0.0,0.0,0.0,0.0,0.0,0.0,0.0,-1.0508,-1.0578,-1.1805,-1.225,-1.1831,-1.1816,-1.1816,-1.1816,-1.1816,-1.1381,-1.0535,0.0,0.0,0.0,0.0,0.0,0.0,0.0,0.0,0.0,0.0,0.0,0.0,0.0,0.0,0.0,0.0,0.0,0.0,0.0,0.0,0.0,0.0,0.0,0.0,0.0,-0.5617,0.0,0.0,0.0,0.0,0.0,0.0,0.0,0.0,0.0,0.0,0.0,-0.7316,-0.7486,-0.811,-0.8717,-0.9201,-0.9196,-0.8976,0.0,0.0,0.0,0.0,0.0,0.0,0.0,0.0,0.0,0.0,0.0,0.0,0.0,0.0,-0.417,-0.388,-0.3616,-0.3364,-0.3063,0.0,0.0,0.0,0.0,0.0,0.0,0.0,0.0,0.0,0.0,0.0,0.0,0.0,0.0,-1.3129,0.0,-1.204,0.0,0.0,0.0,0.0,0.0,0.0,0.0,0.0,-1.3805,-1.4276,-1.386,-1.4079,-1.4127,0.0,-1.3944,-1.2895,0.0,0.0,0.0,0.0,0.0,0.0,0.0,0.0,-1.1047,-1.0867,-1.2115,-1.246,-1.1846,-1.1816,-1.1816,-1.1816,-1.1816,-1.1531,-1.095,-0.97,-0.8828,0.0,0.0,0.0,0.0,0.0,0.0,0.0,0.0,0.0,0.0,0.0,0.0,0.0,0.0,0.0,0.0,0.0,0.0,0.0,0.0,0.0,0.0,0.0,-0.6295,0.0,0.0,0.0,0.0,0.0,0.0,0.0,0.0,0.0,-0.6387,-0.736,-0.8179,-0.8344,-0.8734,-0.9258,-0.9952,0.0,0.0,0.0,0.0,0.0,0.0,0.0,-0.8443,-0.8731,-0.8053,-0.7348,-0.6978,-0.65,-0.6027,-0.5656,0.0,0.0,-0.4858,-0.4669,-0.4533,-0.4133,-0.4062,-0.3956,-0.3619,-0.3569,-0.3555,0.0,0.0,0.0,0.0,0.0,0.0,0.0,0.0,-1.4175,-1.4215,0.0,-1.3596,0.0,0.0,0.0,0.0,0.0,-1.4468,0.0,0.0,-1.6064,-1.6533,-1.5976,-1.6511,-1.6616,-1.6316,-1.6898,-1.6149,-1.4181,-1.2215,0.0,0.0,0.0,0.0,0.0,0.0,-1.1536,-1.0947,-1.219,-1.2505,-1.182,-1.1816,-1.1831,-1.1835,-1.1835,-1.185,-1.1835,-1.1005,-1.0228,-0.958,-0.8027,0.0,0.0,0.0,0.0,0.0,0.0,0.0,0.0,0.0,0.0,0.0,0.0,0.0,0.0,0.0,0.0,0.0,0.0,0.0,0.0,-0.659,0.0,0.0,0.0,0.0,0.0,0.0,0.0,0.0,0.0,0.0,-0.7597,-0.8321,-0.9135,-0.9611,0.0,0.0,0.0,0.0,-0.9945,-1.0711,-1.0807,-1.0611,-1.0024,-0.9812,-0.9606,-0.9394,0.0,0.0,-0.7732,-0.7291,-0.6963,-0.6625,-0.6801,-0.6677,-0.5583,-0.5292,-0.5181,-0.514,-0.5105,-0.5111,-0.5086,-0.5039,-0.5066,-2.1089,0.0,0.0,0.0,0.0,-1.7962,-1.804,-1.8338,-1.825,-1.7977,-1.7485,-1.6237,0.0,0.0,0.0,0.0,0.0,0.0,-1.7013,-1.7221,-1.8253,-1.8502,-1.8073,-1.7746,-1.7518,-1.74,-1.7097,-1.6395,-1.534,-1.4742,-1.3283,-1.1014,0.0,0.0,0.0,0.0,-1.2897,-1.2325,-1.3077,-1.2957,-1.1835,-1.1816,-1.2029,-1.2505,-1.2516,-1.2729,-1.3199,-1.2063,-1.1268,-1.0925,-0.9154,0.0,0.0,0.0,0.0,0.0,0.0,0.0,0.0,0.0,0.0,0.0,0.0,0.0,0.0,0.0,0.0,0.0,0.0,0.0,-0.6549,-0.659,-0.6774,0.0,0.0,0.0,0.0,0.0,0.0,0.0,0.0,0.0,-0.9716,-0.9872,-1.0278,0.0,0.0,-1.0874,-1.2282,-1.1646,-1.1121,-1.133,-1.1365,0.0,0.0,-1.0261,-1.0043,-1.0189,-0.9604,-0.9001,-0.8694,-0.84,-0.8064,-0.7584,-0.7575,-0.7405,-0.6698,-0.6487,-0.6306,-0.5998,-0.5872,-0.5746,-0.5339,-0.5267,-0.5367,-2.4321,-2.1904,-2.0873,-2.0534,-2.067,-2.0699,-2.0758,-2.091,-2.0914,-2.0809,-2.0585,-1.9142,-1.8228,-1.7738,-1.6248,0.0,0.0,0.0,-1.879,-1.9034,-1.948,-1.9588,-1.9378,-1.8926,-1.8746,-1.8713,-1.829,-1.7716,-1.7025,-1.6881,-1.5579,-1.324,0.0,0.0,-1.2821,-1.3852,-1.4006,-1.3253,-1.3585,-1.3286,-1.222,-1.1935,-1.2239,-1.3136,-1.2939,-1.3238,-1.4139,-1.2912,-1.2134,-1.2003,-1.0317,-0.9149,0.0,0.0,0.0,0.0,0.0,0.0,0.0,0.0,0.0,0.0,0.0,-0.4211,-0.3666,0.0,0.0,0.0,-0.5773,-0.6574,-0.6899,-0.7125,0.0,0.0,0.0,0.0,0.0,0.0,0.0,-0.9013,-0.9852,-1.0569,-1.1005,-1.1155,-1.1427,-1.1972,-1.1263,-1.1277,-1.2835,0.0,-1.1154,-1.1369,-1.1506,-1.1555,-1.1414,-1.1013,-1.0779,-1.0956,-1.0308,-0.9757,-0.9596,-0.9367,-0.9032,-0.8655,-0.8403,-0.8099,-0.747,-0.7359,-0.7185,-0.6627,-0.652,-0.6438,-0.6203,-0.6182,-0.6225,-2.7503,-2.6759,-2.5405,-2.4355,-2.3596,-2.3577,-2.3156,-2.2479,-2.2479,-2.2868,-2.3374,-2.2003,-2.1343,-2.119,-1.9802,0.0,-2.0255,-2.0268,-2.0322,-2.0356,-2.0289,-2.0255,-2.0268,-2.0154,-2.0099,-2.0103,-2.0018,-1.9642,-1.8983,-1.8656,-1.7699,-1.6152,-1.5478,-1.4909,-1.4471,-1.508,-1.4929,-1.3974,-1.3961,-1.3585,-1.2816,-1.2205,-1.2478,-1.3752,-1.3148,-1.3418,-1.4677,-1.3493,-1.2789,-1.2744,-1.1346,-1.0234,-0.9599,0.0,0.0,0.0,0.0,0.0,0.0,0.0,0.0,0.0,0.0,0.0,0.0,0.0,0.0,0.0,-0.6774,0.0,-0.7478,-0.8001,0.0,0.0,0.0,-0.8397,-0.8437,-0.8836,-0.9163,-0.9289,0.0,0.0,-1.1713,-1.2212,-1.2514,-1.2395,-1.1333,-1.1161,-1.2872,-1.1686,-1.0706,-1.1298,-1.1514,-1.181,-1.2076,-1.1802,-1.1502,-1.1531,-1.118,-1.0745,-1.0462,-1.0222,-0.9962,-0.9645,-0.9305,-0.8866,-0.82,-0.8135,-0.7888,-0.7294,-0.7114,-0.7145,-0.7368,-0.7434,-0.7339,-2.8602,-2.8434,-2.8079,-2.6826,-2.5101,-2.5068,-2.4661,-2.4,-2.3983,-2.4068,-2.4169,-2.3289,-2.2547,-2.2023,-2.1637,-2.1887,-2.2567,-2.2581,-2.2885,-2.3376,-2.2868,-2.2598,-2.2516,-2.1461,-2.0919,-2.0856,-2.0285,-1.99,-1.9731,-1.9668,-1.9421,-1.8993,-1.8528,-1.7346,-1.5546,-1.605,-1.6022,-1.5349,-1.532,-1.4509,-1.2861,-1.2639,-1.2954,-1.3767,-1.3148,-1.3418,-1.4707,-1.3508,-1.2789,-1.2759,-1.1478,-1.0654,-1.049,-0.9072,0.0,0.0,0.0,0.0,0.0,0.0,0.0,0.0,0.0,-0.5805,-0.4852,0.0,-0.6382,0.0,-0.6774,-0.7581,-0.8049,-0.8587,0.0,0.0,-0.8912,-0.9063,-0.9479,-0.9265,-0.9591,-1.0861,-1.1364,-1.1902,-1.2714,-1.295,-1.3025,-1.2978,-1.2387,-1.2407,-1.3669,-1.3149,-1.2536,-1.2595,-1.2403,-1.2318,-1.2356,-1.1959,-1.1626,-1.1596,-1.1507,-1.1376,-1.1289,-1.1255,-1.106,-1.0606,-1.0427,-1.0134,-0.959,-0.9451,-0.9159,-0.8587,-0.8047,-0.7712,-0.7792,-0.7816,-0.7779,-3.0465,-3.0431,-3.011,-2.9042,-2.757,-2.7249,-2.6877,-2.6505,-2.6505,-2.6285,-2.5896,-2.4847,-2.3968,-2.3291,-2.3274,-2.3494,-2.3881,-2.3866,-2.4101,-2.4457,-2.4068,-2.3712,-2.3359,-2.2578,-2.202,-2.1667,-2.1245,-2.0859,-2.0525,-2.0184,-1.9838,-1.9494,-1.8922,-1.7988,-1.6728,-1.7121,-1.7121,-1.6668,-1.6084,-1.496,-1.3328,-1.3226,-1.3568,-1.4214,-1.3885,-1.4167,-1.5214,-1.3972,-1.3253,-1.3211,-1.1958,-1.1106,-1.0812,-0.9932,-0.9369,0.0,0.0,0.0,0.0,0.0,0.0,0.0,0.0,0.0,0.0,0.0,-0.7264,-0.7477,-0.8043,-0.854,-0.8976,-0.9278,-0.9453,-0.9453,-0.9453,-0.9667,-1.0207,-0.9993,-1.027,-1.1465,-1.1801,-1.2178,-1.2776,-1.3295,-1.3596,-1.3579,-1.3568,-1.3575,-1.3664,-1.3298,-1.2894,-1.2741,-1.2584,-1.2456,-1.2372,-1.226,-1.2171,-1.2171,-1.2171,-1.2171,-1.2171,-1.2171,-1.207,-1.1793,-1.1472,-1.1057,-1.0489,-1.0314,-1.0171,-0.9843,-0.9463,-0.8955,-0.8272,-0.813,-0.8156,-3.2378,-3.2242,-3.1633,-3.0903,-3.0192,-2.955,-2.9179,-2.8993,-2.8993,-2.8602,-2.7874,-2.6573,-2.5676,-2.5099,-2.4965,-2.4914,-2.4914,-2.4812,-2.4778,-2.4778,-2.4677,-2.4305,-2.3697,-2.3579,-2.3207,-2.2584,-2.2482,-2.2107,-2.1481,-2.0666,-1.9969,-1.9328,-1.8579,-1.8166,-1.8134,-1.8283,-1.8128,-1.7699,-1.6518,-1.5305,-1.4109,-1.4126,-1.4423,-1.4901,-1.4841,-1.5035,-1.5499,-1.4408,-1.3752,-1.3645,-1.2631,-1.176,-1.1106,-1.0809,-1.0465,0.0,-0.9116,0.0,0.0,0.0,0.0,0.0,0.0,0.0,0.0,-0.8219,-0.8665,-0.9648,-0.9684,-0.9755,-0.9969,-1.0056,-1.0119,-1.0119,-1.0182,-1.0382,-1.077,-1.082,-1.1046,-1.1625,-1.2115,-1.2413,-1.2693,-1.3506,-1.4103,-1.4198,-1.4525,-1.445,-1.3652,-1.3314,-1.3123,-1.2655,-1.2731,-1.2869,-1.2604,-1.2703,-1.2832,-1.2886,-1.2846,-1.2915,-1.2856,-1.2866,-1.2886,-1.2803,-1.2337,-1.1762,-1.1166,-1.1074,-1.1057,-1.0914,-1.0831,-1.0397,-0.9177,-0.8694,-0.8663,-3.2848,-3.2293,-3.2141,-3.1667,-3.0987,-3.0835,-3.011,-2.8993,-2.8993,-2.8925,-2.8773,-2.8485,-2.8282,-2.8096,-2.7469,-2.7199,-2.7131,-2.6539,-2.6268,-2.6251,-2.5676,-2.5338,-2.5152,-2.4577,-2.422,-2.4051,-2.346,-2.3122,-2.297,-2.2233,-2.1792,-2.1644,-2.1129,-2.0716,-2.0352,0.0,0.0,0.0,-1.6921,-1.6189,-1.547,-1.5905,-1.5979,-1.5604,-1.508,0.0,-1.4199,-1.3932,-1.3555,-1.3029,-1.3271,0.0,0.0,0.0,0.0,0.0,0.0,0.0,0.0,0.0,0.0,0.0,-1.0901,-1.0283,-0.9821,-0.9946,-1.0181,-1.0371,-1.0068,-1.002,-1.0508,-1.0998,-1.1274,-1.1286,-1.1663,-1.1814,-1.15,-1.1439,-1.1638,-1.2174,-1.2337,-1.2768,-1.3632,-1.399,-1.4274,-1.4689,-1.4853,-1.4828,-1.462,-1.4834,-1.5213,-1.5496,-1.4726,-1.4056,-1.3585,-1.314,-1.2915,-1.2915,-1.2915,-1.2915,-1.2915,-1.2915,-1.2915,-1.2915,-1.2774,-1.2666,-1.2495,-1.2486,-1.2246,-1.1715,-1.1616,-1.1349,-1.0529,-0.9921,-0.9566,-3.3728,0.0,-3.2983,-3.2611,0.0,-3.1884,-3.1328,-3.0601,-3.0245,-2.989,-2.9516,-2.9162,-2.8993,-2.8976,-2.8569,-2.8399,-2.8349,-2.7604,-2.7249,-2.7198,-2.6488,-2.5947,-2.5592,-2.5235,-2.4863,-2.4474,-2.4101,-2.3763,-2.3393,-2.2796,-2.2325,-2.1945,-2.1522,-2.0941,-2.0177,-1.8794,-1.7788,-1.7219,-1.686,-1.6413,-1.5844,-1.6084,-1.6114,-1.5799,0.0,0.0,0.0,0.0,0.0,0.0,0.0,0.0,0.0,0.0,0.0,-1.2302,-1.1988,-1.1958,-1.2257,-1.2302,-1.2513,-1.2989,-1.3085,-1.2479,-1.0969,-1.1365,-1.1747,-1.1882,-1.1702,-1.175,-1.2134,-1.2198,-1.2198,-1.2198,-1.2436,-1.2505,-1.2336,-1.229,-1.2532,-1.3107,-1.325,-1.3581,-1.4374,-1.4752,-1.4972,-1.5273,-1.5517,-1.5655,-1.5668,-1.568,-1.5832,-1.5975,-1.5039,-1.4167,-1.3826,-1.3286,-1.2915,-1.2915,-1.2915,-1.2915,-1.2915,-1.2915,-1.2915,-1.2915,-1.2915,-1.2915,-1.2915,-1.2915,-1.2774,-1.2452,-1.2344,-1.227,-1.1816,-1.0754,-0.9684,-3.4607,-3.4438,-3.3846,-3.3541,-3.3355,-3.2767,-3.2496,-3.2446,0.0,0.0,0.0,-2.9651,-2.9399,-2.9382,-2.9264,-2.9196,-2.9145,-2.8383,-2.7925,-2.779,-2.7182,-2.6505,-2.5828,-2.5812,-2.549,-2.4897,-2.4762,-2.4389,-2.3767,-2.3067,-2.2402,-2.1797,-2.1262,-2.0464,-1.937,-1.7833,-1.701,-1.6876,-1.6771,-1.6473,-1.5994,-1.6069,-1.6069,-1.5978,-1.5964,-1.5844,-1.5619,-1.5214,-1.4916,-1.4782,-1.4393,-1.4096,-1.3976,-1.3976,-1.3929,-1.3825,-1.3797,-1.3857,-1.3974,-1.3989,-1.4034,-1.4141,-1.4543,-1.4042,-1.22,-1.2689,-1.3161,-1.3378,-1.3291,-1.3342,-1.3653,-1.3276,-1.2997,-1.3095,-1.3206,-1.331,-1.3302,-1.3428,-1.3722,-1.4143,-1.4211,-1.4437,-1.4979,-1.5387,-1.5743,-1.5869,-1.617,-1.6513,-1.645,-1.612,-1.5873,-1.578,-1.5016,-1.4202,-1.4073,-1.3671,-1.32,-1.3128,-1.3113,-1.3017,-1.2929,-1.2915,-1.2915,-1.2915,-1.2915,-1.2915,-1.2915,-1.2915,-1.2915,-1.2915,-1.2915,-1.2856,-1.2593,-1.1367,-1.0115,-3.5081,-3.4472,-3.4387,-3.3981,-3.3389,-3.3288,-3.3254,-3.3136,-3.1782,-3.1159,-3.1038,-3.092,-3.0886,-3.0835,-3.0226,-2.9956,-2.9905,-2.9161,-2.845,-2.7807,-2.7705,-2.7249,-2.6556,-2.6539,-2.6488,-2.6336,-2.5744,-2.5389,-2.5104,-2.3548,-2.2632,-2.2437,-2.1504,-2.0464,-1.9432,-1.8743,-1.8132,-1.7563,-1.701,-1.6682,-1.6592,-1.7145,-1.716,-1.6607,-1.6562,-1.6039,-1.4992,-1.5409,-1.5394,-1.4856,-1.5274,-1.526,-1.4706,-1.4663,-1.4393,-1.3857,-1.3797,-1.4049,-1.4603,-1.4648,-1.4916,-1.541,-1.5065,-1.4663,-1.4369,-1.4169,-1.4107,-1.4124,-1.3428,-1.3095,-1.3596,-1.3681,-1.382,-1.4261,-1.4774,-1.4955,-1.4552,-1.495,-1.5133,-1.4854,-1.4771,-1.5004,-1.548,-1.5668,-1.5919,-1.6283,-1.6425,-1.6513,-1.6488,-1.6437,-1.6378,-1.6312,-1.5798,-1.5398,-1.5152,-1.4812,-1.4224,-1.3721,-1.3661,-1.3433,-1.2978,-1.2915,-1.2915,-1.2915,-1.2915,-1.2915,-1.2915,-1.2915,-1.2915,-1.2915,-1.2915,-1.2749,-1.2261,-1.1699,-1.1425,-3.5397,-3.5131,-3.5098,-3.489,-3.4551,-3.4167,-3.3761,-3.3355,-3.2696,-3.2154,-3.1769,-3.1376,-3.119,-3.1157,-3.0852,-3.0717,-3.0666,-2.9939,-2.9397,-2.899,-2.8196,-2.7638,-2.7283,-2.6894,-2.6708,-2.6674,-2.6353,-2.5998,-2.5509,-2.4398,-2.3638,-2.3178,-2.1854,-2.0736,-1.9896,-1.9106,-1.8551,-1.8253,-1.7594,-1.7055,-1.6711,-1.701,-1.6846,-1.6234,-1.6219,-1.5949,-1.5365,-1.5619,-1.5664,-1.535,-1.5649,-1.5649,-1.5365,-1.5349,-1.52,-1.4916,-1.4886,-1.502,-1.532,-1.5349,-1.5484,-1.5769,-1.5514,-1.5349,-1.5335,-1.4866,-1.4563,-1.4577,-1.4437,-1.4542,-1.4819,-1.5139,-1.5442,-1.5672,-1.6295,-1.6491,-1.6117,-1.6226,-1.6277,-1.5872,-1.5763,-1.5865,-1.6103,-1.6145,-1.6208,-1.6463,-1.6513,-1.6513,-1.6513,-1.6513,-1.6513,-1.6457,-1.6008,-1.5654,-1.5588,-1.5107,-1.4629,-1.4306,-1.4003,-1.3576,-1.3051,-1.2915,-1.2915,-1.2915,-1.2915,-1.2915,-1.2915,-1.2915,-1.2915,-1.2915,-1.2915,-1.2725,-1.2476,-1.2403,-1.2064,-3.5752,-3.5616,-3.5616,-3.5616,-3.5549,-3.4996,-3.4421,-3.3897,-3.3728,-3.3322,-3.2733,-3.187,-3.1427,-3.1447,-3.1275,-3.119,-3.1106,-3.0615,-3.0243,-2.9989,-2.8872,-2.8145,-2.7773,-2.7199,-2.6843,-2.6725,-2.6708,-2.6404,-2.5831,-2.5076,-2.4087,-2.3019,-2.1764,-2.0834,-2.0158,-1.9358,-1.8927,-1.8897,-1.8416,-1.7757,-1.695,-1.6801,-1.6488,-1.6054,-1.5874,-1.5814,-1.5814,-1.5814,-1.5814,-1.5814,-1.5814,-1.5814,-1.5814,-1.5814,-1.5814,-1.5814,-1.5814,-1.5814,-1.5814,-1.5814,-1.5814,-1.5814,-1.5814,-1.5858,-1.5934,-1.5545,-1.5231,-1.5291,-1.5681,-1.6009,-1.6219,-1.6607,-1.692,-1.6965,-1.7518,-1.7678,-1.7357,-1.7421,-1.7331,-1.6956,-1.6757,-1.6676,-1.6667,-1.6573,-1.6488,-1.6488,-1.6513,-1.6547,-1.666,-1.671,-1.6735,-1.6723,-1.6279,-1.5876,-1.5764,-1.5454,-1.513,-1.4937,-1.4549,-1.4003,-1.343,-1.3051,-1.2915,-1.2915,-1.2915,-1.2915,-1.2915,-1.2915,-1.2915,-1.2915,-1.2915,-1.2881,-1.2856,-1.2856,-1.252,-3.6265,-3.5633,-3.5633,-3.5616,-3.5583,-3.5498,-3.5414,-3.5278,-3.4692,-3.437,-3.4138,-3.2835,-3.2192,-3.2107,-3.1495,-3.1224,-3.119,-3.1123,-3.0734,-3.0156,-2.9954,-2.9159,-2.7942,-2.7739,-2.735,-2.6793,-2.6708,-2.6607,-2.6421,-2.4993,-2.3178,-2.1205,-2.0817,-2.0452,-1.9822,-1.9651,-1.9603,-1.9618,-1.9543,-1.8897,-1.7669,-1.701,-1.6682,-1.6622,-1.6099,-1.5814,-1.5858,-1.5814,-1.5814,-1.5814,-1.5814,-1.5814,-1.5814,-1.5814,-1.5814,-1.5814,-1.5814,-1.5814,-1.5814,-1.5814,-1.5844,-1.5814,-1.5858,-1.6084,-1.6547,-1.6562,-1.6517,-1.6547,-1.6577,-1.6861,-1.7413,-1.7563,-1.7609,-1.7623,-1.8192,-1.8409,-1.8053,-1.8374,-1.8527,-1.8029,-1.7498,-1.7218,-1.7154,-1.6774,-1.6522,-1.6588,-1.6613,-1.6798,-1.7212,-1.73,-1.7473,-1.7664,-1.7135,-1.6517,-1.6458,-1.6392,-1.6154,-1.5695,-1.549,-1.4983,-1.4213,-1.3361,-1.2944,-1.3218,-1.3023,-1.3042,-1.2964,-1.2915,-1.2935,-1.3003,-1.2983,-1.2935,-1.2915,-1.2915,-1.2686,-3.6992,-3.6315,-3.6315,-3.6028,-3.5633,-3.5616,-3.5616,-3.5549,-3.5261,-3.5148,-3.503,-3.4049,-3.3139,-3.231,-3.1989,-3.1633,-3.1207,-3.119,-3.1055,-3.0717,-3.0328,-2.9751,-2.9142,-2.8179,-2.7621,-2.7299,-2.6636,-2.6297,-2.6054,-2.4954,-2.3486,-2.2004,-2.15,-2.0961,-2.0318,-1.9884,-1.9723,-1.9723,-1.9723,-1.9438,-1.8882,-1.8222,-1.7682,-1.7309,-1.7056,-1.6727,-1.6383,-1.6338,-1.6159,-1.5844,-1.5814,-1.5814,-1.5814,-1.5814,-1.5814,-1.5814,-1.5814,-1.5814,-1.5814,-1.6129,-1.6338,-1.6323,-1.6697,-1.7026,-1.7249,-1.7294,-1.7443,-1.7773,-1.7518,-1.7413,-1.7713,-1.8057,-1.8296,-1.8371,-1.8882,-1.92,-1.9004,-1.9207,-1.9169,-1.8645,-1.8092,-1.7626,-1.7312,-1.6837,-1.6681,-1.6923,-1.7024,-1.725,-1.7752,-1.7865,-1.7953,-1.8091,-1.7777,-1.7541,-1.7453,-1.7513,-1.7352,-1.7143,-1.6819,-1.6232,-1.5329,-1.3762,-1.3091,-1.3753,-1.3727,-1.3516,-1.3301,-1.3262,-1.3252,-1.3252,-1.3262,-1.3262,-1.3262,-1.3057,-1.292,-3.777,-3.7151,-3.6874,-3.6332,-3.5616,-3.5616,-3.5616,-3.5616,-3.5616,-3.5616,-3.5549,-3.5047,-3.41,-3.3004,-3.2716,-3.2209,-3.1546,-3.1515,-3.1396,-3.1157,-3.0632,-3.0294,-2.9987,-2.899,-2.8196,-2.772,-2.6952,-2.6249,-2.5758,-2.4871,-2.38,-2.2786,-2.2209,-2.1545,-2.0718,-2.0183,-1.9887,-1.9723,-1.9723,-1.9723,-1.9633,-1.9226,-1.864,-1.8027,-1.7772,-1.7458,-1.701,-1.698,-1.6771,-1.6368,-1.6323,-1.6323,-1.6323,-1.6323,-1.6308,-1.6323,-1.6323,-1.6338,-1.6308,-1.6727,-1.698,-1.7009,-1.7443,-1.7803,-1.7938,-1.7983,-1.8298,-1.8822,-1.8506,-1.8267,-1.8328,-1.8687,-1.8942,-1.9016,-1.9438,-1.9708,-1.9675,-1.9723,-1.9548,-1.9151,-1.8664,-1.8033,-1.7428,-1.6999,-1.6948,-1.7285,-1.7524,-1.7815,-1.8279,-1.8442,-1.8468,-1.8581,-1.8643,-1.848,-1.8292,-1.8116,-1.8204,-1.812,-1.7712,-1.7267,-1.6584,-1.485,-1.3695,-1.4583,-1.4516,-1.4231,-1.3809,-1.3682,-1.3682,-1.3682,-1.3656,-1.3656,-1.3656,-1.3334,-1.3223,-3.8514,-3.7804,-3.71,-3.6383,-3.5633,-3.565,-3.5633,-3.5684,-3.5616,-3.5616,-3.5616,-3.5532,-3.5115,-3.432,-3.3694,-3.2949,-3.2293,-3.2192,-3.1836,-3.1241,-3.1123,-3.0768,-3.0125,-3.0006,-2.9227,-2.8077,-2.7718,-2.68,-2.532,-2.4672,-2.3815,-2.2789,-2.2643,-2.1979,-2.0961,-2.0692,-2.0333,-1.9824,-1.9738,-1.9723,-1.9708,-1.9663,-1.9303,-1.8687,-1.8072,-1.7757,-1.7652,-1.7654,-1.7624,-1.7578,-1.7534,-1.7549,-1.7579,-1.7564,-1.7534,-1.7549,-1.7564,-1.7564,-1.7534,-1.7609,-1.7637,-1.7667,-1.7788,-1.7997,-1.8597,-1.8672,-1.8944,-1.9573,-1.9513,-1.9483,-1.9483,-1.945,-1.9588,-1.9588,-1.9663,-1.9723,-1.9723,-1.9723,-1.9723,-1.9566,-1.9132,-1.8461,-1.7516,-1.7337,-1.7435,-1.7642,-1.7911,-1.8367,-1.8807,-1.897,-1.9146,-1.9472,-1.9547,-1.9371,-1.848,-1.8455,-1.8392,-1.8369,-1.8398,-1.7981,-1.7266,-1.652,-1.5935,-1.5342,-1.5192,-1.487,-1.4326,-1.4075,-1.4075,-1.4075,-1.4085,-1.4085,-1.4085,-1.3851,-1.3734,-3.9283,-3.8548,-3.7804,-3.733,-3.7043,-3.6569,-3.6366,-3.6315,-3.5808,-3.5616,-3.5616,-3.5616,-3.5447,-3.516,-3.4923,-3.388,-3.2378,-3.2293,-3.1921,-3.1241,-3.119,-3.1038,-3.0784,-3.0345,-2.9869,-2.924,-2.8442,-2.7136,-2.5433,-2.4388,-2.3688,-2.3299,-2.2882,-2.2433,-2.1904,-2.1111,-2.0569,-2.0333,-1.9929,-1.9723,-1.9723,-1.9723,-1.9588,-1.9361,-1.9121,-1.8777,-1.8341,-1.8343,-1.8147,-1.7728,-1.7713,-1.7699,-1.7699,-1.7699,-1.7699,-1.7699,-1.7699,-1.7699,-1.7743,-1.8117,-1.8341,-1.8371,-1.8762,-1.9031,-1.9288,-1.9331,-1.9453,-1.9648,-1.9723,-1.9723,-1.9723,-1.9723,-1.9723,-1.9723,-1.9723,-1.9723,-1.9723,-1.9723,-1.9723,-1.9636,-1.9225,-1.8754,-1.846,-1.8142,-1.8224,-1.8877,-1.8882,-1.8969,-1.9359,-1.9522,-1.9585,-1.9723,-1.9786,-1.9673,-1.9371,-1.9246,-1.9233,-1.9233,-1.9171,-1.8818,-1.8262,-1.8368,-1.7958,-1.6696,-1.6279,-1.5547,-1.4987,-1.4623,-1.4596,-1.4513,-1.4513,-1.4541,-1.4541,-1.4299,-1.4241,-3.9673,-3.8996,-3.8481,-3.8125,-3.7821,-3.7117,-3.6812,-3.6711,-3.596,-3.5616,-3.5616,-3.5616,-3.5616,-3.5616,-3.5616,-3.4709,-3.3123,-3.3004,-3.2479,-3.1613,-3.1546,-3.1427,-3.1157,-3.0683,-3.0328,-2.9892,-2.8579,-2.713,-2.578,-2.4533,-2.3841,-2.3565,-2.3182,-2.2862,-2.2568,-2.1754,-2.1276,-2.0976,-2.0363,-2.0034,-1.9989,-1.9798,-1.9723,-1.9708,-1.9723,-1.9495,-1.9031,-1.9016,-1.8837,-1.8433,-1.8341,-1.8341,-1.8341,-1.8341,-1.8341,-1.8358,-1.8356,-1.8326,-1.8386,-1.8777,-1.9016,-1.9031,-1.9423,-1.9723,-1.9723,-1.9723,-1.9723,-1.9723,-1.9723,-1.9723,-1.9723,-1.9723,-1.9723,-1.9723,-1.9723,-1.9723,-1.9723,-1.9723,-1.9723,-1.9665,-1.9459,-1.9221,-1.9058,-1.8911,-1.9061,-1.9671,-1.9381,-1.9447,-1.971,-1.9798,-1.9798,-1.9798,-1.9798,-1.9798,-1.9648,-1.9585,-1.9585,-1.9597,-1.9585,-1.9375,-1.9307,-1.9618,-1.9345,-1.814,-1.7142,-1.6301,-1.5693,-1.5311,-1.5112,-1.4989,-1.498,-1.498,-1.4902,-1.4757,-1.4728,-3.969,-3.9089,-3.8988,-3.865,-3.8041,-3.7337,-3.6897,-3.6823,-3.6045,-3.5752,-3.5769,-3.5633,-3.5616,-3.5616,-3.5616,-3.5165,-3.4523,-3.4387,-3.3647,-3.2395,-3.2242,-3.1887,-3.1309,-3.114,-3.0768,-3.0135,-2.8253,-2.7068,-2.6386,-2.5164,-2.4216,-2.3744,-2.358,-2.3251,-2.2748,-2.2583,-2.2283,-2.1695,-2.1032,-2.0703,-2.0613,-2.0109,-1.9813,-1.9783,-1.9738,-1.9693,-1.9648,-1.9648,-1.9603,-1.9603,-1.957,-1.9678,-1.9558,-1.9543,-1.9633,-1.9543,-1.9618,-1.9648,-1.9618,-1.9603,-1.9603,-1.9603,-1.9693,-1.9723,-1.9723,-1.9723,-1.9723,-1.9723,-1.9723,-1.9723,-1.9723,-1.9723,-1.9723,-1.9723,-1.9723,-1.9723,-1.9723,-1.9738,-1.9753,-1.9844,-1.9937,-1.9664,-1.9357,-1.9552,-1.9826,-1.9623,-1.9598,-1.9723,-1.9786,-1.9798,-1.9798,-1.9798,-1.9798,-1.9798,-1.9798,-1.9798,-1.9786,-1.9786,-1.9761,-1.9669,-1.9605,-1.9773,-1.9618,-1.8635,-1.7759,-1.6905,-1.5914,-1.5548,-1.5359,-1.5264,-1.5322,-1.5303,-1.5205,-1.5079,-1.5205,-3.996,-3.9774,-3.9757,-3.9639,-3.9309,-3.8616,-3.8294,-3.8159,-3.6975,-3.6417,-3.6332,-3.5836,-3.5616,-3.5616,-3.56,-3.5464,-3.5245,-3.5233,-3.4472,-3.3186,-3.2564,-3.2209,-3.1867,-3.141,-3.1089,-3.0578,-2.896,-2.795,-2.737,-2.5639,-2.447,-2.4246,-2.3819,-2.352,-2.3287,-2.2912,-2.2553,-2.2343,-2.1724,-2.1395,-2.1335,-2.0737,-2.0408,-2.0348,-1.9959,-1.9723,-1.9723,-1.9723,-1.9723,-1.9723,-1.9723,-1.9723,-1.9723,-1.9723,-1.9723,-1.9723,-1.9723,-1.9723,-1.9723,-1.9723,-1.9723,-1.9723,-1.9723,-1.9723,-1.9723,-1.9723,-1.9723,-1.9723,-1.9723,-1.9723,-1.9723,-1.9723,-1.9783,-1.9723,-1.9723,-1.9768,-1.9887,-2.0139,-2.0572,-2.1006,-2.1124,-2.1232,-2.1256,-2.1175,-2.0566,-2.0545,-2.0205,-1.9824,-1.9798,-1.9798,-1.9798,-1.9798,-1.9798,-1.9798,-1.9798,-1.9823,-1.9861,-1.9874,-1.9874,-1.9811,-1.9798,-1.9773,-1.9579,-1.9071,-1.8232,-1.7357,-1.6397,-1.5787,-1.5497,-1.542,-1.5381,-1.5381,-1.541,-1.542,-1.542,-4.0113,-4.0113,-4.0113,-4.0113,-4.0028,-3.9292,-3.8988,-3.8819,-3.7719,-3.7212,-3.7026,-3.6383,-3.6062,-3.5994,-3.5735,-3.5616,-3.5616,-3.5616,-3.5092,-3.4197,-3.344,-3.2765,-3.1951,-3.0971,-3.0518,-3.029,-2.9096,-2.831,-2.7981,-2.6291,-2.5098,-2.459,-2.4171,-2.3834,-2.361,-2.3221,-2.3032,-2.2942,-2.2398,-2.2074,-2.1954,-2.1425,-2.1047,-2.1021,-2.0647,-2.0453,-2.0441,-2.0232,-1.9962,-1.9768,-1.9723,-1.9723,-1.9723,-1.9723,-1.9723,-1.9723,-1.9723,-1.9723,-1.9723,-1.9723,-1.9723,-1.9723,-1.9723,-1.9723,-1.9723,-1.9723,-1.9783,-2.0019,-2.0094,-2.0187,-2.0393,-2.0471,-2.0456,-2.0438,-2.0228,-2.0213,-2.0408,-2.0812,-2.1186,-2.1575,-2.1854,-2.207,-2.1772,-2.1715,-2.0998,-2.097,-2.032,-1.9798,-1.9798,-1.9798,-1.9823,-1.9823,-1.9798,-1.9798,-1.9798,-1.9849,-1.9911,-1.9949,-1.9974,-1.9874,-1.9798,-1.9798,-1.9669,-1.8912,-1.8108,-1.7396,-1.6482,-1.5806,-1.542,-1.542,-1.542,-1.542,-1.542,-1.542,-1.543,-4.0113,-4.0113,-4.0113,-4.0113,-4.0028,-3.9394,-3.9165,-3.8971,-3.8294,-3.7956,-3.7804,-3.7161,-3.6812,-3.6603,-3.6062,-3.5735,-3.5616,-3.56,-3.5566,-3.5301,-3.4687,-3.3503,-3.1578,-3.0346,-2.9839,-2.9602,-2.8857,-2.821,-2.7759,-2.6812,-2.5974,-2.4963,-2.4754,-2.4321,-2.3864,-2.367,-2.3625,-2.3445,-2.3017,-2.2763,-2.2703,-2.2104,-2.1754,-2.1739,-2.162,-2.1515,-2.1425,-2.1021,-2.0423,-1.9842,-1.9723,-1.9723,-1.9723,-1.9723,-1.9723,-1.9723,-1.9723,-1.9723,-1.9723,-1.9723,-1.9783,-1.9839,-1.9869,-1.9798,-1.9992,-2.0112,-2.0258,-2.0707,-2.0733,-2.0991,-2.1425,-2.155,-2.158,-2.1655,-2.1126,-2.1032,-2.1605,-2.1739,-2.1859,-2.1979,-2.2297,-2.2397,-2.1512,-2.1657,-2.1196,-2.0519,-2.0105,-1.9965,-1.9849,-1.9874,-1.9886,-1.9974,-2.0137,-2.0275,-2.0413,-2.0426,-2.0501,-2.0539,-2.0514,-2.0388,-2.015,-2.0087,-1.9835,-1.904,-1.8134,-1.7423,-1.6736,-1.6065,-1.5555,-1.542,-1.542,-1.542,-1.5488,-1.5566,-1.5644,-4.0113,-4.0113,-4.0113,-4.0113,-4.0096,-3.9876,-3.9808,-3.9706,-3.9005,-3.87,-3.8531,-3.7939,-3.7313,-3.6812,-3.6592,-3.618,-3.5718,-3.5616,-3.5616,-3.5566,-3.543,-3.3798,-3.1688,-3.0557,-3.0089,-2.9893,-2.8927,-2.8418,-2.8154,-2.7143,-2.6432,-2.6063,-2.5525,-2.4993,-2.4425,-2.4321,-2.4051,-2.367,-2.3475,-2.334,-2.3236,-2.2763,-2.2448,-2.2403,-2.1999,-2.1754,-2.1695,-2.1545,-2.0857,-1.9828,-1.9723,-1.9723,-1.9753,-1.9738,-1.9738,-1.9768,-1.9723,-1.9723,-1.9723,-1.9738,-1.9932,-2.0393,-2.0453,-2.0647,-2.1141,-2.1156,-2.1261,-2.144,-2.144,-2.1515,-2.168,-2.1754,-2.1934,-2.2269,-2.1859,-2.1724,-2.2269,-2.2463,-2.2598,-2.3011,-2.3221,-2.3051,-2.2768,-2.2431,-2.2058,-2.1272,-2.0747,-2.0347,-2.0142,-2.0288,-2.0451,-2.0675,-2.0851,-2.1004,-2.1104,-2.1104,-2.1142,-2.1204,-2.1217,-2.1204,-2.0941,-2.0715,-2.0274,-1.9624,-1.8533,-1.7705,-1.7051,-1.6428,-1.5989,-1.5615,-1.5537,-1.5625,-1.582,-1.5968,-1.6056,-4.0113,-4.0113,-4.0113,-4.0113,-4.0113,-4.0113,-4.0113,-4.0028,-3.9673,-3.9469,-3.9276,-3.87,-3.7956,-3.7263,-3.6965,-3.6349,-3.5667,-3.5616,-3.5616,-3.5487,-3.4965,-3.3631,-3.1918,-3.055,-2.9641,-2.9539,-2.8633,-2.8171,-2.8006,-2.7329,-2.6911,-2.6527,-2.6213,-2.5674,-2.5023,-2.4694,-2.444,-2.4044,-2.3752,-2.3595,-2.355,-2.3287,-2.3122,-2.3032,-2.2652,-2.2413,-2.2173,-2.2099,-2.1485,-2.0453,-2.0124,-2.0109,-2.0079,-1.9809,-1.9842,-2.0049,-1.9902,-1.9798,-2.0064,-2.0124,-2.0438,-2.0976,-2.1141,-2.1321,-2.1575,-2.1695,-2.1739,-2.2089,-2.2119,-2.2233,-2.2458,-2.2503,-2.2682,-2.2957,-2.2712,-2.2652,-2.3047,-2.3056,-2.3242,-2.349,-2.3573,-2.3465,-2.3304,-2.2949,-2.2423,-2.18,-2.1305,-2.0862,-2.0495,-2.0821,-2.1091,-2.129,-2.1365,-2.143,-2.1455,-2.1455,-2.1669,-2.1757,-2.1958,-2.1945,-2.1581,-2.1333,-2.0953,-2.0242,-1.9032,-1.8102,-1.7625,-1.7069,-1.6437,-1.6102,-1.5956,-1.5976,-1.623,-1.6369,-1.6457,-4.0113,-4.0113,-4.0113,-4.0113,-4.0113,-4.0113,-4.0113,-4.0113,-4.0045,-4.0045,-3.991,-3.9402,-3.8616,-3.7848,-3.7246,-3.6468,-3.5633,-3.5616,-3.5616,-3.5224,-3.4439,-3.3274,-3.254,-3.0294,-2.9316,-2.9056,-2.815,-2.786,-2.7851,-2.7685,-2.727,-2.6911,-2.6722,-2.6333,-2.5764,-2.5173,-2.4829,-2.4605,-2.4096,-2.3849,-2.3774,-2.3625,-2.3475,-2.346,-2.3445,-2.3176,-2.2877,-2.2712,-2.2203,-2.0976,-2.0857,-2.0812,-2.0718,-2.0198,-2.0243,-2.0617,-2.0393,-2.0303,-2.0673,-2.0808,-2.1096,-2.165,-2.1799,-2.1859,-2.2009,-2.2128,-2.2308,-2.2763,-2.2793,-2.3002,-2.3295,-2.352,-2.3475,-2.3475,-2.349,-2.358,-2.367,-2.364,-2.3595,-2.3625,-2.364,-2.3415,-2.3126,-2.2896,-2.28,-2.2542,-2.2068,-2.1668,-2.1307,-2.132,-2.1619,-2.1854,-2.1841,-2.1769,-2.1769,-2.1769,-2.2071,-2.2309,-2.2594,-2.2594,-2.2121,-2.182,-2.1634,-2.098,-1.9847,-1.9126,-1.8674,-1.8007,-1.7121,-1.6551,-1.6346,-1.6521,-1.6746,-1.6787,-1.6846,-4.0113,-4.0113,-4.0113,-4.0113,-4.0113,-4.0113,-4.0113,-4.0113,-4.0113,-4.0113,-4.0062,-3.991,-3.9089,-3.7939,-3.7669,-3.6918,-3.5769,-3.5633,-3.5616,-3.5424,-3.4227,-3.3611,-3.2927,-3.101,-3.0143,-2.9774,-2.8876,-2.8397,-2.8263,-2.7839,-2.754,-2.739,-2.724,-2.7061,-2.6437,-2.6138,-2.5869,-2.5367,-2.4724,-2.4395,-2.4261,-2.3894,-2.364,-2.361,-2.3595,-2.355,-2.3445,-2.3415,-2.3047,-2.2373,-2.1819,-2.1545,-2.144,-2.1276,-2.1261,-2.135,-2.1335,-2.1276,-2.1455,-2.153,-2.1769,-2.2373,-2.2508,-2.2667,-2.3161,-2.3116,-2.3206,-2.34,-2.3415,-2.3445,-2.364,-2.3625,-2.3714,-2.3744,-2.3759,-2.3909,-2.4193,-2.3917,-2.3699,-2.3789,-2.4118,-2.435,-2.423,-2.4585,-2.4202,-2.3416,-2.2919,-2.2565,-2.2276,-2.2037,-2.208,-2.2355,-2.2418,-2.2343,-2.2372,-2.2359,-2.2472,-2.2631,-2.2907,-2.3083,-2.2581,-2.2322,-2.2121,-2.1538,-2.0714,-2.0123,-1.9727,-1.8624,-1.7687,-1.7218,-1.6826,-1.697,-1.7158,-1.7197,-1.7275,-4.0113,-4.0113,-4.0113,-4.0113,-4.0113,-4.0113,-4.0113,-4.0113,-4.0113,-4.0113,-4.0113,-4.0113,-3.9445,-3.8413,-3.8024,-3.7229,-3.6282,-3.5735,-3.5424,-3.4981,-3.4037,-3.3427,-3.2913,-3.1778,-3.0823,-3.0387,-2.919,-2.8652,-2.8412,-2.8004,-2.7585,-2.7585,-2.7585,-2.7405,-2.7046,-2.6767,-2.6393,-2.6019,-2.5412,-2.5068,-2.4963,-2.441,-2.3849,-2.367,-2.3595,-2.3595,-2.358,-2.358,-2.3415,-2.3122,-2.2757,-2.2428,-2.2113,-2.1909,-2.1879,-2.2084,-2.1814,-2.1919,-2.2039,-2.2209,-2.2463,-2.3041,-2.3137,-2.3281,-2.3505,-2.3595,-2.3595,-2.3595,-2.361,-2.3684,-2.4029,-2.4088,-2.4163,-2.4492,-2.4522,-2.4702,-2.4874,-2.4485,-2.4238,-2.4477,-2.4874,-2.5023,-2.5232,-2.56,-2.5355,-2.4422,-2.3872,-2.3514,-2.3293,-2.3036,-2.2694,-2.2782,-2.2932,-2.2982,-2.2982,-2.2957,-2.2895,-2.2957,-2.3007,-2.3095,-2.2907,-2.2732,-2.2606,-2.203,-2.1492,-2.123,-2.0688,-1.9487,-1.8596,-1.8274,-1.7976,-1.7708,-1.7559,-1.7627,-1.7695,-4.0113,-4.0113,-4.0113,-4.0113,-4.0113,-4.0113,-4.0113,-4.0113,-4.0113,-4.0113,-4.0113,-4.0113,-3.9656,-3.8937,-3.821,-3.7466,-3.6529,-3.5778,-3.5098,-3.4624,-3.3761,-3.313,-3.2555,-3.183,-3.1167,-3.0552,-2.9594,-2.9071,-2.8816,-2.8184,-2.7899,-2.7764,-2.7615,-2.7555,-2.742,-2.7106,-2.6782,-2.6662,-2.6093,-2.5749,-2.5621,-2.5083,-2.447,-2.3969,-2.3827,-2.3729,-2.3655,-2.3595,-2.358,-2.3595,-2.3595,-2.331,-2.2868,-2.2418,-2.2203,-2.2793,-2.2398,-2.2428,-2.2712,-2.2853,-2.3041,-2.358,-2.358,-2.358,-2.3595,-2.3625,-2.3714,-2.3849,-2.3984,-2.4186,-2.456,-2.4709,-2.4993,-2.536,-2.5555,-2.5644,-2.5621,-2.5217,-2.5255,-2.5337,-2.5585,-2.5749,-2.5839,-2.604,-2.58,-2.5477,-2.4899,-2.4382,-2.4099,-2.3725,-2.3217,-2.297,-2.3058,-2.3095,-2.3095,-2.3446,-2.3409,-2.3434,-2.3371,-2.3409,-2.3421,-2.3496,-2.3421,-2.2912,-2.2462,-2.2109,-2.1611,-2.0677,-1.9951,-1.9486,-1.8859,-1.8351,-1.814,-1.8081,-1.8096,-4.0113,-4.0113,-4.0113,-4.0113,-4.0113,-4.0113,-4.0113,-4.0113,-4.0113,-4.0113,-4.0113,-4.0096,-3.9706,-3.9005,-3.8261,-3.7178,-3.6122,-3.5278,-3.4736,-3.4333,-3.3443,-3.2695,-3.2382,-3.1853,-3.1406,-3.1197,-3.0507,-3.0118,-2.9774,-2.9086,-2.8427,-2.8293,-2.7914,-2.766,-2.7585,-2.745,-2.733,-2.724,-2.6746,-2.6437,-2.6288,-2.5779,-2.5113,-2.4515,-2.4425,-2.4156,-2.3744,-2.3625,-2.3595,-2.3595,-2.3595,-2.352,-2.3385,-2.3236,-2.3251,-2.3281,-2.3221,-2.3161,-2.331,-2.34,-2.3475,-2.358,-2.3655,-2.364,-2.364,-2.3699,-2.4044,-2.4425,-2.4814,-2.5091,-2.4649,-2.5143,-2.5465,-2.5644,-2.5779,-2.5944,-2.6273,-2.6273,-2.6019,-2.5959,-2.6198,-2.6437,-2.6512,-2.6583,-2.6459,-2.6044,-2.5375,-2.464,-2.4061,-2.3649,-2.316,-2.307,-2.3083,-2.3095,-2.3095,-2.3609,-2.3916,-2.3998,-2.401,-2.4142,-2.423,-2.4399,-2.4267,-2.3941,-2.3331,-2.2727,-2.2183,-2.1544,-2.0649,-1.9754,-1.9248,-1.8828,-1.86,-1.8428,-1.833,-4.0113,-4.0113,-4.0113,-4.0113,-4.0113,-4.0113,-4.0113,-4.0113,-4.0113,-4.0113,-4.0113,-4.0096,-3.9926,-3.9453,-3.8785,-3.7635,-3.6272,-3.5051,-3.4464,-3.3937,-3.3093,-3.2355,-3.2104,-3.164,-3.1553,-3.1406,-3.1152,-3.0806,-3.0462,-2.9579,-2.8996,-2.8577,-2.8244,-2.7959,-2.766,-2.757,-2.76,-2.751,-2.7285,-2.7106,-2.7061,-2.6462,-2.5809,-2.5292,-2.5068,-2.4754,-2.4261,-2.4111,-2.3939,-2.3684,-2.3595,-2.3595,-2.361,-2.3595,-2.361,-2.3625,-2.361,-2.361,-2.3595,-2.3595,-2.3595,-2.3625,-2.3894,-2.4118,-2.4238,-2.4477,-2.4747,-2.5053,-2.5292,-2.5644,-2.5651,-2.5929,-2.6228,-2.6557,-2.6587,-2.6722,-2.7001,-2.7076,-2.6851,-2.6542,-2.6841,-2.7076,-2.7136,-2.716,-2.7125,-2.6613,-2.5864,-2.5021,-2.4134,-2.365,-2.3233,-2.3358,-2.3434,-2.3547,-2.3622,-2.4036,-2.4406,-2.4519,-2.4695,-2.4795,-2.4808,-2.4933,-2.5184,-2.5247,-2.4496,-2.3666,-2.2675,-2.1994,-2.0985,-2.0076,-1.9589,-1.9168,-1.8932,-1.876,-1.8701,-4.0113,-4.0113,-4.0113,-4.0113,-4.0113,-4.0113,-4.0113,-4.0113,-4.0113,-4.0113,-4.0113,-4.0113,-4.0113,-3.9842,-3.9056,-3.799,-3.6692,-3.5155,-3.4128,-3.3556,-3.2707,-3.2023,-3.1668,-3.1496,-3.1496,-3.1496,-3.1451,-3.1227,-3.0776,-3.0088,-2.952,-2.919,-2.8951,-2.8457,-2.7989,-2.7914,-2.7779,-2.7615,-2.7585,-2.7585,-2.745,-2.7076,-2.6467,-2.5884,-2.5809,-2.5495,-2.4896,-2.4799,-2.4575,-2.4223,-2.3969,-2.3834,-2.3789,-2.367,-2.367,-2.3759,-2.3684,-2.367,-2.3819,-2.3827,-2.3977,-2.4223,-2.4545,-2.4739,-2.4948,-2.5285,-2.5704,-2.5674,-2.6004,-2.6138,-2.6393,-2.6692,-2.7016,-2.7315,-2.748,-2.757,-2.7495,-2.748,-2.745,-2.739,-2.76,-2.76,-2.7555,-2.739,-2.7291,-2.6654,-2.5892,-2.5231,-2.4392,-2.3825,-2.354,-2.371,-2.386,-2.4073,-2.4274,-2.4644,-2.4895,-2.4996,-2.5259,-2.5473,-2.5385,-2.5322,-2.5657,-2.5946,-2.5686,-2.4797,-2.3655,-2.256,-2.18,-2.1011,-2.0093,-1.9485,-1.917,-1.918,-1.9258,-4.0113,-4.0113,-4.0113,-4.0113,-4.0113,-4.0113,-4.0113,-4.0113,-4.0113,-4.0113,-4.0113,-4.0113,-4.0113,-3.9825,-3.87,-3.7652,-3.642,-3.4898,-3.379,-3.3345,-3.2312,-3.1682,-3.1524,-3.1496,-3.1496,-3.1496,-3.1496,-3.1481,-3.1167,-3.0629,-3.0342,-3.0088,-2.9609,-2.9157,-2.8547,-2.8472,-2.8158,-2.7735,-2.7615,-2.7585,-2.757,-2.748,-2.7076,-2.6662,-2.6422,-2.6168,-2.56,-2.5472,-2.536,-2.5202,-2.4724,-2.4515,-2.4395,-2.3872,-2.4007,-2.4096,-2.4051,-2.3864,-2.4388,-2.4485,-2.4664,-2.5016,-2.5382,-2.5457,-2.5711,-2.6063,-2.6273,-2.5689,-2.6566,-2.6986,-2.6881,-2.7151,-2.7435,-2.757,-2.7645,-2.7705,-2.772,-2.7884,-2.7854,-2.8019,-2.8154,-2.7959,-2.7809,-2.7614,-2.7357,-2.6669,-2.5974,-2.5328,-2.4722,-2.4227,-2.3941,-2.4123,-2.4399,-2.4612,-2.4858,-2.5209,-2.541,-2.5511,-2.5724,-2.6047,-2.5959,-2.5871,-2.6097,-2.6273,-2.6122,-2.5702,-2.4487,-2.3489,-2.2763,-2.1744,-2.0663,-1.9915,-1.9377,-1.95,-1.9766,-4.0113,-4.0113,-4.0113,-4.0113,-4.0113,-4.0113,-4.0113,-4.0113,-4.0113,-4.0113,-4.0113,-4.0113,-4.0113,-3.9834,-3.8937,-3.7898,-3.6613,-3.4945,-3.3725,-3.3007,-3.2064,-3.1496,-3.1496,-3.1496,-3.1496,-3.1496,-3.1496,-3.1496,-3.1376,-3.1212,-3.0913,-3.0507,-3.0238,-2.9789,-2.922,-2.9187,-2.8757,-2.8248,-2.7839,-2.7615,-2.7585,-2.757,-2.7465,-2.718,-2.7151,-2.6776,-2.6333,-2.6168,-2.5944,-2.5681,-2.5247,-2.5173,-2.5113,-2.4926,-2.4926,-2.5053,-2.4918,-2.4889,-2.5113,-2.5173,-2.5367,-2.5644,-2.5974,-2.6333,-2.6647,-2.6911,-2.7076,-2.6821,-2.7225,-2.7375,-2.7225,-2.7435,-2.7794,-2.7959,-2.7914,-2.8274,-2.8349,-2.8203,-2.8308,-2.8528,-2.8678,-2.8543,-2.8319,-2.8023,-2.7776,-2.7287,-2.6581,-2.5842,-2.5322,-2.4851,-2.4633,-2.4612,-2.4913,-2.5234,-2.5448,-2.5711,-2.5971,-2.6072,-2.6084,-2.6311,-2.6373,-2.6436,-2.6487,-2.6487,-2.6361,-2.5788,-2.5034,-2.4047,-2.2965,-2.2017,-2.111,-2.0437,-1.9889,-2.0028,-2.0273,-4.0113,-4.0113,-4.0113,-4.0113,-4.0113,-4.0113,-4.0113,-4.0113,-4.0113,-4.0113,-4.0113,-4.007,-4.002,-3.964,-3.8908,-3.7885,-3.6663,-3.5118,-3.3934,-3.2832,-3.1999,-3.1553,-3.1496,-3.1496,-3.1496,-3.1496,-3.1496,-3.1496,-3.1496,-3.1421,-3.1182,-3.0761,-3.0806,-3.0402,-2.9968,-2.9744,-2.9415,-2.8547,-2.8139,-2.7839,-2.7645,-2.7585,-2.7585,-2.757,-2.754,-2.736,-2.6956,-2.6866,-2.6527,-2.6303,-2.5959,-2.5854,-2.5824,-2.5585,-2.56,-2.5726,-2.5749,-2.5914,-2.6019,-2.6048,-2.5974,-2.6198,-2.6452,-2.7016,-2.7375,-2.7585,-2.757,-2.7435,-2.751,-2.7585,-2.763,-2.772,-2.8094,-2.8308,-2.8408,-2.8903,-2.9247,-2.9007,-2.8861,-2.9022,-2.9202,-2.9337,-2.9052,-2.8558,-2.821,-2.7864,-2.7201,-2.6378,-2.5809,-2.5313,-2.5355,-2.5297,-2.5523,-2.5787,-2.5912,-2.6172,-2.6424,-2.6487,-2.6487,-2.6487,-2.6487,-2.6487,-2.6487,-2.6487,-2.6487,-2.6236,-2.5676,-2.4413,-2.3143,-2.2147,-2.1281,-2.0831,-2.0507,-2.0615,-2.0605,-4.0113,-4.0113,-4.0113,-4.0113,-4.0113,-4.0113,-4.0113,-4.0113,-4.0113,-4.0113,-4.0113,-4.007,-3.9705,-3.9043,-3.8438,-3.7621,-3.6574,-3.4532,-3.3758,-3.308,-3.2243,-3.1763,-3.1675,-3.163,-3.1555,-3.1496,-3.1496,-3.1496,-3.1496,-3.1496,-3.1451,-3.1421,-3.1256,-3.0956,-3.0597,-3.0298,-2.9804,-2.9056,-2.8622,-2.8274,-2.7929,-2.7735,-2.7675,-2.766,-2.763,-2.7555,-2.751,-2.7435,-2.736,-2.7156,-2.6767,-2.6551,-2.6452,-2.6153,-2.6168,-2.6422,-2.6551,-2.6746,-2.6941,-2.6821,-2.6896,-2.724,-2.7435,-2.742,-2.757,-2.7585,-2.7585,-2.769,-2.7794,-2.7794,-2.7914,-2.8098,-2.8577,-2.8831,-2.9041,-2.9355,-2.9639,-2.9621,-2.9505,-2.9564,-2.9744,-3.0013,-3.0058,-2.9639,-2.8708,-2.8325,-2.7297,-2.6453,-2.6078,-2.5719,-2.5925,-2.6047,-2.621,-2.6348,-2.6361,-2.6487,-2.6487,-2.6487,-2.6487,-2.6487,-2.6487,-2.6487,-2.6487,-2.6487,-2.6487,-2.6418,-2.6047,-2.4553,-2.3187,-2.2205,-2.1403,-2.0867,-2.0615,-2.0615,-2.0615,-4.0113,-4.0113,-4.0113,-4.0113,-4.0113,-4.0113,-4.0113,-4.0113,-4.0113,-4.0113,-4.0113,-4.007,-3.9662,-3.896,-3.8596,-3.7538,-3.6106,-3.5319,-3.4338,-3.3605,-3.2946,-3.2512,-3.2303,-3.2034,-3.1914,-3.1615,-3.1511,-3.1496,-3.1496,-3.1496,-3.1496,-3.1496,-3.1496,-3.1391,-3.1092,-3.0731,-3.0208,-2.9849,-2.9385,-2.9037,-2.8873,-2.8393,-2.8229,-2.8203,-2.7705,-2.7615,-2.757,-2.7585,-2.7585,-2.7525,-2.7315,-2.721,-2.7151,-2.6851,-2.6896,-2.7106,-2.7136,-2.7315,-2.748,-2.7345,-2.7375,-2.7465,-2.757,-2.7615,-2.7675,-2.763,-2.7884,-2.8049,-2.8229,-2.8304,-2.8858,-2.9071,-2.9325,-2.9535,-2.9744,-2.9968,-3.0118,-3.0163,-3.0268,-3.0372,-3.0642,-3.0898,-3.0883,-3.0808,-2.9739,-2.8722,-2.7606,-2.6628,-2.626,-2.6059,-2.6235,-2.6323,-2.6449,-2.6487,-2.6487,-2.6487,-2.6487,-2.6487,-2.6487,-2.6487,-2.6487,-2.6487,-2.6487,-2.6487,-2.6418,-2.6233,-2.5616,-2.4397,-2.3368,-2.2553,-2.1593,-2.0722,-2.0615,-2.0615,-2.0615,-4.0113,-4.0113,-4.0113,-4.0113,-4.007,-3.985,-3.9756,-3.9756,-3.9731,-3.9927,-4.0087,-4.007,-3.9506,-3.8816,-3.8492,-3.7479,-3.5964,-3.5202,-3.4622,-3.4014,-3.3515,-3.3245,-3.2961,-3.2721,-3.2467,-3.1929,-3.1765,-3.1795,-3.1496,-3.1496,-3.1496,-3.1496,-3.1496,-3.1481,-3.1376,-3.1077,-3.0717,-3.0417,-3.0148,-2.9726,-2.9562,-2.9172,-2.8891,-2.8861,-2.8513,-2.8169,-2.8064,-2.7964,-2.7809,-2.769,-2.7555,-2.757,-2.757,-2.7585,-2.7585,-2.7585,-2.76,-2.76,-2.76,-2.7585,-2.7585,-2.7585,-2.7874,-2.7889,-2.7914,-2.8064,-2.8603,-2.8801,-2.8921,-2.9101,-2.9666,-2.9699,-2.9894,-3.0103,-3.0328,-3.0539,-3.0793,-3.0913,-3.1047,-3.1182,-3.1361,-3.1302,-3.0881,-3.0661,-2.9701,-2.8703,-2.7954,-2.7038,-2.6485,-2.6323,-2.6386,-2.6436,-2.6474,-2.6487,-2.6487,-2.6487,-2.6487,-2.6487,-2.6487,-2.6487,-2.6487,-2.6487,-2.6487,-2.6487,-2.6349,-2.6094,-2.5581,-2.4838,-2.3952,-2.2999,-2.1859,-2.0605,-2.0615,-2.0615,-2.0615,-4.0113,-4.0113,-4.0113,-4.0113,-4.002,-3.9246,-3.8978,-3.9059,-3.9059,-3.9411,-3.9969,-4.002,-3.9252,-3.8206,-3.8007,-3.7021,-3.5747,-3.4991,-3.4611,-3.4445,-3.4083,-3.3664,-3.3499,-3.3395,-3.314,-3.2602,-3.2437,-3.2198,-3.169,-3.1839,-3.175,-3.1675,-3.1765,-3.1585,-3.1525,-3.1481,-3.1122,-3.0612,-3.0522,-3.0223,-2.9924,-2.9711,-2.9564,-2.9505,-2.9322,-2.8948,-2.8667,-2.8577,-2.8408,-2.8094,-2.7974,-2.7914,-2.7779,-2.7764,-2.7705,-2.76,-2.766,-2.769,-2.766,-2.7645,-2.7794,-2.7944,-2.8408,-2.8562,-2.8712,-2.9026,-2.9412,-2.9505,-2.9564,-2.9621,-2.9849,-3.0133,-3.0462,-3.0672,-3.0868,-3.1002,-3.1256,-3.1361,-3.1421,-3.1436,-3.1466,-3.1394,-3.0822,-3.0225,-2.9369,-2.8602,-2.8109,-2.7438,-2.6679,-2.6487,-2.6487,-2.6487,-2.6487,-2.6487,-2.6487,-2.6487,-2.6487,-2.6487,-2.6487,-2.6487,-2.6487,-2.6487,-2.6487,-2.6487,-2.6418,-2.6267,-2.5978,-2.5581,-2.4072,-2.2489,-2.1527,-2.0605,-2.0605,-2.0615,-2.0615,-4.0113,-4.0113,-4.0113,-4.0113,-3.9995,-3.9236,-3.8897,-3.8924,-3.8908,-3.9043,-3.9385,-3.9808,-3.9252,-3.8206,-3.7677,-3.6981,-3.5657,-3.54,-3.516,-3.5085,-3.4801,-3.4532,-3.4307,-3.4083,-3.3815,-3.332,-3.3125,-3.308,-3.2871,-3.2691,-3.2781,-3.2796,-3.2288,-3.1914,-3.1615,-3.1496,-3.1316,-3.1197,-3.1152,-3.1032,-3.0808,-3.0447,-3.0193,-3.0163,-2.9864,-2.9549,-2.928,-2.925,-2.9082,-2.8813,-2.8753,-2.8633,-2.8378,-2.8289,-2.8094,-2.7929,-2.7929,-2.8513,-2.8768,-2.8963,-2.8948,-2.9022,-2.9082,-2.925,-2.931,-2.9427,-2.9771,-3.0103,-3.0208,-3.0372,-3.0853,-3.0987,-3.1182,-3.1197,-3.1331,-3.1331,-3.1466,-3.1466,-3.1481,-3.1481,-3.1496,-3.1131,-3.0628,-2.9782,-2.8907,-2.8149,-2.7571,-2.7183,-2.6555,-2.6487,-2.6487,-2.6487,-2.6487,-2.6487,-2.6487,-2.6487,-2.6487,-2.6487,-2.6487,-2.6487,-2.6487,-2.6487,-2.6487,-2.6487,-2.6487,-2.6452,-2.5908,-2.5099,-2.3257,-2.1745,-2.1039,-2.0634,-2.0605,-2.0615,-2.0615,-4.0113,-4.0113,-4.0113,-4.0113,-3.9927,-3.8995,-3.837,-3.8173,-3.8129,-3.8353,-3.8935,-3.9447,-3.9022,-3.8092,-3.7706,-3.6966,-3.5587,-3.5489,-3.5489,-3.5489,-3.5474,-3.516,-3.4921,-3.4771,-3.4427,-3.4008,-3.3799,-3.3739,-3.3365,-3.3455,-3.3425,-3.3275,-3.308,-3.2721,-3.2303,-3.2108,-3.1884,-3.1839,-3.1809,-3.1675,-3.1391,-3.1092,-3.0866,-3.0761,-3.0537,-3.0193,-2.9983,-2.9864,-2.9804,-2.9699,-2.9577,-2.9442,-2.9071,-2.8876,-2.8738,-2.8588,-2.8678,-2.9265,-2.9669,-2.9876,-2.9909,-3.0253,-3.0101,-2.9936,-2.9983,-3.0208,-3.0492,-3.0761,-3.0806,-3.1046,-3.1361,-3.1496,-3.1496,-3.1496,-3.1496,-3.1496,-3.1555,-3.1555,-3.169,-3.1675,-3.1559,-3.1072,-3.0283,-2.9348,-2.8427,-2.7736,-2.7074,-2.6748,-2.6487,-2.6487,-2.6487,-2.6487,-2.6487,-2.6487,-2.6487,-2.6487,-2.6487,-2.6487,-2.6487,-2.6487,-2.6487,-2.6487,-2.6487,-2.6487,-2.6487,-2.6302,-2.5639,-2.4541,-2.3036,-2.1859,-2.1039,-2.075,-2.0644,-2.0615,-2.0615,-4.0045,-4.007,-4.0045,-3.9995,-3.9782,-3.8469,-3.7427,-3.6646,-3.6661,-3.7496,-3.8772,-3.8745,-3.8358,-3.7835,-3.7719,-3.686,-3.5748,-3.5522,-3.5489,-3.5489,-3.5489,-3.54,-3.5415,-3.534,-3.4981,-3.4713,-3.4503,-3.4307,-3.3694,-3.3888,-3.3873,-3.3709,-3.3664,-3.3544,-3.3365,-3.3051,-3.2736,-3.2587,-3.2512,-3.2303,-3.2004,-3.1645,-3.154,-3.1436,-3.1271,-3.0956,-3.0717,-3.0537,-3.0268,-3.0028,-2.9774,-2.9711,-2.9651,-2.9609,-2.9621,-2.9621,-2.9579,-2.9953,-3.0402,-3.0537,-3.0761,-3.0987,-3.0806,-3.0627,-3.0657,-3.0883,-3.1092,-3.1212,-3.1271,-3.1346,-3.1496,-3.1496,-3.1496,-3.1496,-3.1496,-3.154,-3.1615,-3.1735,-3.1929,-3.196,-3.1856,-3.1257,-2.9865,-2.883,-2.7941,-2.7417,-2.6884,-2.6679,-2.6487,-2.6487,-2.6487,-2.6487,-2.6487,-2.6487,-2.6487,-2.6487,-2.6487,-2.6487,-2.6487,-2.6487,-2.6487,-2.6487,-2.6487,-2.6487,-2.6487,-2.6047,-2.5052,-2.4133,-2.3136,-2.2075,-2.0934,-2.075,-2.0615,-2.0615,-2.0615,-3.9236,-3.9183,-3.8695,-3.8761,-3.9076,-3.8206,-3.7071,-3.5958,-3.6337,-3.6948,-3.7306,-3.7876,-3.7674,-3.6964,-3.6934,-3.6306,-3.5831,-3.5489,-3.5489,-3.5489,-3.5489,-3.5489,-3.5489,-3.5474,-3.534,-3.525,-3.513,-3.5011,-3.4936,-3.4861,-3.4831,-3.4921,-3.4397,-3.4487,-3.4457,-3.4233,-3.3724,-3.335,-3.3275,-3.3006,-3.2721,-3.2378,-3.2258,-3.2079,-3.175,-3.1421,-3.1197,-3.1122,-3.0943,-3.0913,-3.0883,-3.0806,-3.0238,-3.0238,-3.0238,-3.0238,-3.0298,-3.0522,-3.1047,-3.1197,-3.1286,-3.1436,-3.1286,-3.1271,-3.1271,-3.1361,-3.1525,-3.1496,-3.1615,-3.1675,-3.175,-3.1765,-3.1809,-3.1854,-3.1854,-3.1884,-3.2019,-3.2318,-3.2497,-3.2256,-3.2144,-3.0734,-2.937,-2.8256,-2.7439,-2.7003,-2.6692,-2.6555,-2.6487,-2.6487,-2.6487,-2.6487,-2.6487,-2.6487,-2.6487,-2.6487,-2.6487,-2.6487,-2.6487,-2.6487,-2.6487,-2.6487,-2.6487,-2.6487,-2.6487,-2.5499,-2.4145,-2.3404,-2.3073,-2.1745,-2.0644,-2.0644,-2.0615,-2.0615,-2.0615,-3.8924,-3.8799,-3.8121,-3.7876,-3.7873,-3.7483,-3.6585,-3.5701,-3.5975,-3.6275,-3.663,-3.713,-3.7054,-3.6691,-3.6615,-3.6228,-3.5554,-3.5489,-3.5489,-3.5489,-3.5489,-3.5489,-3.5489,-3.5489,-3.5474,-3.5489,-3.5489,-3.5385,-3.5489,-3.5489,-3.5459,-3.5385,-3.5011,-3.5175,-3.522,-3.4996,-3.4711,-3.4337,-3.4053,-3.3815,-3.3455,-3.3125,-3.2826,-3.2497,-3.2064,-3.1854,-3.1585,-3.157,-3.154,-3.1511,-3.1496,-3.1346,-3.0926,-3.0911,-3.0883,-3.0926,-3.0913,-3.1062,-3.1361,-3.1436,-3.1481,-3.1585,-3.1765,-3.1884,-3.1735,-3.169,-3.16,-3.1511,-3.175,-3.1944,-3.2019,-3.2108,-3.2228,-3.2362,-3.2362,-3.2362,-3.2662,-3.3006,-3.2866,-3.2568,-3.1582,-3.0146,-2.8892,-2.7814,-2.702,-2.6755,-2.6589,-2.6555,-2.6487,-2.6487,-2.6487,-2.6487,-2.6487,-2.6487,-2.6487,-2.6487,-2.6487,-2.6487,-2.6487,-2.6487,-2.6487,-2.6487,-2.6487,-2.6487,-2.6487,-2.5276,-2.3963,-2.3551,-2.3036,-2.1642,-2.0615,-2.0615,-2.0615,-2.0615,-2.0615,-3.8701,-3.8635,-3.8007,-3.7249,-3.6584,-3.66,-3.6196,-3.5537,-3.5554,-3.5863,-3.6415,-3.6492,-3.6477,-3.6322,-3.6322,-3.6054,-3.5636,-3.5489,-3.5489,-3.5489,-3.5489,-3.5489,-3.5489,-3.5489,-3.5489,-3.5489,-3.5489,-3.5489,-3.5489,-3.5489,-3.5489,-3.5489,-3.5444,-3.5459,-3.5429,-3.5415,-3.522,-3.5085,-3.4726,-3.4397,-3.3948,-3.3604,-3.3305,-3.2871,-3.2602,-3.2348,-3.1914,-3.1705,-3.166,-3.1675,-3.1705,-3.1765,-3.16,-3.1585,-3.1585,-3.169,-3.172,-3.1854,-3.1959,-3.2004,-3.1899,-3.2019,-3.2243,-3.2467,-3.2422,-3.2258,-3.2153,-3.2153,-3.2452,-3.2572,-3.2662,-3.2796,-3.2931,-3.2961,-3.2961,-3.2961,-3.311,-3.3362,-3.3299,-3.2867,-3.1952,-3.0416,-2.8486,-2.7445,-2.7091,-2.6694,-2.6487,-2.6487,-2.6487,-2.6487,-2.6487,-2.6487,-2.6487,-2.6487,-2.6487,-2.6487,-2.6487,-2.6487,-2.6487,-2.6487,-2.6487,-2.6487,-2.6487,-2.6418,-2.6233,-2.517,-2.4108,-2.3514,-2.2601,-2.1385,-2.0615,-2.0615,-2.0615,-2.0615,-2.0615,-3.7158,-3.7112,-3.6964,-3.6461,-3.5894,-3.6353,-3.6165,-3.5522,-3.5489,-3.5619,-3.575,-3.5782,-3.5814,-3.5863,-3.5847,-3.5668,-3.5587,-3.5489,-3.5489,-3.5489,-3.5489,-3.5489,-3.5489,-3.5489,-3.5489,-3.5489,-3.5489,-3.5489,-3.5489,-3.5489,-3.5489,-3.5489,-3.5489,-3.5489,-3.5489,-3.5489,-3.5489,-3.5474,-3.528,-3.507,-3.4846,-3.4442,-3.4098,-3.3814,-3.3589,-3.32,-3.2901,-3.2931,-3.2991,-3.3036,-3.3036,-3.2781,-3.2288,-3.2273,-3.2258,-3.2333,-3.2662,-3.2781,-3.2826,-3.2796,-3.2781,-3.2916,-3.3125,-3.32,-3.32,-3.308,-3.3036,-3.3066,-3.311,-3.32,-3.3305,-3.3469,-3.3634,-3.3619,-3.3619,-3.3619,-3.3619,-3.3648,-3.3709,-3.2982,-3.2151,-3.0466,-2.8486,-2.7494,-2.7186,-2.6867,-2.6596,-2.6487,-2.6487,-2.6487,-2.6487,-2.6487,-2.6487,-2.6487,-2.6487,-2.6487,-2.6487,-2.6487,-2.6487,-2.6487,-2.6487,-2.6487,-2.6452,-2.6198,-2.5804,-2.485,-2.3854,-2.285,-2.1897,-2.0944,-2.0615,-2.0615,-2.0615,-2.0615,-2.0615,-3.66,-3.6554,-3.6259,-3.5894,-3.5604,-3.5943,-3.5863,-3.5554,-3.5489,-3.5489,-3.5489,-3.5489,-3.5489,-3.5489,-3.5489,-3.5489,-3.5489,-3.5489,-3.5489,-3.5489,-3.5489,-3.5489,-3.5489,-3.5489,-3.5489,-3.5489,-3.5489,-3.5489,-3.5489,-3.5489,-3.5489,-3.5489,-3.5489,-3.5489,-3.5489,-3.5489,-3.5489,-3.5489,-3.5489,-3.5489,-3.5489,-3.5115,-3.4728,-3.4503,-3.4158,-3.3829,-3.3529,-3.3499,-3.3499,-3.3484,-3.341,-3.332,-3.3006,-3.2946,-3.2946,-3.3021,-3.323,-3.3499,-3.3544,-3.3589,-3.3604,-3.3634,-3.3888,-3.3903,-3.4038,-3.3933,-3.3784,-3.3814,-3.3844,-3.3918,-3.4098,-3.4294,-3.4532,-3.4651,-3.4651,-3.4651,-3.4399,-3.4192,-3.3677,-3.277,-3.1701,-3.0148,-2.8469,-2.7521,-2.7163,-2.6744,-2.6499,-2.6487,-2.6487,-2.6487,-2.6487,-2.6487,-2.6487,-2.6487,-2.6487,-2.6487,-2.6487,-2.6487,-2.6487,-2.6487,-2.6487,-2.6487,-2.6418,-2.6198,-2.5687,-2.4707,-2.3708,-2.259,-2.1707,-2.0828,-2.0644,-2.0615,-2.0625,-2.0683,-2.0732,-3.6415,-3.6353,-3.5782,-3.5489,-3.5489,-3.5489,-3.5489,-3.5489,-3.5489,-3.5489,-3.5489,-3.5489,-3.5489,-3.5489,-3.5489,-3.5489,-3.5489,-3.5489,-3.5489,-3.5489,-3.5489,-3.5489,-3.5489,-3.5489,-3.5489,-3.5489,-3.5489,-3.5489,-3.5489,-3.5489,-3.5489,-3.5489,-3.5489,-3.5489,-3.5489,-3.5489,-3.5489,-3.5489,-3.5489,-3.5489,-3.5489,-3.5489,-3.513,-3.4801,-3.4562,-3.4292,-3.3948,-3.3784,-3.3799,-3.3754,-3.3829,-3.3694,-3.3664,-3.3619,-3.3619,-3.3694,-3.3918,-3.3993,-3.3963,-3.4023,-3.3948,-3.3993,-3.4399,-3.4638,-3.4726,-3.4681,-3.4547,-3.4517,-3.4547,-3.4653,-3.4833,-3.4968,-3.5235,-3.54,-3.54,-3.5225,-3.4835,-3.4441,-3.3488,-3.2504,-3.1075,-2.9624,-2.8551,-2.7578,-2.7105,-2.6688,-2.6487,-2.6487,-2.6487,-2.6487,-2.6487,-2.6487,-2.6487,-2.6487,-2.6487,-2.6487,-2.6487,-2.6487,-2.6487,-2.6487,-2.6487,-2.6487,-2.6418,-2.628,-2.5616,-2.4479,-2.3463,-2.2403,-2.1527,-2.079,-2.0644,-2.0644,-2.081,-2.0879,-2.1006,-3.5701,-3.5716,-3.5537,-3.5489,-3.5489,-3.5489,-3.5489,-3.5489,-3.5489,-3.5489,-3.5489,-3.5489,-3.5489,-3.5489,-3.5489,-3.5489,-3.5489,-3.5489,-3.5489,-3.5489,-3.5489,-3.5489,-3.5489,-3.5489,-3.5489,-3.5489,-3.5489,-3.5489,-3.5489,-3.5489,-3.5489,-3.5489,-3.5489,-3.5489,-3.5489,-3.5489,-3.5489,-3.5489,-3.5489,-3.5489,-3.5489,-3.5489,-3.5474,-3.5325,-3.5295,-3.522,-3.513,-3.513,-3.513,-3.4981,-3.4592,-3.4399,-3.4324,-3.4324,-3.4307,-3.4382,-3.4607,-3.4786,-3.4786,-3.4786,-3.4756,-3.4816,-3.5115,-3.5145,-3.522,-3.5235,-3.5145,-3.5145,-3.516,-3.516,-3.528,-3.528,-3.5459,-3.5459,-3.5459,-3.4949,-3.4478,-3.3859,-3.3091,-3.1871,-3.0485,-2.9129,-2.7845,-2.7231,-2.704,-2.6675,-2.6499,-2.6487,-2.6487,-2.6487,-2.6524,-2.6512,-2.6524,-2.6487,-2.6487,-2.6487,-2.6487,-2.6487,-2.6549,-2.6675,-2.6675,-2.6499,-2.6408,-2.635,-2.529,-2.4004,-2.3001,-2.2331,-2.1529,-2.0879,-2.0674,-2.0683,-2.0908,-2.1162,-2.1318]},{"header":{"parameterUnit":"m.s-1","parameterCategory":1,"la1":31.0,"la2":29.5877,"lo1":-88.7671,"lo2":-86.6584,"dy":0.0162,"dx":0.0185,"nx":115,"ny":88,"refTime":"2026-04-12T00:00:00:Z","depth":0,"parameterNumber":3,"parameterNumberName":"V-component_of_WINDS"},"data":[0.0,0.0,0.0,0.0,0.0,0.0,0.0,0.0,0.0,0.0,0.0,0.0,0.0,0.0,0.0,0.0,0.0,0.0,0.0,0.0,0.0,0.0,0.0,0.0,0.0,0.0,0.0,0.0,0.0,0.0,0.0,0.0,0.0,0.0,0.0,0.0,0.0,0.0,0.0,0.0,0.0,0.0,0.0,0.0,0.0,0.0,0.0,0.0,0.0,0.0,0.0,0.0,0.0,0.0,0.0,0.0,0.0,0.0,0.0,0.0,0.0,0.0,0.0,0.0,0.0,0.0,0.0,0.0,0.0,0.0,0.0,0.0,0.0,0.0,0.0,0.0,0.0,0.0,0.0,0.0,0.0,0.0,0.0,0.0,0.0,0.0,0.0,0.0,0.0,0.0,0.0,0.0,0.0,0.0,0.0,0.0,0.0,0.0,0.0,0.0,0.0,0.0,0.0,0.0,0.0,0.0,0.0,0.0,0.0,0.0,0.0,0.0,0.0,0.0,0.0,0.0,0.0,0.0,0.0,0.0,0.0,0.0,0.0,0.0,0.0,0.0,0.0,0.0,0.0,0.0,0.0,0.0,0.0,0.0,0.0,0.0,0.0,0.0,0.0,0.0,0.0,0.0,0.0,0.0,0.0,0.0,0.0,0.0,0.0,0.0,0.0,0.0,0.0,0.0,0.0,0.0,0.0,0.0,0.0,0.0,0.0,0.0,0.0,0.0,0.0,0.0,0.0,0.0,0.0,0.0,0.0,0.0,0.0,0.0,0.0,0.0,0.0,0.0,0.0,0.0,0.0,0.0,0.0,0.0,0.0,0.0,0.0,0.0,0.0,0.0,0.0,0.0,0.0,0.0,0.0,0.0,0.0,0.0,0.0,0.0,0.0,0.0,0.0,0.0,0.0,0.0,0.0,0.0,0.0,0.0,0.0,0.0,0.0,0.0,0.0,0.0,0.0,0.0,0.0,0.0,0.0,0.0,0.0,0.0,0.0,0.0,0.0,0.0,0.0,0.0,0.0,0.0,0.0,0.0,0.0,0.0,0.0,0.0,0.0,0.0,0.0,0.0,0.0,0.0,0.0,0.0,0.0,0.0,0.0,0.0,0.0,0.0,0.0,0.0,0.0,0.0,0.0,0.0,0.0,0.0,0.0,0.0,0.0,0.0,0.0,0.0,0.0,0.0,0.0,0.0,0.0,0.0,0.0,0.0,0.0,0.0,0.0,0.0,0.0,0.0,0.0,0.0,0.0,0.0,0.0,0.0,0.0,0.0,0.0,0.0,0.0,0.0,0.0,0.0,0.0,0.0,0.0,0.0,0.0,0.0,0.0,0.0,0.0,0.0,0.0,0.0,0.0,0.0,0.0,0.0,0.0,0.0,0.0,0.0,0.0,0.0,0.0,0.0,0.0,0.0,0.0,0.0,0.0,0.0,0.0,0.0,0.0,0.0,0.0,0.0,0.0,0.0,0.0,0.0,0.0,0.0,0.0,0.0,0.0,0.0,0.0,0.0,0.0,0.0,0.0,0.0,0.0,0.0,0.0,0.0,0.0,0.0,0.0,0.0,0.0,0.0,0.0,0.0,0.0,0.0,0.0,0.0,0.0,0.0,0.0,0.0,0.0,0.0,0.0,0.0,0.0,0.0,0.0,0.0,0.0,0.0,0.0,0.0,0.0,0.0,0.0,0.0,0.0,0.0,0.0,0.0,0.0,0.0,0.0,0.0,0.0,0.0,0.0,0.0,0.0,0.0,0.0,0.0,0.0,0.0,0.0,0.0,0.0,0.0,0.0,0.0,0.0,0.0,0.0,0.0,0.0,0.0,0.0,0.0,0.0,0.0,0.0,0.0,0.0,0.0,0.0,0.0,0.0,0.0,0.0,0.0,0.0,0.0,0.0,0.0,0.0,0.0,0.0,0.0,0.0,0.0,0.0,0.0,0.0,0.0,0.0,0.0,0.0,0.0,0.0,0.0,0.0,0.0,0.0,0.0,0.0,0.0,0.0,0.0,0.0,0.0,0.0,0.0,0.0,0.0,0.0,0.0,0.0,0.0,0.0,0.0,0.0,0.0,0.0,0.0,0.0,0.0,0.0,0.0,0.0,0.0,0.0,0.0,0.0,0.0,0.0,0.0,0.0,0.0,0.0,0.0,0.0,0.0,0.0,0.0,0.0,0.0,0.0,0.0,0.0,0.0,0.0,0.0,0.0,0.0,0.0,0.0,0.0,0.0,0.0,0.0,0.0,0.0,0.0,0.0,0.0,0.0,0.0,0.0,0.0,0.0,0.0,0.0,0.0,0.0,0.0,0.0,0.0,0.0,0.0,0.0,0.0,0.0,0.0,0.0,0.0,0.0,0.0,0.0,0.0,0.0,0.0,0.0,0.0,0.0,0.0,0.0,0.0,0.0,0.0,0.0,0.0,0.0,0.0,0.0,0.0,0.0,0.0,0.0,0.0,0.0,0.0,0.0,0.0,0.0,0.0,0.0,0.0,0.0,0.0,0.0,0.0,0.0,0.0,0.0,0.0,0.0,0.0,0.0,0.0,0.0,0.0,0.0,0.0,0.0,0.0,0.0,0.0,0.0,0.0,0.0,0.0,0.0,0.0,0.0,0.0,0.0,0.0,0.0,0.0,0.0,0.0,0.0,0.0,0.0,0.0,0.0,0.0,0.0,0.0,0.0,0.0,0.0,0.0,0.0,0.0,0.0,0.0,0.0,0.0,0.0,0.0,0.0,0.0,0.0,0.0,0.0,0.0,0.0,0.0,0.0,0.0,0.0,0.0,0.0,0.0,0.0,0.0,0.0,0.0,0.0,0.0,0.0,0.0,0.0,0.0,0.0,0.0,0.0,0.0,0.0,0.0,0.0,0.0,0.0,0.0,0.0,0.0,0.0,0.0,0.0,0.0,0.0,0.0,0.0,0.0,0.0,0.0,0.0,0.0,0.0,0.0,0.0,0.0,0.0,0.0,0.0,0.0,0.0,0.0,0.0,0.0,0.0,0.0,0.0,0.0,0.0,0.0,0.0,0.0,0.0,0.0,0.0,0.0,0.0,0.0,0.0,0.0,0.0,0.0,0.0,0.0,0.0,0.0,0.0,0.0,0.0,0.0,0.0,0.0,0.0,0.0,0.0,0.0,0.0,0.0,0.0,0.0,0.0,0.0,0.0,0.0,0.0,0.0,0.0,0.0,0.0,0.0,0.0,0.0,0.0,0.0,0.0,0.0,0.0,0.0,0.0,0.0,0.0,0.0,0.0,0.0,0.0,0.0,0.0,0.0,0.0,0.0,0.0,0.0,0.0,0.0,0.0,0.0,0.0,0.0,0.0,0.0,0.0,0.0,0.0,0.0,0.0,0.0,0.0,0.0,0.0,0.0,0.0,0.0,0.0,0.0,0.0,0.0,0.0,0.0,0.0,0.0,0.0,0.0,0.0,0.0,0.0,0.0,0.0,0.0,0.0,0.0,0.0,0.0,0.0,0.0,0.0,0.0,0.0,0.0,0.0,0.0,0.0,0.0,0.0,0.0,0.0,0.0,0.0,0.0,0.0,0.0,0.0,0.0,0.0,0.0,0.0,0.0,0.0,0.0,0.0,0.0,0.0,0.0,0.0,0.0,0.0,0.0,0.0,0.0,0.0,0.0,0.0,0.0,0.0,0.0,0.0,0.0,0.0,0.0,0.0,0.0,0.0,0.0,0.0,0.0,0.0,0.0,0.0,0.0,0.0,0.0,0.0,0.0,0.0,0.0,0.0,0.0,0.0,0.0,0.0,0.0,0.0,0.0,0.0,0.0,0.0,0.0,0.0,0.0,0.0,0.0,0.0,0.0,0.0,0.0,0.0,0.0,0.0,0.0,0.0,0.0,0.0,0.0,0.0,0.0,0.0,0.0,0.0,0.0,0.0,0.0,0.0,0.0,0.0,0.0,0.0,0.0,0.0,0.0,0.0,0.0,0.0,0.0,0.0,0.0,0.0,0.0,0.0,0.0,0.0,0.0,0.0,0.0,0.0,0.0,0.0,0.0,0.0,0.0,0.0,0.0,0.0,0.0,0.0,0.0,0.0,0.0,0.0,0.0,0.0,0.0,0.0,0.0,0.0,0.0,0.0,0.0,0.0,0.0,0.0,0.0,0.0,0.0,0.0,0.0,0.0,0.0,0.0,0.0,0.0,0.0,0.0,0.0,0.0,0.0,0.0,0.0,0.0,0.0,0.0,0.0,0.0,0.0,0.0,0.0,0.0,0.0,0.0,0.0,0.0,0.0,0.0,0.0,0.0,0.7892,0.0,0.0,0.0,0.0,0.0,0.0,0.0,0.0,0.0,0.0,0.0,0.0,0.0,0.0,0.0,0.0,0.0,0.0,0.0,0.0,0.0,0.0,0.0,0.0,0.0,0.0,0.0,0.0,0.0,0.0,0.0,0.0,0.0,0.0,0.0,0.0,0.0,0.0,0.0,0.0,0.0,0.0,0.0,0.0,0.0,0.0,0.0,0.0,0.0,0.0,0.0,0.0,0.0,0.0,0.0,0.0,0.0,0.0,0.0,0.0,0.0,0.0,0.0,0.0,0.0,0.0,0.0,0.0,0.0,0.0,0.0,0.0,0.0,0.0,0.0,0.0,0.0,0.0,0.0,0.0,0.0,0.0,0.0,0.0,0.0,0.0,0.0,0.0,0.0,0.0,0.0,0.0,0.0,0.0,0.0,0.0,0.0,0.0,0.0,0.0,0.0,0.0,0.0,0.0,0.0,0.0,0.0,0.0,0.0,0.0,0.7284,0.7717,0.7753,0.7812,0.7899,0.0,0.0,0.0,0.0,0.0,0.0,0.0,0.0,0.0,0.0,0.0,0.0,0.0,0.0,0.0,0.0,0.0,0.0,0.0,0.0,0.0,0.0,0.0,0.0,0.0,0.0,0.0,0.0,0.0,0.0,0.0,0.0,0.0,0.0,0.0,0.0,0.0,0.0,0.0,0.0,0.0,0.0,0.0,0.0,0.0,0.0,0.0,0.0,0.0,0.0,0.0,0.0,0.0,0.0,0.0,0.0,0.0,0.0,0.0,0.0,0.0,0.0,0.0,0.0,0.0,0.0,0.0,0.0,0.0,0.0,0.0,0.0,0.0,0.0,0.0,0.0,0.0,0.0,0.0,0.0,0.0,0.0,0.0,0.0,0.0,0.0,0.0,0.0,0.0,0.0,0.0,0.0,0.0,0.0,0.0,0.0,0.0,0.0,0.0,0.0,0.0,0.0,0.0,0.0,0.0,0.0,0.0,0.0,0.0,0.0,0.0,0.0,0.7768,0.7863,0.7906,0.0,0.0,0.0,0.0,0.0,0.0,0.0,0.0,0.0,0.0,0.0,0.0,0.0,0.0,0.0,0.0,0.0,0.0,0.0,0.0,0.0,0.0,0.0,0.0,0.0,0.0,0.0,0.0,0.0,0.0,0.0,0.0,0.0,0.0,0.0,0.0,0.0,0.0,0.0,0.0,0.0,0.0,0.0,0.0,0.0,0.0,0.0,0.0,0.0,0.0,0.0,0.0,0.0,0.0,0.0,0.0,0.0,0.0,0.0,0.0,0.0,0.0,0.0,0.0,0.0,0.0,0.0,0.0,0.0,0.0,0.0,0.0,0.0,0.0,0.0,0.0,0.0,0.0,0.0,0.0,0.0,0.0,0.0,0.0,0.0,0.0,0.0,0.0,0.0,0.0,0.0,0.0,0.0,0.0,0.0,0.0,0.0,0.0,0.0,0.0,0.0,0.0,0.0,0.0,0.0,0.0,0.0,0.0,0.0,0.0,0.7425,0.7856,0.7709,0.0,0.7885,0.0,0.0,0.0,0.0,0.0,0.0,0.0,0.0,0.0,0.0,0.0,0.0,0.0,0.0,0.0,0.0,0.0,0.0,0.0,0.0,0.0,0.0,0.0,0.0,0.0,0.0,0.0,0.0,0.0,0.0,0.0,0.0,0.0,0.0,0.0,0.0,0.0,0.0,0.0,0.0,0.0,0.0,0.0,0.0,0.0,0.0,0.0,0.0,0.0,0.0,0.0,0.0,0.0,0.0,0.0,0.0,0.0,0.0,0.0,0.0,0.0,0.0,0.0,0.0,0.0,0.0,0.0,0.0,0.0,0.0,0.0,0.0,0.0,0.0,0.0,0.0,0.0,0.0,0.0,0.0,0.0,0.0,0.0,0.0,0.0,0.0,0.0,0.0,0.0,0.0,0.0,0.0,0.0,0.0,0.0,0.0,0.0,0.0,0.0,0.0,0.0,0.0,0.0,0.0,0.0,0.0,0.0,0.0,0.0,0.0,0.0,0.7717,0.7753,0.7797,0.0,0.0,0.0,0.0,0.0,0.0,0.0,0.0,0.0,0.0,0.0,0.0,0.0,0.0,0.0,0.0,0.0,0.0,0.0,0.0,0.0,0.0,0.0,0.0,0.0,0.0,0.0,0.0,0.0,0.0,0.0,0.0,0.0,0.0,0.0,0.0,0.0,0.0,0.0,0.0,0.0,0.0,0.0,0.0,0.0,0.0,0.0,0.0,0.0,0.0,0.0,0.0,0.0,0.0,0.0,0.0,0.0,0.0,0.0,0.0,0.0,0.0,0.0,0.0,0.0,0.0,0.0,0.0,0.0,0.0,0.0,0.0,0.0,0.0,0.0,0.0,0.0,0.0,0.0,0.0,0.0,0.0,0.0,0.0,0.0,0.0,0.0,0.0,0.0,0.0,0.0,0.0,0.0,0.0,0.0,0.0,0.0,0.0,0.0,0.0,0.0,0.0,0.0,0.0,0.0,0.0,0.0,0.0,0.0,0.0,0.7199,0.0,0.7672,0.7819,0.7906,0.7906,0.0,0.0,0.0,0.0,0.0,0.0,0.0,0.0,0.0,0.0,0.0,0.0,0.0,0.0,0.0,0.0,0.0,0.0,0.0,0.0,0.0,0.0,0.0,0.0,0.0,0.0,0.0,0.0,0.0,0.0,0.0,0.0,0.0,0.0,0.0,0.0,0.0,0.0,0.0,0.0,0.0,0.0,0.0,0.0,0.0,0.0,0.0,0.0,0.0,0.0,0.0,0.0,0.0,0.0,0.0,0.0,0.0,0.0,0.0,0.0,0.0,0.0,0.0,0.0,0.0,0.0,0.0,0.0,0.0,0.0,0.0,0.0,0.0,0.0,0.0,0.0,0.0,0.0,0.0,0.0,0.0,0.0,0.0,0.0,0.0,0.0,0.0,0.0,0.0,0.0,0.0,0.0,0.0,0.0,0.0,0.0,0.0,0.0,0.0,0.0,0.0,0.0,0.0,0.0,0.0,0.0,0.0,0.0,0.0,0.7447,0.7672,0.787,0.7906,0.7906,0.0,0.0,0.0,0.0,0.0,0.0,0.0,0.0,0.0,0.0,0.0,0.0,0.0,0.0,0.0,0.0,0.0,0.0,0.0,0.0,0.0,0.0,0.0,0.0,0.0,0.0,0.0,0.0,0.0,0.0,0.0,0.0,0.0,0.0,0.0,0.0,0.0,0.0,0.0,0.0,0.0,0.0,0.0,0.0,0.0,0.0,0.0,0.0,0.0,0.0,0.0,0.0,0.0,0.0,0.0,0.0,0.0,0.0,0.0,0.0,0.0,0.0,0.0,0.0,0.0,0.0,0.0,0.0,0.0,0.0,0.0,0.0,0.0,0.0,0.0,0.0,0.0,0.0,0.0,0.0,0.0,0.0,0.0,0.0,0.0,0.0,0.0,0.0,0.0,0.0,0.0,0.0,0.0,0.0,0.0,0.0,0.0,0.0,0.0,0.0,0.0,0.0,0.0,0.0,0.0,0.0,0.0,0.0,0.0,0.7021,0.7407,0.7702,0.7892,0.7906,0.7906,0.0,0.0,0.0,0.0,0.0,0.0,0.0,0.0,0.0,0.0,0.0,0.0,0.0,0.0,0.0,0.0,0.0,0.0,0.0,0.0,0.0,0.0,0.0,0.0,0.0,0.0,0.0,0.0,0.0,0.0,0.0,0.0,0.0,0.0,0.0,0.0,0.0,0.0,0.0,0.0,0.0,0.0,0.0,0.0,0.0,0.0,0.0,0.0,0.0,0.0,0.0,0.0,0.0,0.0,0.0,0.0,0.0,0.0,0.0,0.0,0.0,0.0,0.0,0.0,0.0,0.0,0.0,0.0,0.0,0.0,0.0,0.0,0.0,0.0,0.0,0.0,0.0,0.0,0.0,0.0,0.0,0.0,0.0,0.0,0.0,0.0,0.0,0.0,0.0,0.0,0.0,0.0,0.0,0.0,0.0,0.0,0.0,0.0,0.0,0.0,0.0,0.0,0.0,0.0,0.0,0.0,0.0,0.0,0.0,0.7004,0.0,0.7702,0.0,0.7906,0.7906,0.0,0.0,0.0,0.0,0.0,0.0,0.0,0.0,0.0,0.0,0.0,0.0,0.0,0.0,0.0,0.0,0.0,0.0,0.0,0.0,0.0,0.0,0.0,0.0,0.0,0.0,0.0,0.0,0.0,0.0,0.0,0.0,0.0,0.0,0.0,0.0,0.0,0.0,0.0,0.0,0.0,0.0,0.0,0.0,0.0,0.0,0.0,0.0,0.0,0.0,0.0,0.0,0.0,0.0,0.0,0.0,0.0,0.0,0.0,0.0,0.0,0.0,0.0,0.0,0.0,0.0,0.0,0.0,0.0,0.0,0.0,0.0,0.0,0.0,0.0,0.0,0.0,0.0,0.0,0.0,0.0,0.0,0.0,0.0,0.0,0.0,0.0,0.0,0.0,0.0,0.0,0.0,0.0,0.0,0.0,0.0,0.0,0.0,0.0,0.0,0.0,0.0,0.0,0.0,0.0,0.0,0.0,0.0,0.6807,0.7201,0.7491,0.7731,0.7907,0.7921,0.7899,0.0,0.0,0.0,0.0,0.0,0.0,0.0,0.0,0.0,0.0,0.0,0.0,0.0,0.0,0.0,0.0,0.0,0.0,0.0,0.0,0.0,0.0,0.0,0.0,0.0,0.0,0.0,0.0,0.0,0.0,0.0,0.0,0.0,0.0,0.0,0.0,0.0,0.0,0.0,0.0,0.0,0.0,0.0,0.0,0.0,0.0,0.0,0.0,0.0,0.0,0.0,0.0,0.0,0.0,0.0,0.0,0.0,0.0,0.0,0.0,0.0,0.0,0.0,0.0,0.0,0.0,0.0,0.0,0.0,0.0,0.0,0.0,0.0,0.0,0.0,0.0,0.0,0.0,0.0,0.0,0.0,0.0,0.0,0.0,0.0,0.0,0.0,0.0,0.0,0.0,0.0,0.0,0.0,0.0,0.0,0.0,0.0,0.0,0.0,0.0,0.0,0.0,0.0,0.0,0.0,0.0,0.0,0.0,0.0,0.7469,0.7928,0.8281,0.8551,0.8162,0.8124,0.0,0.0,0.0,0.0,0.0,0.0,0.0,0.0,0.0,0.0,0.0,0.0,0.0,0.0,0.0,0.0,0.0,0.0,0.0,0.0,0.0,0.0,0.0,0.0,0.0,0.0,0.0,0.0,0.0,0.0,0.0,0.0,0.0,0.0,0.0,0.0,0.0,0.0,0.0,0.0,0.0,0.0,0.0,0.0,0.0,0.0,0.0,0.0,0.0,0.0,0.0,0.0,0.0,0.0,0.0,0.0,0.0,0.0,0.0,0.0,0.0,0.0,0.0,0.0,0.0,0.0,0.0,0.0,0.0,0.0,0.0,0.0,0.0,0.0,0.0,0.0,0.0,0.0,0.0,0.0,0.0,0.0,0.0,0.0,0.0,0.0,0.0,0.0,0.0,0.0,0.0,0.0,0.0,0.0,0.0,0.0,0.0,0.0,0.0,0.0,0.0,0.0,0.0,0.0,0.0,0.0,0.0,0.0,0.0,0.7707,0.8314,0.8738,0.8912,0.8477,0.8357,0.8507,0.0,0.0,0.0,0.0,0.0,0.0,0.0,0.0,0.0,0.0,0.0,0.0,0.0,0.0,0.0,0.0,0.0,0.0,0.0,0.0,0.0,0.0,0.0,0.0,0.0,0.0,0.0,0.0,0.0,0.0,0.0,0.0,0.0,0.0,0.0,0.0,0.0,0.0,0.0,0.0,0.0,0.0,0.0,0.0,0.0,0.0,0.0,0.0,0.0,0.0,0.0,0.0,0.0,0.0,0.0,0.0,0.0,0.0,0.0,0.0,0.0,0.0,0.0,0.0,0.0,0.0,0.0,0.0,0.0,0.0,0.0,0.0,0.0,0.0,0.0,0.0,0.0,0.0,0.0,0.0,0.0,0.0,0.0,0.0,0.0,0.0,0.0,0.0,0.0,0.0,0.0,0.0,0.0,0.0,0.0,0.0,0.0,0.0,0.0,0.0,0.0,0.0,0.0,0.0,0.0,0.0,0.0,0.0,0.7906,0.8757,0.9138,0.9014,0.8925,0.8619,0.0,0.0,0.0,0.0,0.0,0.0,0.0,0.0,0.0,0.0,0.0,0.0,0.0,0.0,0.0,0.0,0.0,0.0,0.0,0.0,0.0,0.0,0.0,0.0,0.0,0.0,0.0,0.0,0.0,0.0,0.0,0.0,0.0,0.0,0.0,0.0,0.0,0.0,0.0,0.0,0.0,0.0,0.0,0.0,0.0,0.0,0.0,0.0,0.0,0.0,0.0,0.0,0.0,0.0,0.0,0.0,0.0,0.0,0.0,0.0,0.0,0.0,0.0,0.0,0.0,0.0,0.0,0.0,0.0,0.0,0.0,0.0,0.0,0.0,0.0,0.0,0.0,0.0,0.0,0.0,0.0,0.0,0.0,0.0,0.0,0.0,0.0,0.0,0.0,0.0,0.0,0.0,0.0,0.0,0.0,0.0,0.0,0.0,0.0,0.0,0.0,0.0,0.0,0.0,0.0,0.0,0.0,0.0,0.0,0.9129,0.999,1.0302,0.9995,0.9045,0.8806,0.0,0.0,0.0,0.0,0.0,0.0,0.0,0.0,0.0,0.0,0.0,0.0,0.0,0.0,0.0,0.0,0.0,0.0,0.0,0.0,0.0,0.0,0.0,0.0,0.0,0.0,0.0,0.0,0.0,0.0,0.0,0.0,0.0,0.0,0.0,0.0,0.0,0.0,0.0,0.0,0.0,0.0,0.0,0.0,0.0,0.0,0.0,0.0,0.0,0.0,0.0,0.0,0.0,0.0,0.0,0.0,0.0,0.0,0.0,0.0,0.0,0.0,0.0,0.0,0.0,0.0,0.0,0.0,0.0,0.0,0.0,0.0,0.0,0.0,0.0,0.0,0.0,0.0,0.0,0.0,0.0,0.0,0.0,0.0,0.0,0.0,0.0,0.0,0.0,0.0,0.0,0.0,0.0,0.0,0.0,0.0,0.0,0.0,0.0,0.0,0.0,0.0,0.0,0.0,0.0,0.0,0.0,0.0,0.8752,0.9693,1.0215,1.0626,1.0933,0.9959,0.9413,0.0,0.0,0.0,0.0,0.0,0.0,0.0,0.0,0.0,0.0,0.0,0.0,0.0,0.0,0.0,0.0,0.0,0.0,0.0,0.0,0.0,0.0,0.0,0.0,0.0,0.0,0.0,0.0,0.0,0.0,0.0,0.0,0.0,0.0,0.0,0.0,0.0,0.0,0.0,0.0,0.0,0.0,0.0,0.0,0.0,0.0,0.0,0.0,0.0,0.0,0.0,0.0,0.0,0.0,0.0,0.0,0.0,0.0,0.0,0.0,0.0,0.0,0.0,0.0,0.0,0.0,0.0,0.0,0.0,0.0,0.0,0.0,0.0,0.0,0.0,0.0,0.0,0.0,0.0,0.0,0.0,0.0,0.0,0.0,0.0,0.0,0.0,0.0,0.0,0.0,0.0,0.0,0.0,0.0,0.0,0.0,0.0,0.0,0.0,0.0,0.0,0.0,0.0,0.0,0.0,0.0,0.0,0.0,0.8838,0.9968,1.0071,1.0651,1.1705,1.1077,1.0177,0.0,0.0,0.0,0.0,0.0,0.0,0.0,0.0,0.0,0.0,0.0,0.0,0.0,0.0,0.0,0.0,0.0,0.0,0.0,0.0,0.0,0.0,0.0,0.0,0.0,0.0,0.0,0.0,0.0,0.0,0.0,0.0,0.0,0.0,0.0,0.0,0.0,0.0,0.0,0.0,0.0,0.0,0.0,0.0,0.0,0.0,0.0,0.0,0.0,0.0,0.0,0.0,0.0,0.0,0.0,0.0,0.0,0.0,0.0,0.0,0.0,0.0,0.0,0.0,0.0,0.0,0.0,0.0,0.0,0.0,0.0,0.0,0.0,0.0,0.0,0.0,0.0,0.0,0.0,0.0,0.0,0.0,0.0,0.0,0.0,0.0,0.0,0.0,0.0,0.0,0.0,0.0,0.0,0.0,0.0,0.0,0.0,0.0,0.0,0.0,0.0,0.0,0.0,0.0,0.0,0.0,0.0,0.0,0.9027,1.0482,1.1136,1.1747,1.2321,1.0875,0.9966,0.0,0.0,0.0,0.0,0.0,0.0,0.0,0.0,0.0,0.0,0.0,0.0,0.0,0.0,0.0,0.0,0.0,0.0,0.0,0.0,0.0,0.0,0.0,0.0,0.0,0.0,0.0,0.0,0.0,0.0,0.0,0.0,0.0,0.0,0.0,0.0,0.0,0.0,0.0,0.0,0.0,0.0,0.0,0.0,0.0,0.0,0.0,0.0,0.9244,0.0,0.0,0.0,0.0,0.0,0.0,0.0,0.0,0.0,0.0,0.0,0.0,0.0,0.0,0.0,0.0,0.0,0.0,0.0,0.0,0.0,0.0,0.0,0.0,0.0,0.0,0.0,0.0,0.0,0.0,0.0,0.0,0.0,0.0,0.0,0.0,0.0,0.0,0.0,0.0,0.0,0.0,0.0,0.0,0.0,0.0,0.0,0.0,0.0,0.0,0.0,0.0,0.0,0.0,0.0,0.0,0.0,0.0,0.0,0.973,1.1087,1.1551,1.1977,1.2429,1.1362,1.0475,0.0,0.0,0.0,0.0,0.0,0.0,0.0,0.0,0.0,0.0,0.0,0.0,0.0,0.0,0.0,0.0,0.0,0.0,0.0,0.0,0.0,0.0,0.0,0.0,0.0,0.0,0.0,0.0,0.0,0.0,0.0,0.0,0.0,0.0,0.0,0.0,0.0,0.0,0.0,0.0,0.0,0.0,0.0,0.0,0.0,0.0,0.0,0.0,0.0,0.0,0.0,0.0,0.0,0.0,0.0,0.0,0.0,0.0,0.0,0.0,0.0,0.0,0.0,0.0,0.0,0.0,0.0,0.0,0.0,0.0,0.0,0.0,0.0,0.0,0.0,0.0,0.0,0.0,0.0,0.0,0.0,0.0,0.0,0.0,0.0,0.0,0.0,0.0,0.0,0.0,0.0,0.0,0.0,0.0,0.0,0.0,0.0,0.0,0.0,0.0,0.0,0.0,0.0,0.0,0.0,0.0,0.0,0.9315,1.037,1.154,1.1814,1.2141,1.2634,1.225,1.14,1.0092,0.0,0.0,0.0,0.0,0.0,0.0,0.0,0.0,0.0,0.0,0.0,0.0,0.0,0.0,0.0,0.0,0.0,0.0,0.0,0.0,0.0,0.0,0.0,0.0,0.0,0.0,0.0,0.0,0.0,0.0,0.0,0.0,0.0,0.0,0.0,0.0,0.0,0.0,0.8472,0.9538,0.0,0.0,0.0,0.0,0.0,0.0,0.0,0.0,1.0238,0.0,0.0,0.0,0.0,0.0,0.0,0.0,0.0,0.0,0.0,0.0,0.0,0.0,0.0,0.0,0.0,0.0,0.0,0.0,0.0,0.0,0.0,0.0,0.0,0.0,0.0,0.0,0.0,0.0,0.0,0.0,0.0,0.0,0.0,0.0,0.0,0.0,0.0,0.0,0.0,0.0,0.0,0.0,0.0,0.0,0.0,0.0,0.0,0.0,0.0,0.0,0.0,0.0,0.0,0.0,0.0,0.8926,0.9139,1.0007,1.1565,1.2736,1.3348,1.3336,1.3422,1.2574,1.0778,0.0,0.0,0.0,0.0,0.0,0.0,0.0,0.0,0.0,0.0,0.0,0.0,0.0,0.0,0.0,0.0,0.0,0.0,0.0,0.0,0.0,0.0,0.0,0.0,0.0,0.0,0.0,0.0,0.0,0.0,0.0,0.0,0.0,0.0,0.0,0.0,0.0,0.0,0.0,1.0417,1.1367,0.0,0.0,0.0,0.0,0.0,0.0,0.0,0.0,1.0443,0.0,0.0,0.0,0.0,0.0,0.0,0.0,0.0,0.0,0.0,0.0,0.0,0.0,0.0,0.0,0.0,0.0,0.0,0.0,0.0,0.0,0.0,0.0,0.0,0.0,0.0,0.0,0.0,0.0,0.0,0.0,0.0,0.0,0.0,0.0,0.0,0.0,0.0,0.0,0.0,0.0,0.0,0.0,0.0,0.0,0.0,0.0,0.0,0.0,0.0,0.0,0.0,0.0,0.0,0.0,0.8675,0.9491,1.0319,1.1123,1.2097,1.2756,1.3049,1.2499,1.1745,0.0,0.0,0.0,0.0,0.0,0.0,0.0,0.0,0.0,0.0,0.0,0.0,0.0,0.0,0.0,0.0,0.0,0.0,0.0,0.0,0.0,0.0,0.0,0.0,0.0,0.0,0.0,0.0,0.0,0.0,0.0,0.0,0.0,0.0,0.0,0.0,0.0,0.0,0.0,0.0,1.077,1.142,1.1125,0.0,0.0,0.0,0.0,0.0,0.0,1.1008,1.0876,0.0,0.0,0.0,0.0,0.0,0.0,0.0,0.0,0.0,0.0,0.0,0.0,0.0,0.0,0.0,0.0,0.0,0.0,0.0,0.0,0.0,0.0,0.0,0.0,0.0,0.0,0.0,0.0,0.0,0.0,0.0,0.0,0.0,0.0,0.0,0.0,0.0,0.0,0.0,0.0,0.0,0.0,0.0,0.0,0.0,0.0,0.0,0.0,0.0,0.0,0.0,0.0,0.0,0.0,0.0,0.8325,0.9767,1.0581,1.0706,1.1362,1.2046,1.2717,1.1581,1.0922,0.0,0.0,0.0,0.0,0.0,0.0,0.0,0.0,0.0,0.0,0.0,0.0,0.0,0.0,0.0,0.0,0.0,0.0,0.0,0.0,0.0,0.0,0.0,0.0,0.0,0.0,0.0,0.0,0.0,0.0,0.0,0.0,0.0,0.0,0.0,0.0,0.0,0.0,0.0,0.0,0.0,1.1696,1.1931,1.173,0.0,0.0,0.0,0.0,1.1828,1.1872,0.0,0.0,0.0,0.0,0.0,0.0,0.0,0.0,0.0,0.0,0.0,0.0,0.0,0.0,0.0,0.0,0.0,0.0,0.0,0.0,0.0,0.0,0.0,0.0,0.0,0.0,0.0,0.0,0.0,0.0,0.0,0.0,0.0,0.0,0.0,0.0,0.0,0.0,0.0,0.0,0.0,0.0,0.0,0.0,0.0,0.0,0.0,0.0,0.0,0.0,0.0,0.0,0.0,0.0,0.0,0.0,0.8324,0.9428,1.0206,1.0721,1.165,1.2392,1.2932,1.2184,1.1568,0.0,0.0,0.0,0.0,0.0,0.0,0.0,0.0,0.0,0.0,0.0,0.0,0.0,0.0,0.0,0.0,0.0,0.0,0.0,0.0,0.0,0.0,0.0,0.0,0.0,0.0,0.0,0.0,0.0,0.0,0.0,0.0,0.0,0.0,0.0,0.0,0.0,0.0,0.0,0.0,0.0,1.3374,1.1424,1.2291,1.2913,0.0,0.0,1.3259,1.3326,1.3887,0.0,0.0,0.0,0.0,0.0,0.0,0.0,0.0,0.0,0.0,0.0,0.0,0.0,0.0,0.0,0.0,0.0,0.0,0.0,0.0,0.0,0.0,0.0,0.0,0.0,0.0,0.0,0.0,0.0,0.0,0.0,0.0,0.0,0.0,0.0,0.0,0.0,0.0,0.0,0.0,0.0,0.0,0.0,0.0,0.0,0.0,0.0,0.0,0.0,0.0,0.0,0.0,0.0,0.0,0.0,0.8049,0.8313,0.9353,1.0018,1.0257,1.0672,1.1419,1.2501,1.1395,1.0905,0.0,0.0,0.0,0.0,0.0,0.0,0.0,0.0,0.0,0.0,0.0,0.0,0.0,0.0,0.0,0.0,0.0,0.0,0.0,0.0,0.0,0.0,0.0,0.0,0.0,0.0,0.0,0.0,0.0,0.0,0.0,0.0,0.0,0.0,0.0,0.0,0.0,0.0,0.0,0.0,0.0,0.0,1.2995,1.3604,0.0,0.0,0.0,1.4321,1.4869,0.0,0.0,0.0,0.0,0.0,0.0,0.0,0.0,0.0,0.0,0.0,0.0,0.0,0.0,0.0,0.0,0.0,0.0,0.0,0.0,0.0,0.0,0.0,0.0,0.0,0.0,0.0,0.0,0.0,0.0,0.0,0.0,0.0,0.0,0.0,0.0,0.0,0.0,0.0,0.0,0.0,0.0,0.0,0.0,0.0,0.0,0.0,0.0,0.0,0.0,0.0,0.0,0.0,0.0,0.0,0.0,0.0,0.8324,0.9366,0.9893,0.9893,0.9893,1.0518,1.175,1.0577,0.0,0.0,0.0,0.0,0.0,0.0,0.0,0.0,0.0,0.0,0.0,0.0,0.0,0.0,0.0,0.0,0.0,0.0,0.0,0.0,0.0,0.0,0.0,0.0,0.0,0.0,0.0,0.4549,0.0,0.0,0.0,0.0,0.0,0.0,0.0,0.0,0.0,0.0,0.0,0.0,0.0,0.0,1.2693,1.3845,1.4444,1.5097,0.0,0.0,1.5353,1.5841,1.5181,1.4338,0.0,0.0,0.0,0.0,0.0,0.0,0.0,0.0,0.0,0.0,0.0,0.0,0.0,0.0,0.0,0.0,0.0,0.0,0.0,0.0,0.0,0.0,0.0,0.0,0.0,0.0,0.0,0.0,0.0,0.0,0.0,0.0,0.0,0.0,0.0,0.0,0.0,0.0,0.0,0.0,0.0,0.0,0.0,0.0,0.0,0.0,0.0,0.0,0.0,0.0,0.0,0.0,0.0,0.0,0.0,0.8336,0.9341,0.9893,0.9893,0.9893,1.0169,1.0774,1.0209,0.9876,0.0,0.0,0.0,0.0,0.0,0.0,0.0,0.0,0.0,0.0,0.0,0.0,0.0,0.0,0.0,0.0,0.0,0.0,0.0,0.0,0.0,0.0,0.0,0.0,0.0,0.0,0.0,0.0,0.0,0.0,0.0,0.0,0.0,0.0,0.0,0.0,0.0,0.0,0.0,0.0,0.0,1.2721,1.2657,1.4195,1.5519,0.0,0.0,1.6525,1.5827,1.6868,1.6803,1.3893,0.0,0.0,0.0,0.0,0.0,0.0,0.0,0.0,0.0,0.0,0.0,0.0,0.0,0.0,0.0,0.0,0.0,0.0,0.0,0.0,0.0,0.0,0.0,0.0,0.0,0.0,0.0,0.0,0.0,0.0,0.0,0.0,0.0,0.0,0.0,0.0,0.0,0.0,0.0,0.0,0.0,0.0,0.0,0.0,0.0,0.0,0.0,0.0,0.0,0.0,0.0,0.0,0.0,0.8298,0.8311,0.9366,0.9893,0.9893,0.9893,1.0157,1.0695,1.0366,1.0059,0.0,0.0,0.0,0.0,0.0,0.0,0.0,0.0,0.0,0.0,0.0,0.0,0.0,0.0,0.0,0.0,0.0,0.0,0.0,0.0,0.0,0.0,0.0,0.0,0.0,0.0,0.0,0.0,0.5041,0.5897,0.7119,0.0,0.0,0.0,0.0,0.0,0.0,0.0,0.0,0.0,0.0,1.2865,1.319,1.436,0.0,0.0,1.5916,1.6258,1.7055,1.6445,1.5649,1.4937,1.4304,0.0,0.0,0.0,0.0,0.0,0.0,0.0,0.0,0.0,0.0,0.0,0.0,0.0,0.0,0.0,0.0,0.0,0.0,0.0,0.0,0.0,0.0,0.0,0.0,0.0,0.0,0.0,0.0,0.0,0.0,0.0,0.0,0.0,0.0,0.0,0.0,0.0,0.0,0.0,0.0,0.0,0.0,0.0,0.0,0.0,0.0,0.0,0.0,0.0,0.0,0.0,0.0,0.8298,0.8298,0.9366,0.9893,0.9893,0.9893,1.0081,1.0445,1.0315,1.0047,0.0,0.0,0.0,0.0,0.0,0.0,0.0,0.0,0.0,0.0,0.0,0.0,0.0,0.0,0.0,0.0,0.0,0.0,0.0,0.0,0.0,0.0,0.0,0.0,0.0,0.0,0.0,0.0,0.5813,0.6997,0.8628,0.0,0.0,0.0,0.0,0.0,0.0,0.0,0.0,0.0,0.0,1.3186,1.3949,1.4803,1.5557,1.6066,1.612,1.6555,1.7884,1.6885,1.5967,1.6034,0.0,0.0,0.0,0.0,0.0,0.0,0.0,0.0,0.0,0.0,0.0,0.0,0.0,0.0,0.0,0.0,0.0,0.0,0.0,0.0,0.0,0.0,0.0,0.0,0.0,0.0,0.0,0.0,0.0,0.0,0.5904,0.0,0.0,0.0,0.0,0.0,0.0,0.0,0.0,0.0,0.0,0.0,0.0,0.0,0.0,0.0,0.0,0.0,0.0,0.0,0.0,0.0,0.0,0.8311,0.8313,0.9378,0.9905,0.9893,0.9893,0.9893,0.9918,0.9905,0.9754,0.9426,0.0,0.0,0.0,0.0,0.0,0.0,0.0,0.0,0.0,0.0,0.0,0.0,0.0,0.0,0.0,0.0,0.0,0.0,0.0,0.0,0.0,0.0,0.0,0.0,0.0,0.0,0.618,0.6881,0.7658,0.0,0.0,0.0,0.0,0.0,0.0,0.0,0.0,0.0,0.0,1.293,1.376,1.4751,1.551,1.6256,1.703,1.7423,1.7749,1.8064,1.8658,1.8665,0.0,0.0,0.0,0.0,0.0,0.0,0.0,0.0,0.0,0.0,0.0,0.0,0.0,0.0,0.0,0.0,0.0,0.0,0.0,0.0,0.0,0.0,0.0,0.0,0.0,0.0,0.0,0.7647,0.6813,0.0,0.0,0.0,0.0,0.0,0.0,0.0,0.0,0.0,0.0,0.0,1.0168,1.0344,0.0,0.0,0.0,0.0,0.0,0.0,0.0,0.0,0.0,0.0,0.0,0.0,0.8837,0.8876,0.9905,1.0256,0.9905,0.9893,0.9893,0.9893,0.9893,0.9741,0.9403,0.0,0.0,0.0,0.0,0.0,0.0,0.0,0.0,0.0,0.0,0.0,0.0,0.0,0.0,0.0,0.0,0.0,0.0,0.0,0.0,0.0,0.0,0.0,0.0,0.0,0.7506,0.0,0.0,0.0,0.0,0.0,0.0,0.0,0.0,0.0,0.0,0.0,1.2736,1.2999,1.4082,1.5174,1.5977,1.6295,1.6618,0.0,0.0,0.0,0.0,0.0,0.0,0.0,0.0,0.0,0.0,0.0,0.0,0.0,0.0,1.7538,1.5277,1.4638,1.4498,1.4644,0.0,0.0,0.0,0.0,0.0,0.0,0.0,0.0,0.0,0.0,0.0,0.0,0.0,0.0,0.8364,0.0,0.7378,0.0,0.0,0.0,0.0,0.0,0.0,0.0,0.0,1.0007,1.0685,1.078,1.0975,1.0914,0.0,1.0248,0.9198,0.0,0.0,0.0,0.0,0.0,0.0,0.0,0.0,0.929,0.9139,1.0143,1.0432,0.9918,0.9893,0.9893,0.9893,0.9893,0.9805,0.9582,0.8928,0.8544,0.0,0.0,0.0,0.0,0.0,0.0,0.0,0.0,0.0,0.0,0.0,0.0,0.0,0.0,0.0,0.0,0.0,0.0,0.0,0.0,0.0,0.0,0.0,0.8094,0.0,0.0,0.0,0.0,0.0,0.0,0.0,0.0,0.0,1.0196,1.2189,1.3747,1.399,1.4939,1.6035,1.7281,0.0,0.0,0.0,0.0,0.0,0.0,0.0,1.9074,1.9844,1.9263,1.8475,1.7886,1.8293,1.8619,1.8286,0.0,0.0,1.6873,1.6216,1.6072,1.62,1.6218,1.6244,1.6322,1.6613,1.6816,0.0,0.0,0.0,0.0,0.0,0.0,0.0,0.0,0.9228,0.9166,0.0,0.8352,0.0,0.0,0.0,0.0,0.0,0.9351,0.0,0.0,1.0937,1.1496,1.1031,1.1561,1.134,1.052,1.0843,1.0239,0.8818,0.8773,0.0,0.0,0.0,0.0,0.0,0.0,0.9679,0.9226,1.0206,1.0469,0.9918,0.9893,0.9905,0.9931,0.9931,0.9943,0.9931,0.9609,0.9189,0.8683,0.7854,0.0,0.0,0.0,0.0,0.0,0.0,0.0,0.0,0.0,0.0,0.0,0.0,0.0,0.0,0.0,0.0,0.0,0.0,0.0,0.0,0.7906,0.0,0.0,0.0,0.0,0.0,0.0,0.0,0.0,0.0,0.0,1.0775,1.2691,1.4443,1.5159,0.0,0.0,0.0,0.0,1.7667,1.9987,2.0378,2.0437,2.0666,2.0746,2.0541,1.9863,0.0,0.0,1.7573,1.8393,1.8936,1.7958,1.8621,1.939,1.9632,1.8922,1.8446,1.8458,1.8407,1.8506,1.8574,1.8971,1.959,1.2145,0.0,0.0,0.0,0.0,1.0528,1.0627,1.0775,1.0885,1.0695,1.0222,0.9493,0.0,0.0,0.0,0.0,0.0,0.0,1.0477,1.0918,1.1769,1.2246,1.2393,1.2282,1.2096,1.182,1.1641,1.111,1.0298,1.0274,0.9629,0.8394,0.0,0.0,0.0,0.0,1.0822,1.0319,1.0973,1.0872,0.9931,0.9893,1.0094,1.0469,1.0456,1.0657,1.11,1.0235,0.9752,0.9729,0.8425,0.0,0.0,0.0,0.0,0.0,0.0,0.0,0.0,0.0,0.0,0.0,0.0,0.0,0.0,0.0,0.0,0.0,0.0,0.0,0.7839,0.7906,0.8109,0.0,0.0,0.0,0.0,0.0,0.0,0.0,0.0,0.0,1.2187,1.4165,1.5752,0.0,0.0,1.8461,1.9847,1.9479,1.9312,2.0025,2.0139,0.0,0.0,1.9606,1.9872,2.0214,2.0023,1.9637,1.9133,1.8922,1.8771,1.8654,1.8868,1.9166,1.9383,1.9249,1.9124,1.9243,1.9282,1.932,1.9416,1.9658,1.9773,1.4007,1.2646,1.2051,1.1855,1.1934,1.1921,1.2015,1.2103,1.2135,1.2044,1.1885,1.1024,1.0498,1.0215,0.9357,0.0,0.0,0.0,1.1124,1.1664,1.1908,1.2181,1.2404,1.2203,1.2087,1.2066,1.1821,1.145,1.0899,1.112,1.0608,0.9422,0.0,0.0,1.0267,1.1167,1.1443,1.1096,1.1399,1.1148,1.0231,0.9993,1.027,1.1023,1.0833,1.1084,1.1864,1.0834,1.0272,1.0365,0.9148,0.8402,0.0,0.0,0.0,0.0,0.0,0.0,0.0,0.0,0.0,0.0,0.0,0.5008,0.4369,0.0,0.0,0.0,0.691,0.7869,0.8259,0.8529,0.0,0.0,0.0,0.0,0.0,0.0,0.0,1.0718,1.1951,1.2878,1.3202,1.4973,1.6319,1.6554,1.7302,1.8447,2.0099,0.0,1.927,1.9642,1.9879,1.9963,1.9819,1.9665,1.975,2.0232,2.0176,1.9731,1.9091,1.9205,1.9536,1.9728,1.9858,1.9984,2.0248,2.0288,2.0081,1.9593,1.9485,1.9595,1.9977,2.0065,1.997,1.5879,1.5449,1.463,1.4026,1.3623,1.3578,1.3369,1.2978,1.2978,1.3203,1.3461,1.2671,1.2291,1.2203,1.1404,0.0,1.1753,1.1731,1.1792,1.1812,1.1773,1.1753,1.1731,1.1694,1.1633,1.1665,1.1616,1.1369,1.0987,1.146,1.1439,1.0946,1.0514,1.0512,1.0979,1.1597,1.1822,1.1726,1.1741,1.1399,1.0706,1.0219,1.047,1.1565,1.1008,1.1234,1.2316,1.1297,1.0708,1.067,0.9841,0.9154,0.8662,0.0,0.0,0.0,0.0,0.0,0.0,0.0,0.0,0.0,0.0,0.0,0.0,0.0,0.0,0.0,0.8109,0.0,0.8972,0.9578,0.0,0.0,0.0,0.9985,1.0054,1.0484,1.0872,1.1022,0.0,0.0,1.3959,1.5318,1.6272,1.6338,1.6337,1.7228,1.968,1.8838,1.822,1.9277,1.9694,2.0199,2.0655,2.0339,1.9972,2.0022,2.0221,1.9791,1.8586,1.9428,2.0653,2.0802,2.1085,2.1273,2.1643,2.1543,2.1239,1.9772,1.9546,1.9764,2.0451,2.0635,2.0441,1.6514,1.6375,1.6171,1.5488,1.4492,1.451,1.4238,1.3821,1.3812,1.386,1.3919,1.3412,1.3018,1.2715,1.2524,1.2637,1.3062,1.3037,1.3213,1.3496,1.3203,1.3047,1.3032,1.2359,1.2047,1.2041,1.1741,1.1547,1.1449,1.1557,1.1554,1.1469,1.1775,1.2174,1.2645,1.3231,1.3296,1.2822,1.2826,1.2121,1.0744,1.0582,1.0845,1.1578,1.1008,1.1234,1.2341,1.1309,1.0708,1.0682,0.9717,0.9119,0.8979,0.8168,0.0,0.0,0.0,0.0,0.0,0.0,0.0,0.0,0.0,0.6934,0.5744,0.0,0.7623,0.0,0.8109,0.9115,0.9614,1.0234,0.0,0.0,1.0574,1.0778,1.1296,1.1017,1.1405,1.2915,1.3513,1.4184,1.5185,1.5675,1.5942,1.5955,1.6856,1.7969,1.9207,1.8999,1.8895,1.9534,1.961,1.9617,1.987,1.9952,2.0035,1.9985,2.0081,1.9954,1.9553,1.9843,2.0264,2.0483,2.0575,2.0721,2.1043,2.1041,2.1064,2.086,2.1033,2.1262,2.1482,2.1473,2.1445,1.7545,1.7525,1.734,1.6768,1.5958,1.5732,1.5518,1.5264,1.5264,1.5176,1.4951,1.4346,1.3838,1.3447,1.3437,1.3564,1.3753,1.3779,1.388,1.4085,1.386,1.3656,1.3486,1.3003,1.2681,1.251,1.2266,1.2074,1.191,1.2368,1.2517,1.233,1.3157,1.371,1.3944,1.4051,1.4051,1.3955,1.3466,1.2526,1.1159,1.1098,1.136,1.1927,1.165,1.1861,1.271,1.1698,1.1096,1.1086,1.0057,0.934,0.9113,0.8729,0.8363,0.0,0.0,0.0,0.0,0.0,0.0,0.0,0.0,0.0,0.0,0.0,0.8229,0.8432,0.9131,0.9889,1.0673,1.1057,1.1241,1.1266,1.1241,1.1495,1.2164,1.191,1.2239,1.3633,1.4064,1.4513,1.526,1.5845,1.6204,1.6218,1.7134,1.7772,1.7728,1.8053,1.8629,1.9205,1.9378,1.9599,2.009,2.0659,2.1028,2.1028,2.1028,2.1028,2.1028,2.1028,2.1064,2.1221,2.1351,2.1526,2.1808,2.1869,2.1936,2.2107,2.2293,2.2376,2.2346,2.2336,2.2409,1.8646,1.8568,1.8217,1.7842,1.7432,1.7061,1.6804,1.6697,1.6697,1.6514,1.6134,1.5381,1.4824,1.4418,1.4377,1.4348,1.4348,1.4289,1.427,1.427,1.4211,1.3997,1.3682,1.3613,1.3398,1.3071,1.3013,1.2764,1.2402,1.3325,1.3565,1.3222,1.4224,1.4809,1.4849,1.4413,1.442,1.4884,1.386,1.2814,1.1839,1.1879,1.2102,1.2475,1.2425,1.2588,1.2947,1.209,1.1565,1.145,1.0622,0.9868,0.934,0.9417,0.9158,0.0,0.8118,0.0,0.0,0.0,0.0,0.0,0.0,0.0,0.0,0.8679,0.9252,1.0391,1.0545,1.0954,1.1854,1.201,1.2059,1.2059,1.2134,1.24,1.2864,1.2924,1.3193,1.3855,1.4438,1.4826,1.5126,1.6025,1.6696,1.6846,1.7311,1.7374,1.6488,1.7234,1.8229,1.8674,1.9235,2.0054,2.0977,2.1781,2.2226,2.2262,2.2195,2.2313,2.2212,2.2229,2.2262,2.2287,2.2371,2.2656,2.3021,2.3022,2.3052,2.3012,2.3029,2.3014,2.3002,2.3023,2.3326,1.8965,1.8598,1.851,1.8237,1.7891,1.7803,1.734,1.6697,1.6697,1.6658,1.657,1.6404,1.6287,1.618,1.5859,1.5703,1.5703,1.5322,1.5166,1.5156,1.4824,1.4629,1.4521,1.4189,1.3948,1.3851,1.3545,1.335,1.3262,1.3129,1.303,1.2973,1.3689,1.4238,1.4719,0.0,0.0,0.0,1.4261,1.3584,1.2952,1.3375,1.3438,1.3065,1.2626,0.0,1.1914,1.1716,1.1374,1.0908,1.1136,0.0,0.0,0.0,0.0,0.0,0.0,0.0,0.0,0.0,0.0,0.0,0.9902,0.9506,0.9484,1.0188,1.0775,1.1025,1.1355,1.181,1.2523,1.3107,1.3436,1.3451,1.3899,1.4079,1.3705,1.3603,1.387,1.4541,1.4736,1.5216,1.6174,1.6562,1.6936,1.7428,1.7623,1.7593,1.7385,1.7994,1.8744,1.9394,2.013,2.0839,2.1427,2.1977,2.2313,2.2313,2.2313,2.2313,2.2313,2.2313,2.2313,2.2313,2.2349,2.2388,2.2484,2.2467,2.2554,2.2746,2.2797,2.2888,2.3104,2.3372,2.3604,1.9473,0.0,1.9043,1.8828,0.0,1.8408,1.8042,1.7623,1.7418,1.7213,1.7041,1.6794,1.6697,1.6687,1.6494,1.6396,1.6367,1.5937,1.5732,1.5743,1.5293,1.498,1.4813,1.4533,1.4319,1.4094,1.388,1.3685,1.3506,1.3596,1.3547,1.3382,1.3944,1.4426,1.4727,1.4552,1.4469,1.4513,1.4242,1.3833,1.3235,1.3496,1.3521,1.3198,0.0,0.0,0.0,0.0,0.0,0.0,0.0,0.0,0.0,0.0,0.0,1.0346,1.0082,1.0057,1.0308,1.0346,1.064,1.1316,1.1324,1.092,1.003,1.0552,1.1172,1.1651,1.1831,1.2248,1.304,1.3167,1.3167,1.3167,1.3453,1.3707,1.3912,1.3953,1.4416,1.5517,1.5755,1.6114,1.7055,1.7503,1.7803,1.8162,1.8493,1.8657,1.8672,1.8687,1.8994,1.986,2.0747,2.1353,2.1598,2.2003,2.2313,2.2313,2.2313,2.2313,2.2313,2.2313,2.2313,2.2313,2.2313,2.2313,2.2313,2.2313,2.2349,2.2463,2.25,2.2541,2.276,2.3259,2.3746,1.998,1.9883,1.9541,1.9365,1.9258,1.887,1.8715,1.8685,0.0,0.0,0.0,1.7119,1.6931,1.6921,1.6853,1.6814,1.6785,1.6387,1.6163,1.6085,1.5693,1.5303,1.4912,1.4902,1.4717,1.4338,1.426,1.4046,1.3756,1.4205,1.4237,1.3987,1.4443,1.4732,1.4796,1.4538,1.4337,1.4223,1.4166,1.3853,1.3391,1.3453,1.3453,1.3348,1.3366,1.3265,1.3077,1.271,1.2488,1.2404,1.2077,1.1854,1.1754,1.1754,1.1688,1.16,1.1603,1.1653,1.1726,1.1738,1.1776,1.1892,1.2203,1.1888,1.0675,1.0886,1.1415,1.2258,1.2179,1.2469,1.3387,1.3018,1.2745,1.284,1.295,1.3427,1.4328,1.4558,1.524,1.656,1.6861,1.713,1.7772,1.8296,1.8762,1.8912,1.9271,1.9723,1.9648,1.9211,1.9213,2.0016,2.0716,2.1306,2.1414,2.172,2.2077,2.212,2.2152,2.2209,2.2282,2.2313,2.2313,2.2313,2.2313,2.2313,2.2313,2.2313,2.2313,2.2313,2.2313,2.2324,2.2429,2.2987,2.3544,2.0254,1.9902,1.9853,1.9619,1.9277,1.9219,1.9199,1.9131,1.835,1.7944,1.792,1.7852,1.7832,1.7803,1.7451,1.7295,1.7266,1.6836,1.6426,1.6095,1.6036,1.5772,1.5332,1.5322,1.5293,1.5205,1.4863,1.4658,1.4604,1.4466,1.4384,1.4363,1.4573,1.4732,1.4844,1.5245,1.5248,1.4802,1.4337,1.406,1.3984,1.4419,1.4431,1.3997,1.3959,1.3488,1.258,1.2872,1.286,1.2438,1.276,1.2776,1.2312,1.2303,1.2077,1.1653,1.1603,1.1789,1.2253,1.2291,1.2488,1.2902,1.2613,1.2303,1.2137,1.2399,1.2646,1.2802,1.2549,1.2729,1.339,1.3415,1.3551,1.4106,1.4614,1.5152,1.5673,1.6102,1.6624,1.7391,1.7564,1.7802,1.8448,1.8672,1.8972,1.9405,1.9618,1.9723,1.9693,1.9633,1.9606,1.9788,2.0176,2.0434,2.0617,2.091,2.1338,2.1642,2.1703,2.1868,2.2254,2.2313,2.2313,2.2313,2.2313,2.2313,2.2313,2.2313,2.2313,2.2313,2.2313,2.2363,2.2523,2.2776,2.2915,2.0488,2.0283,2.0264,2.0194,1.9999,1.9727,1.9492,1.9258,1.8877,1.8564,1.8295,1.8115,1.8008,1.7988,1.7812,1.7734,1.7705,1.7285,1.6973,1.678,1.632,1.5997,1.5752,1.5527,1.542,1.54,1.5215,1.501,1.4839,1.5061,1.5095,1.4873,1.5338,1.5484,1.5267,1.5541,1.56,1.5316,1.4796,1.4374,1.4116,1.4337,1.4198,1.3652,1.3609,1.3383,1.2864,1.3077,1.3085,1.2852,1.3073,1.3073,1.2864,1.2822,1.2726,1.2488,1.2463,1.2576,1.2826,1.2822,1.2935,1.3173,1.296,1.2822,1.2839,1.2697,1.2631,1.2644,1.2745,1.2979,1.3314,1.3631,1.3965,1.4235,1.4769,1.5278,1.57,1.598,1.6564,1.7589,1.7817,1.817,1.9148,1.9241,1.9316,1.9663,1.9723,1.9723,1.9723,1.9723,1.9723,1.9744,2.0035,2.0263,2.0314,2.0698,2.1039,2.126,2.146,2.1779,2.2211,2.2313,2.2313,2.2313,2.2313,2.2313,2.2313,2.2313,2.2313,2.2313,2.2313,2.2377,2.245,2.249,2.263,2.0693,2.0615,2.0615,2.0615,2.0576,2.0205,1.9873,1.957,1.9473,1.9238,1.8851,1.8354,1.8144,1.811,1.8057,1.8008,1.7959,1.7676,1.7461,1.7314,1.6711,1.629,1.6075,1.5703,1.5498,1.543,1.542,1.5244,1.5064,1.5708,1.5981,1.5783,1.6326,1.6351,1.582,1.5851,1.5881,1.5856,1.5487,1.4966,1.4317,1.416,1.3866,1.3441,1.329,1.321,1.321,1.321,1.321,1.321,1.321,1.321,1.321,1.321,1.321,1.321,1.321,1.321,1.321,1.321,1.321,1.321,1.321,1.3248,1.3341,1.3044,1.278,1.2831,1.3187,1.3463,1.367,1.3997,1.4292,1.4299,1.4765,1.5299,1.5662,1.5824,1.641,1.7674,1.8049,1.8521,1.9258,1.9621,1.9693,1.9693,1.9723,1.972,1.9854,1.9914,1.9944,2.0107,2.0193,2.0139,2.0177,2.0416,2.0682,2.0797,2.107,2.146,2.1915,2.2211,2.2313,2.2313,2.2313,2.2313,2.2313,2.2313,2.2313,2.2313,2.2313,2.231,2.2324,2.2324,2.247,2.0937,2.0625,2.0625,2.0615,2.0595,2.0546,2.0498,2.0419,2.0029,1.9844,1.966,1.8909,1.8539,1.849,1.8184,1.8027,1.8008,1.7969,1.7744,1.7455,1.7337,1.6877,1.6173,1.6056,1.5831,1.5469,1.542,1.5439,1.5408,1.6309,1.6878,1.7171,1.7275,1.701,1.6485,1.6416,1.6412,1.6425,1.6362,1.5856,1.4859,1.4337,1.406,1.4009,1.3478,1.321,1.3248,1.321,1.321,1.321,1.321,1.321,1.321,1.321,1.321,1.321,1.321,1.321,1.321,1.321,1.3235,1.321,1.3248,1.3496,1.3946,1.3959,1.3952,1.3946,1.3972,1.418,1.4676,1.4802,1.4808,1.4853,1.5299,1.5827,1.6291,1.6837,1.739,1.7989,1.8399,1.8873,1.901,1.9424,1.969,1.9813,1.9842,2.0019,2.0513,2.0617,2.0778,2.1051,2.0603,1.9948,1.9921,1.9797,2.0218,2.0454,2.0462,2.0957,2.1627,2.2072,2.2364,2.2837,2.2499,2.2533,2.2398,2.2313,2.2347,2.2465,2.2431,2.2347,2.2313,2.2313,2.2422,2.1357,2.0967,2.0967,2.0801,2.0625,2.0615,2.0615,2.0576,2.041,2.0293,2.0225,1.9658,1.9085,1.8607,1.8422,1.8217,1.8018,1.8008,1.793,1.7734,1.751,1.722,1.6868,1.631,1.5987,1.5841,1.5965,1.6036,1.628,1.7311,1.8063,1.826,1.8041,1.7589,1.7049,1.6685,1.6513,1.6513,1.6513,1.6274,1.5844,1.5324,1.4903,1.4588,1.4343,1.4036,1.3778,1.374,1.3559,1.3235,1.321,1.321,1.321,1.321,1.321,1.321,1.321,1.321,1.321,1.3504,1.374,1.3727,1.4042,1.4318,1.4538,1.4576,1.4702,1.4947,1.4765,1.4676,1.4896,1.5185,1.5387,1.5449,1.5844,1.6254,1.6483,1.6696,1.7034,1.7578,1.8092,1.8574,1.8893,1.9369,1.9836,2.0168,2.0288,2.0557,2.1156,2.1291,2.1395,2.156,2.1186,2.0951,2.0846,2.0872,2.0956,2.1076,2.1335,2.1688,2.1741,2.2077,2.2617,2.3701,2.3716,2.341,2.3038,2.297,2.2953,2.2953,2.297,2.297,2.297,2.2615,2.2378,2.1807,2.1395,2.1289,2.0977,2.0615,2.0615,2.0615,2.0615,2.0615,2.0615,2.0576,2.0234,1.9687,1.9007,1.8841,1.8549,1.8213,1.8149,1.8081,1.7988,1.7686,1.749,1.7357,1.678,1.632,1.6166,1.6274,1.6522,1.6888,1.807,1.8804,1.8909,1.8594,1.8078,1.7423,1.6936,1.6651,1.6513,1.6513,1.6513,1.6437,1.6132,1.5676,1.516,1.4979,1.4714,1.4337,1.4311,1.4135,1.3704,1.3667,1.3667,1.3667,1.3667,1.3684,1.3667,1.3667,1.3679,1.3684,1.4067,1.4311,1.4368,1.4702,1.4972,1.5085,1.5123,1.5354,1.5793,1.5563,1.5361,1.5379,1.568,1.5894,1.5957,1.6274,1.65,1.6509,1.6513,1.6659,1.7055,1.7558,1.8151,1.8812,1.9512,2.0198,2.0554,2.0838,2.1231,2.1784,2.1979,2.2009,2.2194,2.2218,2.2024,2.1799,2.159,2.1695,2.1739,2.1872,2.1952,2.2108,2.2329,2.2737,2.3797,2.4521,2.4711,2.3917,2.3697,2.3697,2.3697,2.3712,2.3712,2.3712,2.3154,2.2902,2.2236,2.1826,2.1366,2.1006,2.0625,2.0635,2.0625,2.0654,2.0615,2.0615,2.0615,2.0566,2.0273,1.9814,1.9453,1.9023,1.8598,1.8539,1.8334,1.8037,1.7969,1.7764,1.7393,1.7324,1.6917,1.6251,1.6286,1.6746,1.7606,1.834,1.8816,1.8996,1.8958,1.8442,1.7589,1.7363,1.7061,1.6635,1.6525,1.6513,1.65,1.6463,1.6162,1.568,1.5198,1.4966,1.4878,1.4846,1.4821,1.4815,1.4745,1.4758,1.4783,1.4771,1.4745,1.4758,1.4771,1.4771,1.4745,1.4808,1.4865,1.489,1.4959,1.5135,1.5605,1.5668,1.5861,1.6387,1.6337,1.6312,1.6312,1.6321,1.64,1.64,1.6463,1.6513,1.6513,1.6513,1.6513,1.6637,1.7076,1.7828,1.8784,1.9944,2.0504,2.084,2.1252,2.1889,2.2463,2.2658,2.2868,2.3206,2.3295,2.3086,2.2024,2.1994,2.1919,2.1989,2.2219,2.2056,2.235,2.2738,2.3294,2.4083,2.5346,2.5627,2.4814,2.444,2.444,2.444,2.4457,2.4457,2.4457,2.4051,2.3848,2.2623,2.2256,2.1826,2.1553,2.1387,2.1113,2.0996,2.0967,2.0674,2.0615,2.0615,2.0615,2.0517,2.0351,2.0214,1.9561,1.8646,1.8598,1.8383,1.8037,1.8008,1.792,1.7773,1.7519,1.7288,1.701,1.7132,1.7707,1.8691,1.9226,1.9441,1.9421,1.9158,1.8782,1.838,1.7714,1.7297,1.7061,1.6722,1.6513,1.6513,1.6513,1.64,1.6245,1.6045,1.5756,1.5424,1.5392,1.5261,1.4909,1.4896,1.4884,1.4884,1.4884,1.4884,1.4884,1.4884,1.4884,1.4921,1.5236,1.5424,1.5449,1.5743,1.5969,1.6149,1.622,1.6287,1.645,1.6513,1.6513,1.6513,1.6513,1.6513,1.6513,1.6513,1.6513,1.6513,1.6513,1.6513,1.6586,1.6972,1.7719,1.8744,1.9669,2.0464,2.1243,2.1913,2.2557,2.3071,2.3266,2.334,2.3505,2.358,2.3445,2.3086,2.2936,2.2921,2.2921,2.2999,2.3238,2.348,2.3248,2.3616,2.4406,2.5801,2.6067,2.5128,2.5138,2.5154,2.5202,2.5202,2.5186,2.5186,2.4829,2.4728,2.2847,2.2457,2.2217,2.2012,2.1836,2.1375,2.12,2.1142,2.0762,2.0615,2.0615,2.0615,2.0615,2.0615,2.0615,2.0039,1.9075,1.9007,1.8705,1.8252,1.8213,1.8144,1.7988,1.7715,1.751,1.752,1.7989,1.8559,1.9076,1.9734,1.9961,1.9773,1.9409,1.9183,1.8895,1.8254,1.7852,1.7601,1.7087,1.681,1.6773,1.6575,1.6513,1.65,1.6513,1.6358,1.5969,1.5957,1.5806,1.5467,1.5424,1.5424,1.5424,1.5424,1.5424,1.5404,1.5437,1.5412,1.5462,1.5756,1.5957,1.5969,1.6262,1.6513,1.6513,1.6513,1.6513,1.6513,1.6513,1.6513,1.6513,1.6513,1.6513,1.6513,1.6513,1.6513,1.6513,1.6513,1.6513,1.6611,1.7178,1.7963,1.8893,1.9885,2.0893,2.1895,2.2592,2.3176,2.349,2.3595,2.3595,2.3595,2.3595,2.3595,2.3415,2.334,2.334,2.3355,2.334,2.3767,2.3948,2.3745,2.3943,2.4796,2.5354,2.5649,2.5797,2.5799,2.5848,2.5897,2.5947,2.5947,2.5812,2.5625,2.5574,2.2857,2.2568,2.251,2.2314,2.1963,2.1502,2.1249,2.126,2.081,2.0693,2.0703,2.0625,2.0615,2.0615,2.0615,2.0303,1.9932,1.9853,1.9377,1.8656,1.8568,1.8364,1.8076,1.7978,1.7764,1.753,1.8568,1.8822,1.8604,1.9882,2.0365,1.9924,1.9786,1.951,1.9045,1.8907,1.8657,1.8204,1.7687,1.741,1.7335,1.6873,1.6588,1.6563,1.6525,1.6488,1.645,1.645,1.6412,1.6412,1.6421,1.6475,1.6375,1.6362,1.6437,1.6362,1.6425,1.645,1.6425,1.6412,1.6412,1.6412,1.6488,1.6513,1.6513,1.6513,1.6513,1.6513,1.6513,1.6513,1.6513,1.6513,1.6513,1.6513,1.6513,1.6513,1.6513,1.6525,1.6538,1.6762,1.7523,1.8377,1.923,2.038,2.1542,2.2277,2.3048,2.3505,2.358,2.3595,2.3595,2.3595,2.3595,2.3595,2.3595,2.3595,2.358,2.358,2.355,2.3702,2.373,2.3616,2.3745,2.445,2.507,2.5419,2.6097,2.6135,2.6337,2.6437,2.6539,2.6505,2.6336,2.6183,2.6336,2.3013,2.2906,2.2896,2.2828,2.2695,2.2295,2.2109,2.2031,2.1348,2.1025,2.0977,2.0742,2.0615,2.0615,2.0605,2.0527,2.04,2.0342,1.9902,1.916,1.8754,1.8549,1.8398,1.8135,1.7949,1.8012,1.8987,1.9435,1.9478,2.0257,2.0578,2.039,1.9987,1.9736,1.9497,1.9183,1.8882,1.8707,1.8229,1.7953,1.7903,1.74,1.7124,1.7074,1.6748,1.6513,1.6513,1.6513,1.6513,1.6513,1.6513,1.6513,1.6513,1.6513,1.6513,1.6513,1.6513,1.6513,1.6513,1.6513,1.6513,1.6513,1.6513,1.6513,1.6513,1.6513,1.6513,1.6513,1.6513,1.6513,1.6513,1.6513,1.6563,1.6513,1.6513,1.655,1.6651,1.6898,1.7262,1.7626,1.8002,1.8416,1.9097,2.0359,2.1437,2.2128,2.2988,2.3573,2.3595,2.3595,2.3595,2.3595,2.3595,2.3595,2.3595,2.3625,2.367,2.3684,2.3684,2.361,2.3595,2.3616,2.3752,2.4137,2.4752,2.5373,2.605,2.647,2.6641,2.6708,2.664,2.664,2.6691,2.6708,2.6708,2.3101,2.3101,2.3101,2.3101,2.3052,2.2685,2.251,2.2412,2.1777,2.1484,2.1377,2.1006,2.082,2.0781,2.0683,2.0615,2.0615,2.0615,2.0312,1.9793,1.9307,1.9108,1.9103,1.9025,1.8977,1.9158,2.0044,2.038,2.0236,2.0913,2.1106,2.0679,2.0327,1.9999,1.9811,1.9484,1.9284,1.9208,1.8794,1.8481,1.8381,1.7978,1.77,1.7639,1.7325,1.7162,1.7114,1.6939,1.6713,1.655,1.6513,1.6513,1.6513,1.6513,1.6513,1.6513,1.6513,1.6513,1.6513,1.6513,1.6513,1.6513,1.6513,1.6513,1.6513,1.6513,1.6563,1.6798,1.6861,1.6901,1.7112,1.714,1.7127,1.7149,1.6974,1.6961,1.7124,1.7463,1.7777,1.8103,1.8378,1.8849,1.969,2.0472,2.1508,2.2292,2.3069,2.3595,2.3595,2.3595,2.3625,2.3625,2.3595,2.3595,2.3595,2.3655,2.3729,2.3774,2.3804,2.3684,2.3595,2.3595,2.3702,2.4261,2.4867,2.537,2.5997,2.6436,2.6708,2.6708,2.6708,2.6708,2.6708,2.6708,2.6725,2.3101,2.3101,2.3101,2.3101,2.3052,2.2744,2.2555,2.25,2.2109,2.1914,2.1826,2.1455,2.12,2.1133,2.082,2.0683,2.0615,2.0605,2.0586,2.0381,2.0077,1.9932,2.0117,2.0324,2.0412,2.0583,2.1353,2.15,2.106,2.176,2.1794,2.0993,2.0817,2.0453,2.0024,1.9861,1.9823,1.9673,1.9271,1.9058,1.9008,1.8506,1.8254,1.8242,1.8141,1.8053,1.7978,1.7639,1.7137,1.6613,1.6513,1.6513,1.6513,1.6513,1.6513,1.6513,1.6513,1.6513,1.6513,1.6513,1.6563,1.6647,1.6672,1.6575,1.6738,1.6839,1.6999,1.7375,1.7436,1.7614,1.7978,1.8042,1.8067,1.813,1.7727,1.7687,1.8129,1.8242,1.8342,1.8442,1.8792,1.9427,2.0459,2.1097,2.1997,2.2839,2.3282,2.3428,2.3655,2.3684,2.3699,2.3804,2.3999,2.4163,2.4328,2.4343,2.4433,2.4477,2.4448,2.4298,2.4014,2.3939,2.3691,2.4261,2.5017,2.547,2.5834,2.6279,2.6607,2.6708,2.6708,2.6708,2.6826,2.6962,2.7097,2.3101,2.3101,2.3101,2.3101,2.3091,2.2964,2.2925,2.2867,2.2519,2.2344,2.2246,2.1904,2.1543,2.12,2.1073,2.0889,2.0674,2.0615,2.0615,2.0586,2.0507,2.0915,2.1374,2.1297,2.1216,2.1323,2.1749,2.1806,2.1701,2.2127,2.213,2.187,2.1418,2.1018,2.0541,2.0453,2.0226,1.9861,1.9698,1.9585,1.9497,1.9058,1.8795,1.8757,1.8418,1.8254,1.8204,1.8078,1.7501,1.66,1.6513,1.6513,1.6538,1.6525,1.6525,1.655,1.6513,1.6513,1.6513,1.6525,1.6688,1.7112,1.7162,1.7325,1.7739,1.7752,1.784,1.799,1.799,1.8053,1.8191,1.8254,1.8405,1.8644,1.8342,1.8229,1.8644,1.8807,1.892,1.9309,1.9484,1.9775,2.0188,2.0735,2.1441,2.2221,2.2791,2.3253,2.3688,2.4178,2.4373,2.4695,2.4904,2.5031,2.5151,2.5151,2.5196,2.527,2.5285,2.527,2.4956,2.4687,2.4215,2.4018,2.5161,2.5822,2.5884,2.61,2.6349,2.7046,2.6979,2.7131,2.7402,2.7587,2.7739,2.3101,2.3101,2.3101,2.3101,2.3101,2.3101,2.3101,2.3052,2.2847,2.273,2.2676,2.2344,2.1914,2.1514,2.1288,2.0986,2.0644,2.0615,2.0615,2.0799,2.1479,2.2049,2.2349,2.2349,2.2489,2.2462,2.2421,2.2408,2.2427,2.2578,2.2531,2.2259,2.1995,2.1543,2.1043,2.0767,2.0553,2.0175,1.9975,1.9798,1.9761,1.9497,1.9359,1.9284,1.9007,1.8807,1.8606,1.8543,1.8028,1.7162,1.6886,1.6873,1.6848,1.6622,1.6613,1.6823,1.6663,1.6575,1.6835,1.6886,1.7149,1.7601,1.7739,1.789,1.8103,1.8204,1.8242,1.8494,1.8519,1.8656,1.8844,1.8882,1.9032,1.9221,1.9058,1.9007,1.9296,1.9346,1.9459,1.971,1.9824,1.9952,2.0169,2.0573,2.1372,2.2281,2.3048,2.358,2.4157,2.4649,2.5136,2.5428,2.5518,2.554,2.557,2.557,2.5824,2.5929,2.6168,2.6153,2.5719,2.5367,2.4971,2.4774,2.5545,2.6094,2.6254,2.6665,2.756,2.796,2.7706,2.774,2.8112,2.828,2.8432,2.3101,2.3101,2.3101,2.3101,2.3101,2.3101,2.3101,2.3101,2.3062,2.3062,2.2984,2.2691,2.2295,2.1906,2.1504,2.1055,2.0625,2.0615,2.0615,2.1165,2.2205,2.3137,2.2891,2.3722,2.4006,2.3952,2.3516,2.3223,2.3112,2.3128,2.2832,2.2531,2.2422,2.2096,2.1619,2.1169,2.088,2.0691,2.0264,2.0012,1.9949,1.9823,1.9698,1.9685,1.9673,1.9447,1.9196,1.9058,1.8631,1.7601,1.7501,1.7463,1.7423,1.6948,1.6986,1.73,1.7112,1.7036,1.7385,1.7498,1.7702,1.8166,1.8292,1.8342,1.8468,1.8568,1.8719,1.9058,1.9083,1.9259,1.9547,1.9736,1.9698,1.9698,1.971,1.9786,1.9861,1.9836,1.9798,1.9823,1.9836,2.022,2.055,2.098,2.1542,2.2839,2.3459,2.3907,2.4619,2.5352,2.5764,2.6102,2.6087,2.5944,2.5944,2.5944,2.6303,2.6587,2.6986,2.6986,2.6363,2.6004,2.5726,2.5735,2.5982,2.6445,2.6981,2.7663,2.8494,2.8739,2.8383,2.8688,2.9077,2.9076,2.9178,2.3101,2.3101,2.3101,2.3101,2.3101,2.3101,2.3101,2.3101,2.3101,2.3101,2.3071,2.2984,2.2568,2.1904,2.1748,2.1368,2.0703,2.0625,2.0615,2.0867,2.2601,2.3371,2.3595,2.4611,2.5181,2.4983,2.423,2.3828,2.3715,2.3308,2.3058,2.2932,2.2807,2.2656,2.2184,2.1933,2.1707,2.1333,2.0792,2.0515,2.0402,2.0049,1.9836,1.9811,1.9798,1.9761,1.9673,1.9648,1.9296,1.8732,1.8268,1.8078,1.799,1.7852,1.784,1.7915,1.7903,1.7852,1.8003,1.8066,1.8267,1.8732,1.8845,1.902,1.9434,1.9397,1.9472,1.9635,1.9648,1.9673,1.9836,1.9823,1.9899,1.9924,1.9936,2.0062,2.03,2.0113,1.9886,1.9962,2.0238,2.0569,2.074,2.1137,2.1983,2.3263,2.3889,2.4251,2.5068,2.5974,2.6372,2.6701,2.6776,2.6686,2.6662,2.6647,2.6782,2.7031,2.736,2.757,2.6971,2.6602,2.6363,2.6186,2.6099,2.6704,2.7529,2.8005,2.8721,2.8869,2.9144,2.9467,2.9719,2.9786,2.9922,2.3101,2.3101,2.3101,2.3101,2.3101,2.3101,2.3101,2.3101,2.3101,2.3101,2.3101,2.3101,2.2773,2.2178,2.1953,2.1494,2.0947,2.0683,2.0867,2.1489,2.285,2.3734,2.441,2.5277,2.5921,2.5498,2.4494,2.4042,2.3841,2.3446,2.3095,2.3095,2.3095,2.2945,2.2644,2.246,2.2146,2.1832,2.137,2.1081,2.0993,2.0528,2.0012,1.9861,1.9798,1.9798,1.9786,1.9786,1.9648,1.9359,1.9095,1.8819,1.8555,1.8343,1.8318,1.853,1.8304,1.8392,1.8493,1.8594,1.8807,1.9334,1.9371,1.9535,1.9723,1.9798,1.9798,1.9798,1.9811,1.9874,2.0162,2.0213,2.0275,2.0552,2.0577,2.0727,2.0918,2.0591,2.0338,2.0539,2.0918,2.1043,2.1219,2.1481,2.2187,2.3379,2.4133,2.4563,2.5756,2.6558,2.6927,2.721,2.739,2.745,2.745,2.742,2.7345,2.742,2.748,2.7585,2.736,2.7151,2.7001,2.6844,2.6778,2.7358,2.8086,2.8554,2.898,2.953,2.9917,3.0212,3.0412,3.0531,3.0649,2.3101,2.3101,2.3101,2.3101,2.3101,2.3101,2.3101,2.3101,2.3101,2.3101,2.3101,2.3101,2.2838,2.248,2.206,2.1631,2.1143,2.1075,2.1298,2.1952,2.3257,2.4181,2.4981,2.5775,2.621,2.5636,2.4833,2.4393,2.418,2.3597,2.3358,2.3246,2.312,2.307,2.2957,2.2694,2.2472,2.2372,2.1895,2.1606,2.1546,2.1094,2.0578,2.0112,2.0038,1.9911,1.9849,1.9798,1.9786,1.9798,1.9798,1.956,1.9146,1.877,1.8631,1.9083,1.8794,1.8819,1.9058,1.9133,1.9334,1.9786,1.9786,1.9786,1.9798,1.9823,1.9899,2.0012,2.0125,2.0339,2.0654,2.0779,2.1018,2.128,2.1443,2.1518,2.1546,2.1207,2.1192,2.1307,2.1468,2.1606,2.1681,2.1898,2.2626,2.3396,2.415,2.5029,2.6184,2.6993,2.7303,2.7435,2.754,2.7585,2.7585,2.8004,2.7959,2.7989,2.7914,2.7959,2.7974,2.8064,2.7974,2.761,2.7676,2.8108,2.842,2.8722,2.9302,3.0149,3.0476,3.0466,3.0796,3.1238,3.1343,2.3101,2.3101,2.3101,2.3101,2.3101,2.3101,2.3101,2.3101,2.3101,2.3101,2.3101,2.3091,2.2867,2.2519,2.209,2.1465,2.1066,2.1302,2.1811,2.2403,2.3745,2.4862,2.53,2.6025,2.6411,2.6235,2.5598,2.5272,2.4983,2.4406,2.3853,2.374,2.3371,2.3158,2.3095,2.2982,2.2882,2.2807,2.2393,2.2184,2.2058,2.1631,2.1119,2.0616,2.0541,2.0314,1.9924,1.9823,1.9798,1.9798,1.9798,1.9736,1.9623,1.9497,1.951,1.9535,1.9484,1.9434,1.956,1.9635,1.9698,1.9786,1.9849,1.9836,1.9836,1.9886,2.0175,2.0541,2.0867,2.1054,2.0729,2.1144,2.1368,2.1518,2.1631,2.1769,2.2046,2.2046,2.1832,2.1782,2.1983,2.2184,2.2246,2.2405,2.3,2.376,2.4558,2.5404,2.6431,2.7086,2.7479,2.7555,2.757,2.7585,2.7585,2.8199,2.8502,2.8663,2.8678,2.8771,2.8876,2.9142,2.9049,2.8786,2.8303,2.8191,2.8521,2.8983,2.9627,3.0418,3.0579,3.0725,3.1342,3.1918,3.1749,2.3101,2.3101,2.3101,2.3101,2.3101,2.3101,2.3101,2.3101,2.3101,2.3101,2.3101,2.3091,2.2994,2.2721,2.2393,2.1728,2.1313,2.1637,2.2274,2.2999,2.4264,2.5335,2.5652,2.6314,2.6418,2.6411,2.6197,2.585,2.5561,2.482,2.433,2.3979,2.3647,2.3409,2.3158,2.3083,2.3108,2.3032,2.2844,2.2694,2.2656,2.2155,2.1656,2.127,2.1081,2.0817,2.0402,2.0277,2.0087,1.9874,1.9798,1.9798,1.9811,1.9798,1.9811,1.9823,1.9811,1.9811,1.9798,1.9798,1.9798,1.9823,2.0049,2.0238,2.0338,2.0539,2.0765,2.1069,2.127,2.1518,2.1571,2.1757,2.2008,2.2284,2.2309,2.2422,2.2606,2.2669,2.2481,2.2272,2.2523,2.2669,2.2719,2.2993,2.3424,2.4121,2.4922,2.5741,2.6628,2.7266,2.775,2.7899,2.7989,2.8124,2.8214,2.8708,2.9086,2.922,2.943,2.9549,2.9564,2.9714,3.0013,3.0088,2.9519,2.8837,2.9154,2.9792,3.025,3.0768,3.1426,3.198,3.2302,3.2493,3.2391,2.3101,2.3101,2.3101,2.3101,2.3101,2.3101,2.3101,2.3101,2.3101,2.3101,2.3101,2.3101,2.3101,2.2945,2.2549,2.1934,2.1291,2.1914,2.275,2.3551,2.4814,2.5816,2.628,2.6487,2.6487,2.6487,2.6449,2.626,2.5824,2.5247,2.477,2.4494,2.4293,2.3879,2.3434,2.3371,2.3258,2.312,2.3095,2.3095,2.2982,2.2669,2.2209,2.1719,2.1656,2.1393,2.0891,2.0855,2.0666,2.0326,2.0112,1.9999,1.9962,1.9861,1.9861,1.9936,1.9874,1.9861,1.9987,2.0038,2.0163,2.0326,2.0641,2.0805,2.0981,2.1217,2.1568,2.1543,2.182,2.1933,2.2146,2.2397,2.2619,2.2869,2.3007,2.3083,2.302,2.3007,2.2982,2.2932,2.3108,2.3108,2.307,2.3085,2.3412,2.4105,2.4894,2.5563,2.6445,2.7528,2.8053,2.8319,2.8498,2.8753,2.8992,2.937,2.9669,2.9789,3.0103,3.0357,3.0253,3.0178,3.0509,3.0853,3.0612,3.0081,3.0346,3.0418,3.0704,3.1297,3.2469,3.2997,3.2955,3.322,3.3355,2.3101,2.3101,2.3101,2.3101,2.3101,2.3101,2.3101,2.3101,2.3101,2.3101,2.3101,2.3101,2.3101,2.2935,2.2344,2.1738,2.1829,2.2609,2.3386,2.395,2.5358,2.6233,2.6452,2.6487,2.6487,2.6487,2.6487,2.6474,2.621,2.5757,2.546,2.5247,2.4845,2.4412,2.3954,2.3891,2.3627,2.3221,2.312,2.3095,2.3083,2.3007,2.2669,2.2372,2.2171,2.1958,2.1481,2.1421,2.128,2.1194,2.0792,2.0616,2.0515,2.0075,2.0189,2.0264,2.0226,2.0024,2.0464,2.0591,2.0742,2.0991,2.1345,2.1408,2.1622,2.187,2.2046,2.1556,2.2243,2.2594,2.2506,2.2732,2.297,2.3083,2.3145,2.3195,2.3208,2.3346,2.3321,2.3459,2.3572,2.3409,2.3283,2.3273,2.3365,2.4118,2.4865,2.5605,2.6512,2.7748,2.8532,2.8813,2.9142,2.9397,2.9624,3.0043,3.0283,3.0402,3.0657,3.0972,3.0868,3.0763,3.1032,3.1241,3.1062,3.0904,3.0785,3.0819,3.1045,3.1861,3.2988,3.3309,3.3309,3.3689,3.4235,2.3101,2.3101,2.3101,2.3101,2.3101,2.3101,2.3101,2.3101,2.3101,2.3101,2.3101,2.3101,2.3101,2.2998,2.248,2.2324,2.2602,2.346,2.4056,2.4479,2.5734,2.6487,2.6487,2.6487,2.6487,2.6487,2.6487,2.6487,2.6386,2.6248,2.5996,2.5598,2.5372,2.4996,2.4519,2.4437,2.413,2.3703,2.3308,2.312,2.3095,2.3083,2.2995,2.2757,2.2732,2.2418,2.2096,2.1958,2.1769,2.1597,2.1232,2.1169,2.1119,2.0916,2.0916,2.1069,2.0955,2.093,2.1119,2.1169,2.1333,2.1518,2.1794,2.2096,2.2359,2.2531,2.2669,2.2456,2.2794,2.292,2.2794,2.297,2.3271,2.3409,2.3371,2.3672,2.3735,2.3665,2.3753,2.3885,2.401,2.3898,2.371,2.3514,2.3776,2.457,2.5501,2.6469,2.7394,2.8525,2.9098,2.9397,2.9756,3.0073,3.0328,3.0642,3.0883,3.1002,3.1017,3.1286,3.1361,3.1436,3.1496,3.1496,3.1346,3.1214,3.1122,3.1695,3.2344,3.295,3.3538,3.393,3.4276,3.4602,3.5025,2.3101,2.3101,2.3101,2.3101,2.3101,2.3101,2.3101,2.3101,2.3101,2.3101,2.3101,2.3135,2.3222,2.3408,2.3263,2.333,2.398,2.4419,2.4768,2.5421,2.597,2.6418,2.6487,2.6487,2.6487,2.6487,2.6487,2.6487,2.6487,2.6424,2.6223,2.5812,2.585,2.5511,2.5146,2.4958,2.4682,2.3954,2.3559,2.3308,2.3145,2.3095,2.3095,2.3083,2.3058,2.2907,2.2569,2.2493,2.2259,2.2071,2.1782,2.1694,2.1669,2.1468,2.1481,2.1634,2.1606,2.1744,2.1832,2.1857,2.1794,2.1983,2.2196,2.2619,2.292,2.3095,2.3083,2.297,2.3032,2.3095,2.3133,2.3208,2.3521,2.3753,2.3785,2.4199,2.4487,2.4286,2.4217,2.4299,2.4449,2.4562,2.4324,2.391,2.42,2.4979,2.604,2.7256,2.8352,2.9442,2.9818,3.0148,3.0417,3.0731,3.0881,3.1122,3.1421,3.1496,3.1496,3.1496,3.1496,3.1496,3.1496,3.1496,3.1496,3.1476,3.1356,3.2545,3.3673,3.3941,3.4306,3.5014,3.543,3.5616,3.56,2.3101,2.3101,2.3101,2.3101,2.3101,2.3101,2.3101,2.3101,2.3101,2.3101,2.3101,2.3135,2.3681,2.4279,2.4252,2.4548,2.5609,2.5669,2.5787,2.5961,2.6226,2.6593,2.6637,2.66,2.6537,2.6487,2.6487,2.6487,2.6487,2.6487,2.6449,2.6424,2.6285,2.5975,2.5674,2.5423,2.5008,2.4381,2.4017,2.3672,2.3384,2.3221,2.317,2.3158,2.3133,2.307,2.3032,2.297,2.2907,2.2786,2.246,2.223,2.2196,2.1945,2.1958,2.2171,2.223,2.2393,2.2556,2.2456,2.2518,2.2807,2.297,2.2957,2.3083,2.3095,2.3095,2.3183,2.3271,2.3271,2.3371,2.3577,2.3979,2.4192,2.4368,2.4632,2.487,2.48,2.4757,2.4808,2.4958,2.5184,2.5222,2.487,2.5176,2.5955,2.7476,2.8742,2.9475,3.038,3.0692,3.0972,3.1167,3.1331,3.1346,3.1496,3.1496,3.1496,3.1496,3.1496,3.1496,3.1496,3.1496,3.1496,3.1496,3.1553,3.1809,3.2806,3.3738,3.4439,3.5012,3.5424,3.5616,3.5616,3.5616,2.3101,2.3101,2.3101,2.3101,2.3101,2.3101,2.3101,2.3101,2.3101,2.3101,2.3101,2.3135,2.3714,2.4522,2.4767,2.5379,2.6595,2.6736,2.6888,2.7152,2.7401,2.7281,2.7165,2.6939,2.6839,2.6587,2.6499,2.6487,2.6487,2.6487,2.6487,2.6487,2.6487,2.6399,2.6147,2.5787,2.5347,2.5046,2.4657,2.4311,2.4173,2.3772,2.3634,2.3665,2.3195,2.312,2.3083,2.3095,2.3095,2.3045,2.2869,2.2782,2.2732,2.2481,2.2518,2.2694,2.2719,2.2869,2.3007,2.2895,2.292,2.2995,2.3083,2.312,2.317,2.3133,2.3346,2.3484,2.3634,2.3697,2.4161,2.4393,2.4607,2.4782,2.4958,2.5146,2.5272,2.531,2.5398,2.5485,2.5711,2.5984,2.5971,2.5908,2.6369,2.7019,2.8649,3.0032,3.0611,3.0987,3.1197,3.1301,3.1451,3.1496,3.1496,3.1496,3.1496,3.1496,3.1496,3.1496,3.1496,3.1496,3.1496,3.1496,3.1553,3.1682,3.2132,3.2971,3.3684,3.4235,3.4894,3.5532,3.5616,3.5616,3.5616,2.3101,2.3101,2.3101,2.3101,2.3135,2.3474,2.3594,2.3594,2.3637,2.3343,2.3144,2.3135,2.3973,2.4967,2.5357,2.6427,2.7596,2.7938,2.8037,2.8102,2.806,2.7896,2.7657,2.7457,2.7304,2.6851,2.6713,2.6738,2.6487,2.6487,2.6487,2.6487,2.6487,2.6474,2.6386,2.6135,2.5774,2.5523,2.5297,2.4888,2.475,2.4424,2.4243,2.4217,2.3873,2.3584,2.3496,2.3464,2.3283,2.3183,2.307,2.3083,2.3083,2.3095,2.3095,2.3095,2.3108,2.3108,2.3108,2.3095,2.3095,2.3095,2.3389,2.3401,2.3371,2.3496,2.3948,2.4167,2.4268,2.4418,2.4838,2.4921,2.5084,2.5259,2.5448,2.5682,2.5896,2.5996,2.6109,2.6223,2.6373,2.6382,2.6726,2.6771,2.7516,2.8083,2.9073,3.0294,3.101,3.1301,3.1376,3.1436,3.1481,3.1496,3.1496,3.1496,3.1496,3.1496,3.1496,3.1496,3.1496,3.1496,3.1496,3.1496,3.1611,3.1796,3.216,3.2664,3.3271,3.3937,3.4728,3.56,3.5616,3.5616,3.5616,2.3101,2.3101,2.3101,2.3101,2.3222,2.4286,2.4713,2.4585,2.4585,2.4092,2.3309,2.3222,2.4349,2.5891,2.6182,2.7394,2.8883,2.8973,2.885,2.8775,2.8599,2.8247,2.8109,2.8021,2.7808,2.7417,2.7278,2.7077,2.665,2.6776,2.67,2.6637,2.6713,2.6562,2.6512,2.6474,2.6172,2.5686,2.5611,2.536,2.5109,2.4876,2.4808,2.4757,2.455,2.4236,2.4054,2.3979,2.3785,2.3521,2.3421,2.3371,2.3258,2.3246,2.3195,2.3108,2.3158,2.3183,2.3158,2.3145,2.3271,2.3396,2.3785,2.3966,2.4092,2.4356,2.4625,2.4757,2.4808,2.48,2.5046,2.5285,2.5561,2.5737,2.5959,2.6072,2.6285,2.6373,2.6424,2.6436,2.6461,2.6577,2.7149,2.7696,2.8547,2.9233,2.9815,3.0539,3.1307,3.1496,3.1496,3.1496,3.1496,3.1496,3.1496,3.1496,3.1496,3.1496,3.1496,3.1496,3.1496,3.1496,3.1496,3.1496,3.1553,3.1653,3.1866,3.216,3.3209,3.4301,3.4958,3.56,3.56,3.5616,3.5616,2.3101,2.3101,2.3101,2.3101,2.3266,2.4339,2.484,2.4798,2.4787,2.4575,2.4135,2.3507,2.4349,2.5891,2.6689,2.7678,2.9394,2.9704,2.9503,2.944,2.9202,2.8976,2.8787,2.8599,2.8311,2.7959,2.7795,2.7758,2.7582,2.7431,2.7507,2.7519,2.7153,2.6839,2.6587,2.6487,2.6336,2.6235,2.6197,2.6097,2.5908,2.5548,2.5335,2.531,2.5059,2.4795,2.4569,2.4544,2.4349,2.4123,2.4073,2.3973,2.376,2.3684,2.3521,2.3384,2.3384,2.3873,2.4086,2.4249,2.4236,2.4299,2.4349,2.4544,2.4594,2.4637,2.4926,2.5259,2.5347,2.5485,2.5946,2.6059,2.6223,2.6235,2.6348,2.6348,2.6461,2.6461,2.6474,2.6474,2.6487,2.6884,2.7397,2.8201,2.9097,2.9858,3.0419,3.0792,3.1438,3.1496,3.1496,3.1496,3.1496,3.1496,3.1496,3.1496,3.1496,3.1496,3.1496,3.1496,3.1496,3.1496,3.1496,3.1496,3.1496,3.1524,3.1923,3.2489,3.3761,3.48,3.5276,3.556,3.56,3.5616,3.5616,2.3101,2.3101,2.3101,2.3101,2.3343,2.4723,2.5577,2.587,2.59,2.5566,2.4745,2.3996,2.4681,2.6058,2.6648,2.773,2.9663,2.9779,2.9779,2.9779,2.9767,2.9503,2.9302,2.9176,2.8888,2.8536,2.836,2.831,2.7996,2.8072,2.8047,2.7921,2.7758,2.7457,2.7165,2.7002,2.6813,2.6776,2.6751,2.6637,2.6399,2.6147,2.59,2.5812,2.5624,2.5335,2.5159,2.5059,2.5008,2.4921,2.4763,2.465,2.4393,2.423,2.4061,2.3935,2.401,2.4556,2.4895,2.5013,2.5096,2.5385,2.5202,2.5064,2.5159,2.5347,2.5586,2.5812,2.585,2.605,2.6373,2.6487,2.6487,2.6487,2.6487,2.6487,2.6537,2.6537,2.665,2.6637,2.6895,2.7309,2.7749,2.8652,2.9566,3.0269,3.094,3.1248,3.1496,3.1496,3.1496,3.1496,3.1496,3.1496,3.1496,3.1496,3.1496,3.1496,3.1496,3.1496,3.1496,3.1496,3.1496,3.1496,3.1496,3.1625,3.2089,3.2864,3.3912,3.4728,3.5276,3.5492,3.5577,3.5616,3.5616,2.3178,2.3135,2.3178,2.3266,2.3551,2.5462,2.7005,2.8056,2.8004,2.6808,2.4999,2.5041,2.563,2.6431,2.6595,2.7839,2.9468,2.974,2.9779,2.9779,2.9779,2.9704,2.9716,2.9654,2.9352,2.9063,2.8888,2.8787,2.8273,2.8436,2.8423,2.8285,2.8247,2.8147,2.7996,2.7733,2.7469,2.7344,2.7281,2.7165,2.6914,2.6612,2.6524,2.6436,2.6298,2.5975,2.5774,2.5624,2.5398,2.5197,2.4983,2.4876,2.4825,2.4845,2.48,2.48,2.482,2.5134,2.5511,2.5624,2.5812,2.6059,2.585,2.5699,2.5724,2.5971,2.6147,2.6248,2.6298,2.6361,2.6487,2.6487,2.6487,2.6487,2.6487,2.6524,2.6587,2.6688,2.6851,2.7056,2.7449,2.7837,2.8341,2.9146,3.016,3.0584,3.1131,3.1307,3.1496,3.1496,3.1496,3.1496,3.1496,3.1496,3.1496,3.1496,3.1496,3.1496,3.1496,3.1496,3.1496,3.1496,3.1496,3.1496,3.1496,3.1809,3.2501,3.314,3.382,3.4568,3.5362,3.5492,3.5616,3.5616,3.5616,2.4339,2.4425,2.5189,2.5052,2.4595,2.5891,2.7557,2.9118,2.8518,2.7591,2.7105,2.6337,2.6625,2.7602,2.7643,2.8557,2.9275,2.9779,2.9779,2.9779,2.9779,2.9779,2.9779,2.9767,2.9654,2.9578,2.9478,2.9377,2.9315,2.9252,2.9227,2.9302,2.8863,2.8938,2.8913,2.8725,2.8298,2.7984,2.7921,2.7695,2.7457,2.7228,2.7128,2.6977,2.67,2.6424,2.6235,2.6172,2.6021,2.5996,2.5971,2.585,2.5372,2.5372,2.5372,2.5372,2.5423,2.5611,2.6109,2.6235,2.6311,2.6436,2.6311,2.6298,2.6298,2.6373,2.6512,2.6487,2.6587,2.6637,2.67,2.6713,2.6751,2.6788,2.6788,2.6813,2.6927,2.7178,2.7329,2.7793,2.819,2.8786,2.9242,2.9972,3.0878,3.1132,3.1322,3.1438,3.1496,3.1496,3.1496,3.1496,3.1496,3.1496,3.1496,3.1496,3.1496,3.1496,3.1496,3.1496,3.1496,3.1496,3.1496,3.1496,3.1496,3.2201,3.3156,3.3659,3.3887,3.48,3.5577,3.5577,3.5616,3.5616,3.5616,2.4798,2.4957,2.6016,2.6337,2.6273,2.686,2.8199,2.9495,2.9067,2.8597,2.8044,2.7412,2.7481,2.7964,2.8096,2.8688,2.9702,2.9779,2.9779,2.9779,2.9779,2.9779,2.9779,2.9779,2.9767,2.9779,2.9779,2.9691,2.9779,2.9779,2.9754,2.9691,2.9377,2.9515,2.9553,2.9365,2.9126,2.8812,2.8574,2.8311,2.8072,2.7795,2.7605,2.7329,2.6964,2.6788,2.6562,2.6549,2.6524,2.6499,2.6487,2.6361,2.595,2.5937,2.5971,2.595,2.5996,2.6122,2.6373,2.6436,2.6474,2.6562,2.6713,2.6813,2.6688,2.665,2.6575,2.6499,2.67,2.6864,2.6927,2.7002,2.7102,2.7155,2.7155,2.7155,2.7406,2.7695,2.8132,2.8624,2.9194,2.9819,3.0446,3.1094,3.1427,3.1396,3.1409,3.1438,3.1496,3.1496,3.1496,3.1496,3.1496,3.1496,3.1496,3.1496,3.1496,3.1496,3.1496,3.1496,3.1496,3.1496,3.1496,3.1496,3.1496,3.2351,3.3287,3.3556,3.3912,3.4887,3.5616,3.5616,3.5616,3.5616,3.5616,2.5073,2.521,2.6182,2.725,2.8136,2.8084,2.8727,2.9753,2.9702,2.9236,2.8386,2.8255,2.8307,2.8505,2.8505,2.8937,2.9573,2.9779,2.9779,2.9779,2.9779,2.9779,2.9779,2.9779,2.9779,2.9779,2.9779,2.9779,2.9779,2.9779,2.9779,2.9779,2.9741,2.9754,2.9729,2.9716,2.9553,2.944,2.9139,2.8863,2.8486,2.8197,2.7946,2.7582,2.7356,2.7203,2.6839,2.6663,2.6625,2.6637,2.6663,2.6713,2.6575,2.6562,2.6562,2.665,2.6675,2.6788,2.6876,2.6914,2.6826,2.6927,2.7055,2.7304,2.7266,2.7128,2.704,2.704,2.7231,2.7331,2.7406,2.7519,2.7632,2.7657,2.7657,2.7657,2.7783,2.8243,2.8946,2.9464,3.0057,3.0682,3.1224,3.1782,3.1649,3.1602,3.1496,3.1496,3.1496,3.1496,3.1496,3.1496,3.1496,3.1496,3.1496,3.1496,3.1496,3.1496,3.1496,3.1496,3.1496,3.1496,3.1496,3.1553,3.1682,3.2434,3.3182,3.3582,3.4227,3.5068,3.5616,3.5616,3.5616,3.5616,3.5616,2.7308,2.7337,2.7602,2.8359,2.9197,2.8466,2.8767,2.974,2.9779,2.9624,2.9404,2.9365,2.9326,2.9236,2.9223,2.9534,2.9663,2.9779,2.9779,2.9779,2.9779,2.9779,2.9779,2.9779,2.9779,2.9779,2.9779,2.9779,2.9779,2.9779,2.9779,2.9779,2.9779,2.9779,2.9779,2.9779,2.9779,2.9767,2.9603,2.9428,2.9239,2.89,2.8612,2.8373,2.8185,2.7858,2.7607,2.7632,2.7682,2.772,2.772,2.7507,2.7153,2.714,2.7128,2.719,2.7406,2.7507,2.7544,2.7519,2.7507,2.762,2.7795,2.7858,2.7858,2.7758,2.772,2.7745,2.7783,2.7858,2.7946,2.8084,2.8222,2.821,2.821,2.821,2.821,2.8929,2.9693,3.0355,3.098,3.148,3.1986,3.2049,3.1901,3.1737,3.1556,3.1496,3.1496,3.1496,3.1496,3.1496,3.1496,3.1496,3.1496,3.1496,3.1496,3.1496,3.1496,3.1496,3.1496,3.1496,3.1524,3.171,3.2007,3.268,3.3365,3.4037,3.4704,3.5379,3.5616,3.5616,3.5616,3.5616,3.5616,2.8084,2.8176,2.8648,2.9197,2.9611,2.9106,2.9236,2.9702,2.9779,2.9779,2.9779,2.9779,2.9779,2.9779,2.9779,2.9779,2.9779,2.9779,2.9779,2.9779,2.9779,2.9779,2.9779,2.9779,2.9779,2.9779,2.9779,2.9779,2.9779,2.9779,2.9779,2.9779,2.9779,2.9779,2.9779,2.9779,2.9779,2.9779,2.9779,2.9779,2.9779,2.9465,2.9076,2.8888,2.8662,2.8386,2.8134,2.8109,2.8109,2.8097,2.8034,2.7959,2.7695,2.7645,2.7645,2.7708,2.7883,2.8109,2.8147,2.8185,2.8197,2.8222,2.8436,2.8448,2.8561,2.8473,2.8348,2.8373,2.8398,2.8461,2.8612,2.8712,2.8976,2.9076,2.9076,2.9076,2.9314,2.9854,3.0724,3.1577,3.2048,3.2401,3.2678,3.2437,3.2228,3.1662,3.1511,3.1496,3.1496,3.1496,3.1496,3.1496,3.1496,3.1496,3.1496,3.1496,3.1496,3.1496,3.1496,3.1496,3.1496,3.1496,3.1553,3.171,3.2076,3.2788,3.3469,3.4211,3.4823,3.5447,3.5577,3.5616,3.5633,3.5735,3.591,2.8386,2.8466,2.9365,2.9779,2.9779,2.9779,2.9779,2.9779,2.9779,2.9779,2.9779,2.9779,2.9779,2.9779,2.9779,2.9779,2.9779,2.9779,2.9779,2.9779,2.9779,2.9779,2.9779,2.9779,2.9779,2.9779,2.9779,2.9779,2.9779,2.9779,2.9779,2.9779,2.9779,2.9779,2.9779,2.9779,2.9779,2.9779,2.9779,2.9779,2.9779,2.9779,2.9478,2.9202,2.9001,2.8775,2.8486,2.8348,2.836,2.8323,2.8386,2.8273,2.8247,2.821,2.821,2.8273,2.8461,2.8524,2.8499,2.8549,2.8486,2.8524,2.88,2.9001,2.9139,2.9101,2.8988,2.8963,2.8988,2.9013,2.9164,2.9276,2.9566,2.9704,2.9704,2.982,3.0215,3.0605,3.1502,3.2433,3.2817,3.3118,3.2917,3.2721,3.2302,3.1735,3.1496,3.1496,3.1496,3.1496,3.1496,3.1496,3.1496,3.1496,3.1496,3.1496,3.1496,3.1496,3.1496,3.1496,3.1496,3.1496,3.1553,3.1668,3.2132,3.3007,3.3665,3.4333,3.4958,3.565,3.5577,3.5667,3.6045,3.6163,3.6383,2.9495,2.9507,2.9753,2.9779,2.9779,2.9779,2.9779,2.9779,2.9779,2.9779,2.9779,2.9779,2.9779,2.9779,2.9779,2.9779,2.9779,2.9779,2.9779,2.9779,2.9779,2.9779,2.9779,2.9779,2.9779,2.9779,2.9779,2.9779,2.9779,2.9779,2.9779,2.9779,2.9779,2.9779,2.9779,2.9779,2.9779,2.9779,2.9779,2.9779,2.9779,2.9779,2.9767,2.9641,2.9616,2.9553,2.9478,2.9478,2.9478,2.9352,2.9026,2.88,2.8737,2.8737,2.8787,2.885,2.9038,2.9189,2.9189,2.9189,2.9164,2.9214,2.9465,2.949,2.9553,2.9566,2.949,2.949,2.9503,2.9503,2.9603,2.9603,2.9754,2.9754,2.9754,3.0114,3.0504,3.0958,3.1609,3.2291,3.2835,3.2852,3.2674,3.2452,3.2153,3.172,3.1511,3.1496,3.1496,3.1496,3.154,3.1525,3.154,3.1496,3.1496,3.1496,3.1496,3.1496,3.157,3.172,3.172,3.1511,3.1612,3.2394,3.281,3.3498,3.4101,3.5053,3.5392,3.5982,3.5718,3.5735,3.6214,3.6654,3.6924]}]]